GFSWCAN_sfc_dewp_003.txt.gz
Dewpoint
41 41 43 42 42 42 41 41 41 41 41 42 41 41 42 41 42 44 43 46 41 41 43 43 43 40 39 39 38 40 40 41 40 36 36 36 32 32 29 28 31 30 30 29 30 28 21 33 36 33 32 32 33 36
40 42 43 41 42 41 41 41 41 41 41 41 41 41 41 41 41 44 41 44 44 41 43 46 45 44 43 43 42 43 40 41 42 40 38 39 36 33 30 27 32 31 31 30 31 28 31 33 33 34 34 33 33 36
41 43 43 41 42 41 41 41 41 40 39 39 39 39 39 40 41 43 43 43 40 43 43 42 41 45 46 46 46 42 42 43 43 46 43 38 36 35 30 31 30 33 36 35 33 32 33 34 34 34 34 34 35 34
41 43 43 42 42 41 40 40 40 39 39 38 38 39 39 39 40 42 42 44 41 37 40 37 44 41 45 47 46 46 46 47 47 46 42 40 36 35 33 33 33 35 36 34 33 34 34 34 34 34 34 34 33 33
42 43 42 41 41 41 40 40 40 39 39 39 39 38 39 39 40 41 42 43 43 37 39 40 42 43 46 46 46 47 46 45 44 42 41 40 39 36 34 33 33 36 35 34 33 35 34 33 34 34 34 33 33 31
41 43 41 40 40 40 40 40 40 40 39 39 38 37 39 39 39 40 37 44 45 44 41 38 44 44 47 47 46 45 46 46 45 43 41 44 42 38 33 33 37 36 35 36 36 34 34 34 34 34 33 33 32 32
41 42 38 38 41 40 40 40 40 40 40 39 38 39 40 40 40 37 37 43 44 44 41 37 36 45 46 46 46 46 47 46 45 42 41 43 43 44 40 36 37 38 38 35 34 34 33 34 33 33 33 32 32 30
41 42 41 38 41 40 39 39 40 40 39 39 40 41 40 41 41 39 43 44 45 41 43 36 36 38 46 42 42 46 44 45 45 43 43 42 41 41 38 39 37 35 34 34 34 34 34 34 33 32 32 31 30 29
41 43 41 38 40 39 40 40 40 40 38 41 40 41 44 41 38 39 42 42 45 43 39 38 34 30 44 43 42 44 44 40 44 41 41 40 39 36 38 38 36 35 34 34 33 33 33 33 32 31 30 30 29 29
41 42 41 39 38 39 40 40 40 38 39 38 37 35 35 37 41 41 44 41 40 42 43 39 36 36 39 40 40 40 40 38 34 39 40 37 38 39 39 39 37 36 34 32 31 29 30 31 32 30 29 29 28 28
41 42 41 40 40 39 40 39 39 39 37 36 32 33 38 41 40 40 36 37 39 36 41 39 35 37 40 37 38 37 35 34 33 33 36 34 33 36 35 37 38 35 33 33 33 32 33 32 31 29 28 29 29 28
41 42 40 40 40 40 40 38 39 35 35 37 37 39 39 35 33 31 32 35 35 30 38 39 38 36 37 38 35 37 32 34 31 30 33 31 32 31 32 35 36 33 32 32 31 32 32 31 29 28 27 27 27 25
41 42 40 40 40 40 39 39 39 37 40 36 34 27 29 31 28 28 28 32 33 35 36 36 35 36 35 34 31 30 33 32 29 30 29 28 30 30 31 33 33 32 32 30 29 29 29 28 28 26 25 25 24 22
41 42 40 41 40 38 39 38 37 38 37 29 27 18 26 27 28 31 30 31 34 34 36 37 35 34 33 28 30 33 33 32 28 26 22 25 27 28 30 31 32 31 29 28 27 27 28 27 26 26 25 25 22 21
42 41 41 38 38 39 38 37 39 40 35 27 27 14 24 31 31 32 32 32 35 36 36 35 34 32 26 29 29 31 29 26 27 25 24 24 22 26 30 31 30 28 27 26 27 27 27 26 25 25 24 24 22 21
42 40 33 36 39 39 37 36 37 38 33 30 26 19 28 22 17 29 31 32 36 38 35 35 33 31 27 30 28 28 26 25 26 26 24 21 26 29 30 29 28 27 26 26 26 27 26 26 25 24 24 23 22 20
40 33 37 38 40 37 35 33 34 30 29 26 27 31 29 26 25 27 28 31 37 35 34 33 31 30 26 23 24 25 25 29 31 24 20 25 22 26 28 27 27 27 26 26 26 26 26 25 24 22 20 19 18 17
35 34 38 40 36 32 28 27 29 27 24 27 26 25 27 26 24 26 29 33 33 32 32 32 29 24 20 21 22 27 28 23 26 28 22 25 25 26 27 27 27 26 26 25 26 26 26 25 23 21 19 18 16 15
37 36 38 36 34 26 19 21 28 22 22 25 26 26 26 26 27 28 29 31 33 35 33 32 29 21 22 22 22 24 23 22 26 26 25 24 25 26 26 26 25 25 25 25 25 25 24 22 20 19 17 16 14 13
39 37 36 34 33 21 14 17 28 25 19 19 25 24 24 24 25 24 25 30 32 32 31 30 30 29 27 25 23 26 28 26 26 25 25 24 23 20 23 25 24 24 23 22 22 22 19 18 17 17 15 14 13 13
32 33 33 30 25 24 21 22 23 23 23 22 22 22 20 23 21 25 27 30 29 30 31 29 27 26 28 30 30 28 29 28 27 27 26 21 23 23 23 23 23 22 21 20 19 20 19 16 15 17 16 13 11 9
32 32 27 24 20 14 21 25 23 19 19 13 20 18 18 19 20 14 23 24 26 22 24 22 23 22 22 24 27 29 29 29 29 28 27 27 24 23 23 24 23 22 22 21 20 17 16 16 15 12 11 11 12 12
30 25 18 17 15 8 7 12 11 15 16 8 11 8 6 7 9 11 22 18 16 19 20 20 20 22 22 26 29 30 31 29 28 27 27 26 26 25 25 24 24 23 21 20 19 18 17 18 16 12 12 11 11 11
23 15 15 14 10 3 8 1 9 5 3 7 14 6 0 0 10 8 17 8 15 19 16 12 16 16 18 22 24 26 28 29 27 25 26 25 24 24 24 23 23 23 21 19 19 19 17 14 17 12 11 12 9 5
17 10 9 3 -0 2 -1 -1 -4 3 2 -3 12 8 1 14 12 1 11 6 2 13 13 12 12 13 14 15 19 22 26 28 27 26 26 26 24 23 22 22 20 20 21 21 19 18 18 16 15 14 12 10 8 8
10 7 6 4 -2 2 2 -2 -3 -1 -1 4 6 1 -2 7 6 8 6 3 10 7 6 8 9 10 11 13 15 16 20 24 25 25 24 26 25 23 22 20 20 20 22 21 20 18 16 16 14 13 11 12 14 7
9 9 9 12 11 9 8 8 8 4 2 1 -2 -0 -2 -1 -2 7 8 6 5 2 3 4 7 9 10 11 14 18 22 23 23 25 26 27 27 25 24 22 21 21 22 22 21 19 17 15 14 13 12 11 9 9
17 12 8 8 8 4 1 2 0 2 3 7 8 -0 0 4 6 6 5 0 -1 -4 -0 5 8 9 10 13 17 19 20 21 22 23 23 23 24 24 25 24 25 27 24 23 21 20 18 15 14 11 9 9 8 8
17 13 11 7 -1 6 3 4 3 6 10 8 6 3 4 7 1 -2 1 -1 -7 -7 -3 2 7 8 14 16 18 20 20 20 19 18 17 15 15 19 24 26 25 24 24 23 24 20 16 14 12 11 10 7 5 3
14 12 5 1 3 5 4 4 -1 -2 7 7 8 6 6 4 0 -4 -3 -5 -5 0 -2 2 7 12 13 14 16 17 18 19 21 21 17 16 16 20 22 22 22 22 22 21 21 21 22 16 15 8 5 3 2 1
14 7 0 1 1 -4 -5 -2 -1 11 -2 -7 -5 -1 1 -0 2 -3 -5 -5 -2 0 -1 4 9 9 11 13 16 16 15 17 20 20 20 20 20 20 21 21 22 22 21 18 15 14 13 10 7 5 3 2 5 2
9 3 3 1 -2 -2 -4 -8 -10 -7 -9 -8 -7 -9 -6 -3 -2 -1 -2 -3 1 5 10 11 10 11 14 16 17 20 20 18 19 20 19 19 19 19 19 19 19 18 17 15 13 11 9 8 6 4 3 2 1 0
1 -3 -8 -7 -6 -5 -2 -5 -6 -8 -9 -11 -7 -6 -8 -2 1 1 0 3 6 7 10 12 14 15 16 17 17 18 19 19 21 23 23 22 21 20 17 16 16 15 12 9 8 7 5 5 3 2 1 -0 -1 -2

GFSWCAN_sfc_dewp_006.txt.gz
Dewpoint
40 40 41 43 41 42 41 41 41 40 39 39 39 40 40 40 41 43 44 44 40 37 38 44 42 40 41 40 37 40 40 41 41 36 35 34 33 32 32 31 32 30 31 31 31 28 28 33 36 31 33 35 34 36
40 40 42 42 40 42 41 41 40 39 39 38 38 38 38 40 40 42 40 45 43 39 41 46 46 45 43 42 43 43 41 40 41 38 38 38 34 35 32 29 33 32 33 31 32 30 32 34 35 36 35 35 34 36
39 40 43 43 42 41 41 41 40 40 39 39 38 38 38 38 39 39 42 44 41 38 44 44 42 45 47 46 47 42 43 43 43 46 43 40 37 38 33 33 33 35 36 35 34 34 35 35 36 35 35 35 35 38
39 41 42 43 41 40 41 40 40 40 40 39 39 38 38 39 39 39 40 42 40 37 36 40 45 44 48 47 46 46 45 47 47 46 41 39 38 38 36 35 35 36 37 36 35 36 36 35 35 35 34 34 34 34
39 40 42 42 40 40 41 40 40 39 39 39 39 39 38 39 40 40 41 41 43 37 36 41 44 46 47 47 46 47 46 45 45 42 41 38 40 38 37 37 35 36 36 33 31 36 35 35 35 35 34 33 32 31
39 40 42 42 39 39 41 39 39 40 40 39 39 39 39 39 39 40 37 44 45 42 37 38 45 44 45 46 46 46 46 45 45 43 41 42 44 40 39 36 37 36 37 37 36 35 34 35 35 34 33 33 32 31
39 40 42 43 40 39 40 38 39 39 39 39 39 39 39 39 41 36 35 42 43 43 37 38 38 45 47 46 46 45 46 46 45 43 41 41 42 43 41 36 37 38 38 37 36 35 35 35 34 34 33 32 32 29
39 40 42 43 41 38 39 39 39 39 39 39 39 38 40 42 40 38 40 43 45 41 41 37 37 39 46 42 41 46 45 45 45 43 43 42 42 42 39 40 40 38 37 36 35 35 35 35 33 33 32 31 29 28
38 40 42 43 41 39 38 39 39 39 39 38 38 40 43 41 38 40 42 42 44 41 38 39 36 35 45 43 43 45 45 41 44 42 41 41 39 37 40 40 39 39 37 36 35 34 34 34 32 32 32 31 29 28
39 40 41 43 40 40 39 38 39 39 38 38 38 35 35 37 40 42 42 39 39 40 41 39 38 37 40 41 42 41 41 39 35 39 40 38 38 41 41 41 41 38 37 35 34 34 35 35 34 32 32 30 29 27
39 39 41 43 41 40 40 39 39 39 37 37 34 33 38 40 40 39 35 35 37 36 41 40 38 37 42 38 39 40 38 36 34 35 36 36 35 37 37 35 37 39 36 35 34 34 34 34 32 31 30 29 28 27
39 39 41 42 40 40 38 39 39 37 37 35 37 39 39 35 34 33 33 34 35 34 39 39 39 38 40 41 40 39 36 36 33 33 34 32 36 36 33 33 36 37 35 34 32 33 34 33 31 30 29 28 28 26
39 39 41 42 40 40 39 39 38 38 40 37 33 31 31 33 29 29 27 31 33 36 36 37 37 39 38 38 36 36 34 33 33 33 30 33 36 33 31 33 34 33 33 32 32 33 32 32 31 29 28 27 25 24
39 40 42 41 40 38 39 38 37 39 36 30 27 22 27 27 29 30 30 31 35 34 36 38 36 36 36 36 34 33 34 33 30 28 30 35 33 29 29 33 33 32 32 31 30 30 31 30 29 29 28 27 24 22
39 41 42 40 37 39 38 36 38 40 35 28 28 24 27 29 31 33 33 33 34 37 36 36 35 34 34 33 32 33 31 28 29 30 34 35 31 28 31 32 33 31 29 29 30 29 29 28 26 26 27 26 23 21
40 41 36 37 38 39 36 37 37 38 34 31 28 26 28 27 26 29 31 30 36 36 36 35 34 33 34 33 31 31 29 28 32 35 36 29 29 30 32 31 31 29 28 28 28 28 27 26 25 24 23 22 21 19
40 37 37 38 39 35 36 34 35 31 29 26 28 31 30 28 26 28 27 28 33 34 33 33 32 33 31 30 29 31 30 35 33 34 29 30 30 30 30 29 29 28 27 27 27 27 26 25 23 22 21 20 19 18
39 36 38 38 36 32 30 32 32 27 24 28 25 28 27 28 27 27 29 30 29 31 32 32 32 30 29 28 30 29 30 30 31 29 29 29 29 29 29 29 28 27 27 27 27 28 27 25 24 22 22 21 20 18
40 37 39 37 34 30 26 26 30 20 23 26 26 26 26 26 27 28 28 29 31 33 32 32 31 30 29 28 28 28 29 29 28 28 28 27 27 28 28 28 28 28 28 28 27 26 25 23 21 20 19 18 16 15
42 40 37 35 33 27 22 22 29 24 21 24 25 23 24 23 24 25 25 27 31 32 30 30 31 29 27 27 29 28 28 29 28 27 28 28 26 26 28 28 26 27 27 27 26 24 21 20 19 19 18 17 15 15
35 35 33 31 29 27 24 22 23 23 24 21 23 21 21 23 22 23 25 28 29 27 29 27 25 24 24 24 26 29 28 29 28 28 28 28 27 26 25 26 27 25 24 24 22 22 21 19 18 19 20 16 14 12
33 33 27 26 23 23 23 26 24 22 20 18 20 19 18 19 21 22 23 24 25 25 23 22 22 21 20 20 22 25 28 29 30 30 31 30 28 26 25 26 25 26 26 25 23 20 18 17 18 15 13 13 13 13
30 26 22 21 17 15 14 16 16 18 17 14 15 14 16 17 19 17 21 23 22 22 21 20 19 18 17 19 22 26 29 28 27 28 29 28 28 27 27 26 26 27 25 24 23 20 20 20 18 13 13 12 12 13
24 22 20 17 14 11 11 9 12 12 13 14 16 13 10 13 16 17 19 19 18 19 18 16 14 12 13 16 15 17 22 24 25 27 29 28 27 26 25 25 24 25 24 21 21 20 19 15 17 13 12 14 12 7
21 18 15 6 8 10 7 8 5 10 7 5 14 11 11 15 16 13 15 16 13 15 16 14 12 11 11 11 13 15 18 20 22 21 24 28 27 25 25 24 22 22 22 22 20 20 19 18 16 16 14 12 11 11
17 14 10 12 10 9 8 6 5 8 5 8 9 8 7 13 10 11 13 16 15 14 14 12 10 9 9 11 11 12 14 17 19 19 21 28 27 27 25 23 21 21 22 22 21 20 18 17 16 16 13 14 16 11
15 13 11 10 10 8 9 10 9 8 6 3 6 8 8 3 6 11 13 12 13 12 11 11 10 9 9 10 11 13 15 17 19 20 22 24 28 29 28 24 23 22 23 22 21 19 18 17 16 15 15 14 12 12
19 15 13 14 11 8 7 7 6 6 7 8 10 4 5 8 9 14 13 11 10 7 7 7 8 9 9 10 12 13 15 17 20 22 23 24 25 28 29 29 28 25 24 22 22 22 21 19 18 15 13 11 12 13
18 14 15 6 5 9 7 7 7 9 10 11 10 8 8 10 11 9 8 6 2 4 6 8 10 8 9 12 14 16 17 18 17 16 17 19 19 22 26 27 27 27 26 26 27 25 22 20 17 13 12 11 12 12
17 16 10 7 7 8 9 7 6 4 9 9 9 10 9 9 8 3 4 4 6 7 7 5 6 6 7 11 12 14 16 18 19 19 19 19 20 23 26 25 25 25 26 25 24 24 26 19 17 11 9 9 8 6
14 10 7 7 6 1 0 0 2 9 2 2 -0 6 7 5 7 4 3 3 4 2 3 6 8 8 9 10 11 12 14 18 19 20 23 22 22 23 23 24 24 24 24 22 20 17 16 11 10 9 9 7 7 4
13 10 8 6 4 0 -1 -3 -4 -2 -3 -2 -0 -4 0 3 5 7 4 3 4 5 9 11 9 10 11 13 15 16 19 19 19 21 22 21 22 22 23 24 24 23 20 19 17 15 14 13 11 10 9 7 5 6
5 3 -1 -0 -4 -4 -2 -3 -4 -5 -5 -7 -2 -2 -2 2 5 6 3 4 6 7 8 11 13 15 17 17 17 18 18 19 21 23 24 23 23 22 20 20 19 18 17 16 15 14 13 11 9 8 6 5 6 6

GFSWCAN_sfc_dewp_009.txt.gz
Dewpoint
41 40 40 42 44 42 42 41 41 40 40 39 39 38 38 39 39 40 40 43 40 37 38 41 39 37 41 39 37 41 40 40 40 36 36 36 36 32 31 29 31 30 30 30 31 30 27 33 34 32 35 35 35 37
41 40 41 42 44 42 41 42 41 41 40 40 39 38 38 38 39 39 36 41 43 38 38 42 43 46 44 42 39 42 41 39 40 38 38 38 36 34 31 27 32 30 30 30 30 30 34 36 35 36 36 35 35 36
41 40 40 42 43 42 40 42 41 40 40 40 40 39 39 38 38 39 38 40 41 38 40 44 41 45 47 46 47 41 43 44 42 45 42 40 37 39 35 31 32 33 34 34 34 33 35 36 36 36 35 35 35 37
40 40 39 42 43 40 39 40 41 40 41 40 40 39 38 39 38 39 38 39 40 36 35 40 45 44 47 47 46 47 45 46 46 46 42 39 36 40 35 35 35 36 37 35 35 35 36 36 35 35 34 34 37 36
40 40 40 41 43 41 39 39 41 39 41 39 40 39 40 39 39 40 38 38 40 37 36 39 43 46 47 46 46 46 45 44 45 43 41 39 40 39 37 38 35 36 35 35 31 36 36 35 35 35 34 33 34 32
40 40 40 41 42 43 40 39 40 40 41 39 39 40 40 39 38 38 35 44 43 41 37 37 44 44 45 45 45 45 45 45 46 43 42 43 42 40 38 35 34 34 34 35 34 36 35 35 35 34 33 33 32 31
40 40 40 41 42 43 41 39 39 39 40 40 39 39 39 39 40 36 33 42 43 43 37 37 40 45 46 45 46 46 46 46 45 43 42 41 41 43 39 34 35 36 38 37 38 36 36 35 34 34 33 32 32 30
41 40 40 41 42 43 41 40 39 39 40 39 39 39 40 41 40 37 39 41 43 40 39 36 38 40 45 42 41 46 44 45 45 43 43 41 42 42 38 38 38 38 38 38 38 36 36 35 34 33 32 30 29 28
41 41 40 41 42 43 40 40 40 40 39 39 38 40 42 40 35 39 41 42 45 40 35 39 36 35 45 43 44 44 45 40 45 42 41 42 40 37 38 39 39 39 39 39 37 35 35 34 33 33 32 30 28 28
41 41 40 40 41 43 41 40 40 39 40 38 38 36 35 37 41 41 40 38 38 40 39 38 38 37 41 41 41 41 43 40 37 39 40 39 38 40 38 38 39 41 39 37 36 36 37 38 36 33 32 31 29 28
41 41 40 40 42 42 41 39 39 39 36 36 34 33 37 40 41 38 34 34 36 35 40 40 36 36 42 38 38 41 38 38 35 36 35 36 35 36 37 35 36 38 40 37 37 36 35 35 33 33 32 31 29 26
42 42 40 40 42 41 40 39 39 37 36 36 36 39 38 36 34 32 33 33 35 35 39 38 38 38 41 42 40 40 37 37 33 35 34 32 36 38 34 33 34 36 38 36 35 34 35 35 33 33 31 29 27 26
43 42 40 40 42 41 39 39 38 38 40 37 34 32 32 34 30 31 28 30 33 35 35 37 38 39 40 41 39 38 34 34 34 33 31 34 39 35 30 31 35 34 35 35 33 34 35 35 34 31 29 28 26 24
43 43 40 41 43 39 39 39 36 39 36 31 29 27 31 30 29 30 31 32 35 35 35 37 37 38 37 38 37 34 34 33 31 29 31 40 37 31 30 33 34 33 33 33 33 33 34 33 32 31 30 27 24 23
43 41 40 41 41 38 39 37 37 40 34 30 30 27 28 30 32 34 34 34 35 37 36 36 36 36 36 35 35 35 32 29 29 31 37 37 33 31 31 33 34 32 31 31 32 32 32 31 29 29 29 27 24 23
43 40 39 41 38 39 37 37 38 38 36 32 29 27 28 29 31 32 33 32 36 34 36 36 34 34 34 36 32 31 30 29 35 35 36 33 31 31 31 32 32 31 29 30 30 30 29 28 28 27 25 23 22 21
40 39 37 38 38 35 35 36 36 33 30 27 28 30 30 29 29 29 26 27 30 33 33 33 32 33 33 32 31 34 32 34 33 33 33 32 31 30 30 31 31 30 29 29 28 28 28 26 25 23 22 21 20 19
38 40 39 38 37 32 32 35 34 28 25 28 27 29 28 28 27 26 28 29 30 31 33 32 32 31 31 30 31 32 32 33 32 31 31 30 29 29 30 30 30 29 29 29 29 29 28 27 26 24 23 22 21 19
39 40 39 39 35 31 29 30 32 24 25 27 27 27 26 27 27 27 27 28 30 30 30 32 31 30 32 31 29 29 29 29 28 28 29 30 28 28 29 30 30 30 30 30 28 26 26 26 23 22 20 19 17 16
40 41 40 37 32 30 25 27 30 25 23 25 25 25 25 25 24 24 25 27 30 31 30 27 29 28 26 27 28 28 29 29 28 27 29 30 30 30 31 29 29 29 29 29 29 26 22 21 21 20 19 18 16 16
38 37 36 33 31 30 26 25 24 24 25 23 24 23 23 24 23 24 25 29 29 28 27 27 28 26 25 24 23 25 26 26 26 28 28 29 30 31 29 29 29 27 27 27 25 23 23 20 20 20 20 18 17 16
35 34 28 28 26 25 26 26 25 24 22 22 22 21 20 22 23 22 24 23 25 29 28 25 24 21 18 17 18 19 21 24 27 27 29 29 29 31 30 29 28 29 29 29 26 24 21 20 20 20 17 16 15 15
33 28 26 25 22 20 19 22 22 21 19 19 19 18 19 21 22 22 21 24 25 26 24 22 21 19 18 19 21 21 23 23 23 23 24 26 27 30 31 30 29 29 29 27 27 24 22 22 20 16 16 15 15 15
26 26 23 21 20 16 15 18 17 18 18 17 17 14 17 19 20 21 20 23 23 23 22 20 16 15 15 18 16 15 17 19 19 20 23 23 25 26 29 30 27 28 28 26 24 23 21 18 19 16 14 16 16 12
25 23 20 15 15 14 14 14 14 15 15 15 15 15 16 18 18 18 17 21 21 21 22 19 16 15 13 13 14 14 17 16 16 18 19 21 22 25 27 28 29 28 26 25 23 22 21 20 18 17 17 17 14 13
22 20 16 17 14 14 13 12 12 14 14 13 14 13 15 17 14 13 16 22 21 21 21 19 17 14 13 13 13 13 14 15 15 15 17 20 21 24 26 26 25 25 26 25 24 22 20 19 18 19 16 17 18 13
21 19 13 11 11 9 9 10 10 12 12 11 12 13 15 11 12 16 18 18 19 21 20 19 16 14 14 14 13 14 14 16 16 16 17 19 20 22 23 24 26 28 28 28 25 22 20 18 18 19 19 18 15 13
21 17 14 14 13 13 12 12 12 12 12 11 14 10 10 12 13 21 21 19 19 16 15 14 13 13 13 14 14 14 15 16 17 18 19 20 22 23 25 28 31 30 28 29 26 22 20 19 20 21 20 17 17 16
20 17 17 13 13 12 13 13 13 13 11 15 15 14 14 16 19 18 15 13 12 11 11 13 14 15 14 14 14 14 15 15 15 13 13 14 17 23 26 28 29 29 29 28 29 23 23 23 23 21 18 17 16 16
19 20 15 12 10 12 15 13 14 11 12 14 12 14 13 15 16 12 12 11 10 12 14 13 12 10 11 11 12 13 15 17 18 17 15 15 19 24 25 27 28 27 27 27 26 26 29 26 24 18 15 14 13 12
18 17 15 14 14 11 7 5 8 10 10 11 8 12 14 12 13 12 9 10 11 10 10 12 13 14 12 11 12 11 11 15 18 19 20 21 21 23 25 27 27 27 26 25 25 23 19 16 15 14 12 11 12 10
18 18 14 12 12 6 6 8 9 10 9 9 11 5 8 10 11 16 10 9 11 12 13 13 11 12 14 16 16 16 18 17 17 18 19 20 23 24 25 25 26 25 24 20 19 17 16 15 14 12 11 10 9 10
10 9 8 8 7 7 6 7 7 7 6 7 8 6 7 8 9 13 8 9 12 12 11 13 14 16 18 19 20 20 21 20 19 22 23 24 24 25 24 24 22 21 20 18 18 17 16 14 13 12 11 10 11 10

GFSWCAN_sfc_dewp_012.txt.gz
Dewpoint
42 42 42 41 43 43 44 42 42 42 41 41 41 40 39 39 39 39 38 44 40 37 37 39 41 40 40 40 38 41 40 40 40 35 35 35 35 34 31 31 31 30 30 31 32 30 25 34 35 33 35 36 35 35
42 42 42 41 41 43 44 41 41 43 41 41 41 40 39 39 38 38 35 38 42 38 37 40 40 41 43 45 42 42 41 40 41 38 38 38 35 36 33 29 32 30 31 31 30 30 32 36 35 36 36 35 35 36
43 42 42 41 41 42 44 39 39 42 42 40 41 40 40 38 38 38 39 39 41 38 36 41 42 44 46 46 47 42 43 43 43 45 41 39 36 39 34 32 34 32 33 34 34 34 35 36 36 36 35 34 36 38
43 42 42 41 41 42 43 42 40 41 41 39 39 39 39 39 40 37 38 39 39 37 33 39 45 44 47 47 46 46 45 46 47 45 41 38 37 39 37 36 35 36 36 34 34 35 37 35 35 34 34 36 37 36
43 43 41 41 41 41 43 44 40 39 41 40 41 40 40 40 40 38 39 38 38 37 34 37 40 46 46 47 46 46 45 46 44 43 41 38 40 39 37 37 35 36 36 35 35 36 36 35 35 35 34 34 34 33
43 43 41 41 41 41 43 44 42 40 39 40 40 41 40 40 39 38 33 43 42 40 36 35 44 44 45 46 45 45 45 45 45 43 41 42 42 40 37 34 34 34 36 36 34 36 36 35 35 34 33 33 32 32
43 43 42 42 40 41 42 44 41 39 40 40 40 40 39 40 40 35 32 40 43 42 36 34 39 45 45 45 45 46 46 46 45 43 42 40 41 42 40 35 35 34 35 37 39 36 36 35 34 33 33 32 32 30
43 43 42 42 41 41 42 44 40 40 41 40 40 39 41 42 40 37 38 40 42 38 38 33 38 41 46 42 42 45 44 45 44 42 43 41 41 41 37 38 38 37 37 38 39 37 36 35 34 33 31 30 29 27
43 43 42 41 42 41 42 43 41 40 40 40 38 40 42 40 35 39 42 42 42 39 33 36 35 34 45 43 43 43 44 40 44 41 41 41 39 37 38 39 39 40 40 39 37 36 35 34 33 32 31 30 27 27
43 42 42 42 43 41 42 42 40 40 40 38 39 36 34 37 41 41 40 37 36 37 38 36 39 38 41 41 40 41 43 38 35 39 41 38 38 40 40 39 39 39 39 37 35 33 33 32 34 32 31 30 29 27
43 42 42 42 43 41 42 41 40 40 36 37 33 32 38 41 41 37 33 33 34 34 38 40 38 37 42 37 38 40 36 36 34 34 35 33 35 37 36 34 34 35 37 38 37 37 36 35 33 33 32 30 28 26
42 42 42 43 42 41 43 41 40 38 37 37 36 38 39 36 33 32 32 33 33 33 39 39 38 39 40 41 38 38 35 35 31 35 33 32 35 36 31 30 31 35 36 38 37 35 36 35 34 33 32 29 27 25
42 43 43 44 42 41 42 40 39 37 39 39 34 31 32 33 29 29 27 31 32 34 35 36 37 39 38 39 37 35 33 32 32 32 30 30 34 32 30 32 33 35 35 34 34 35 35 36 36 33 29 27 24 22
42 43 43 44 41 41 40 39 39 38 36 30 27 23 27 27 28 30 31 31 34 34 35 36 36 37 37 35 36 33 35 32 29 28 26 33 32 31 31 33 33 34 34 33 33 34 34 34 33 32 29 27 26 21
43 43 43 43 41 41 39 39 36 39 32 29 27 24 26 31 32 33 33 33 34 36 35 36 35 36 34 34 34 33 31 27 28 26 32 32 31 31 30 30 31 32 32 33 32 32 32 32 31 30 30 27 23 22
43 43 42 41 41 40 37 36 38 38 32 30 28 26 29 29 29 26 27 32 35 34 35 34 34 33 33 34 31 29 28 27 28 29 28 31 30 30 29 30 31 31 29 30 31 31 30 29 28 27 25 24 23 22
43 39 40 40 39 37 35 37 36 32 27 26 27 31 32 30 29 26 27 27 30 33 32 32 32 32 33 32 29 32 30 31 29 27 27 28 28 29 29 29 31 30 29 29 29 29 28 28 26 24 22 22 21 20
40 40 41 39 39 33 34 35 32 27 25 27 27 27 28 28 28 26 28 29 29 31 32 31 31 30 31 30 29 30 30 27 29 26 26 29 29 28 28 28 29 28 28 28 28 27 27 26 26 24 23 22 21 19
40 40 40 40 37 34 30 31 31 24 25 28 28 26 27 27 27 27 27 27 29 30 29 31 29 29 30 29 28 28 28 28 28 27 28 29 28 28 28 27 28 26 26 25 27 26 26 26 24 22 20 19 17 17
42 41 41 40 34 31 26 27 30 26 23 25 26 25 23 24 24 24 24 25 27 24 26 25 28 29 28 28 29 28 26 26 26 25 26 27 28 27 27 25 26 26 26 25 25 26 22 22 22 21 20 18 17 17
39 40 38 35 32 31 28 26 25 26 26 23 26 23 19 20 17 21 24 27 26 18 18 24 25 26 26 23 23 23 24 23 22 23 23 24 27 27 29 27 23 27 26 27 25 23 23 21 20 20 21 18 17 17
35 36 33 33 29 27 26 28 26 25 23 23 21 20 12 12 13 19 20 22 23 21 24 23 22 22 21 18 18 19 19 21 22 24 26 25 24 26 26 29 28 22 23 24 25 24 23 21 20 20 18 18 18 17
36 34 30 29 25 22 20 24 22 23 20 18 17 12 11 11 20 22 18 16 19 24 23 21 18 17 17 18 19 19 20 20 20 20 22 22 22 24 25 27 28 26 23 24 24 24 21 22 23 17 17 16 17 19
33 30 26 24 24 18 18 18 19 20 19 17 16 10 11 12 17 18 13 17 21 23 20 15 16 16 17 18 16 17 17 17 16 18 19 19 20 21 22 24 25 27 27 27 22 22 21 21 21 17 16 18 18 17
26 23 23 18 17 14 15 15 15 16 13 16 13 10 11 12 10 9 11 14 16 18 18 17 16 16 15 14 15 15 18 16 14 15 14 17 17 18 19 21 25 27 26 26 24 22 20 20 19 18 18 18 18 15
22 20 18 17 14 14 14 14 13 13 14 10 11 9 8 10 5 4 12 15 17 18 20 20 18 16 16 16 14 13 14 15 14 13 14 15 16 16 18 20 20 22 24 28 27 25 23 20 19 19 19 19 20 14
21 17 18 15 14 12 11 12 12 14 10 8 10 6 6 2 2 10 16 16 17 15 15 15 16 15 13 12 14 15 14 11 12 13 14 15 16 16 16 16 16 18 25 28 29 27 24 23 19 19 19 18 17 15
21 15 12 13 14 15 12 12 11 9 10 13 12 6 5 5 6 12 14 13 11 8 7 8 9 8 7 8 8 12 11 11 10 11 14 15 16 17 17 18 20 23 24 28 29 28 27 25 24 21 20 19 19 19
17 18 17 15 14 13 13 11 11 13 13 13 9 9 11 15 13 11 11 8 4 4 3 3 5 4 4 6 8 11 11 10 10 9 8 9 10 11 17 21 23 25 27 28 31 29 27 26 25 24 22 20 20 19
18 21 16 13 12 12 12 11 9 7 10 11 12 13 13 13 12 8 6 2 1 1 1 2 0 -0 1 2 7 8 9 13 14 13 11 10 10 10 16 19 23 25 27 28 28 28 30 28 27 23 19 18 18 17
20 20 16 13 11 8 3 3 5 10 8 6 5 6 8 7 9 6 3 2 1 -1 -2 -2 -0 1 5 6 6 9 9 7 9 11 15 18 18 18 18 19 22 26 27 26 25 25 26 21 18 17 16 16 16 12
19 18 14 11 5 2 1 2 5 6 6 3 1 -2 0 2 3 7 2 -1 -2 -1 8 4 1 4 5 9 13 15 19 17 16 15 12 14 15 17 19 22 25 26 26 25 23 19 17 17 16 15 14 13 11 11
11 10 11 9 2 1 3 3 4 2 0 -2 -1 -1 -2 2 4 6 2 0 1 2 2 2 4 7 11 14 16 17 20 20 20 23 24 24 25 24 23 24 24 22 20 19 18 18 17 16 15 14 13 12 13 12

GFSWCAN_sfc_dewp_015.txt.gz
Dewpoint
43 43 42 42 43 41 42 44 42 41 42 42 41 41 40 39 39 36 36 41 39 36 36 36 38 41 40 39 35 38 38 39 38 34 33 33 32 33 30 32 32 31 30 32 33 29 23 32 37 34 33 36 36 35
44 43 43 42 42 42 42 43 41 40 40 42 40 39 41 41 38 38 33 36 39 37 36 38 37 38 39 41 44 40 40 39 40 37 36 37 34 34 32 29 32 32 31 30 30 29 30 34 35 36 36 35 35 37
44 43 43 42 42 42 42 43 44 41 40 42 40 39 40 38 39 38 36 37 36 34 34 36 38 41 42 42 47 40 41 42 41 43 39 39 35 37 31 32 34 34 33 33 33 34 33 36 36 35 34 34 35 39
44 44 44 43 41 42 42 42 43 43 40 39 40 40 40 39 40 40 35 37 36 34 31 33 42 43 47 47 47 46 45 46 45 43 40 38 36 38 35 37 36 36 37 34 34 36 36 35 36 35 34 38 36 38
43 44 44 44 41 42 42 42 43 45 42 40 40 39 40 40 40 39 37 37 37 33 32 34 38 41 46 46 46 46 45 45 44 42 40 38 40 39 37 37 35 36 35 35 34 36 35 35 36 35 34 35 33 33
44 44 43 42 43 42 41 41 43 44 39 39 40 41 40 40 40 40 31 41 39 39 34 31 43 44 45 45 45 45 45 45 45 42 41 42 41 39 37 34 34 35 36 36 36 36 36 35 34 34 33 33 32 31
44 43 44 43 43 43 42 41 42 43 41 41 40 40 40 40 42 36 31 39 42 40 33 32 37 45 45 44 45 45 46 45 44 43 42 41 41 41 39 33 35 37 38 38 38 36 35 35 34 33 32 32 32 30
45 43 42 42 43 42 42 41 42 42 40 40 40 39 39 41 39 36 37 41 41 36 35 31 36 41 46 43 42 45 44 45 44 42 43 40 41 40 36 38 38 39 39 38 38 37 37 35 33 32 31 29 28 26
45 43 42 42 43 43 42 42 43 41 41 40 40 40 42 39 35 38 42 41 41 37 32 34 34 34 45 43 43 42 43 40 43 41 40 41 38 36 38 40 39 38 39 39 36 35 34 33 32 31 30 28 27 26
45 43 42 41 42 44 41 42 43 41 39 39 38 34 34 37 40 40 39 37 35 36 36 34 40 38 42 41 40 41 42 38 34 39 41 38 37 39 35 33 33 33 35 37 35 32 30 29 32 31 30 28 27 26
45 43 42 42 42 43 41 42 41 40 38 36 33 31 37 40 39 37 33 32 34 33 37 38 40 37 42 37 38 40 35 35 33 34 34 32 35 32 32 30 31 33 35 35 37 38 36 35 34 32 31 30 29 26
45 43 43 42 43 43 40 42 40 37 34 34 36 39 39 36 33 31 30 33 33 33 38 38 38 40 40 41 38 38 34 34 30 34 32 29 34 32 31 31 33 34 35 34 36 38 36 36 34 33 32 31 29 26
45 44 43 42 43 41 40 42 40 38 38 39 34 30 31 32 26 28 27 31 32 33 34 35 35 38 38 39 36 35 32 31 31 32 29 29 32 31 30 31 31 33 34 34 34 35 35 36 35 34 30 27 23 22
44 42 43 43 43 41 40 41 39 36 35 30 27 23 26 27 28 29 30 31 34 33 34 36 35 34 35 35 36 32 33 32 28 27 25 31 29 31 30 30 30 31 31 34 33 33 35 36 35 34 30 26 25 25
44 43 43 43 43 42 41 39 36 38 31 28 27 21 26 30 31 32 32 33 34 36 35 35 35 36 32 33 33 32 30 27 27 24 29 25 28 29 29 29 29 30 30 30 33 33 32 34 33 32 31 30 28 28
44 43 42 43 41 40 39 36 37 37 32 28 27 25 29 28 28 23 28 31 34 34 34 34 33 33 33 32 31 29 27 25 24 27 24 27 28 29 29 28 29 30 29 29 30 31 30 30 30 29 28 27 24 21
44 40 42 41 41 39 36 35 34 29 28 26 26 30 30 29 29 20 26 28 31 33 32 32 31 31 32 31 28 31 29 29 30 29 24 26 27 28 28 28 29 29 28 29 29 29 29 28 25 24 23 23 22 21
40 41 41 40 38 35 34 34 31 26 24 26 25 27 29 29 28 25 27 28 28 31 32 31 30 29 29 30 29 29 29 29 28 23 24 26 27 28 28 28 29 28 28 28 27 26 25 26 25 24 23 22 21 20
40 41 41 41 38 33 29 30 29 21 23 26 28 28 28 28 28 26 26 27 29 29 27 30 28 28 27 28 28 29 29 25 24 25 25 26 26 27 27 29 28 26 26 27 28 27 26 26 24 22 21 20 18 18
42 42 42 42 35 29 25 26 28 24 18 23 26 25 25 26 24 22 22 24 23 19 17 20 26 27 26 25 29 25 25 25 23 22 22 24 25 22 25 28 29 27 25 24 25 28 24 23 22 21 20 19 18 17
41 40 39 36 32 30 27 22 20 24 23 20 23 24 20 22 15 17 15 23 20 12 13 21 22 23 25 23 23 23 22 23 20 20 19 17 22 22 23 24 28 28 26 26 25 25 26 22 22 21 21 19 18 18
36 38 33 34 28 25 23 26 21 23 19 19 21 21 15 14 14 18 15 21 20 17 20 21 20 22 22 19 19 19 18 18 19 21 23 23 20 18 20 20 25 26 27 27 24 25 25 23 21 21 19 18 19 19
36 34 31 30 25 24 18 20 17 17 18 15 17 16 12 13 17 22 16 15 17 19 22 20 16 16 18 17 18 18 19 18 17 17 18 19 20 20 19 20 21 21 25 25 23 25 23 24 23 19 19 18 18 20
34 30 27 24 24 18 18 13 19 20 19 18 16 14 11 12 20 18 14 16 19 21 19 13 15 15 16 16 15 16 16 17 16 16 18 17 15 16 19 20 20 20 22 24 26 25 23 22 24 20 17 18 20 20
27 24 24 16 13 8 7 11 14 16 14 16 16 12 10 14 8 8 12 15 10 16 15 15 14 15 15 14 14 15 16 15 13 13 12 16 16 16 15 16 17 18 22 24 26 25 22 23 22 19 18 19 21 19
23 21 18 12 5 9 11 12 13 14 16 15 14 11 12 12 7 7 13 14 16 14 16 18 19 16 16 16 15 12 14 14 12 11 13 13 15 13 7 12 15 16 18 19 25 25 22 23 22 20 19 21 23 18
20 15 19 19 14 14 13 13 14 16 14 12 10 11 9 4 5 10 14 14 16 12 13 17 18 17 17 11 14 13 12 6 9 11 12 13 14 15 12 12 12 14 17 17 20 24 24 24 24 22 23 23 22 17
18 14 13 12 13 14 11 11 11 11 12 14 12 10 7 5 7 10 13 11 7 3 3 5 6 8 7 5 5 9 5 4 4 4 9 12 14 14 14 15 16 20 19 19 20 21 26 25 24 24 24 23 23 18
13 15 15 12 12 14 13 11 11 12 14 15 11 8 9 13 10 7 9 5 -1 2 4 4 5 -4 -2 -1 -1 1 4 3 3 5 5 7 8 8 8 14 15 16 19 21 25 26 27 27 25 25 25 23 21 21
14 18 14 11 11 11 14 14 14 12 12 13 12 12 13 12 9 4 3 -1 2 3 -0 -3 -5 -3 -2 -4 -1 1 3 7 9 9 7 7 8 5 3 8 14 17 19 22 24 25 29 31 29 26 22 20 19 19
18 16 12 13 12 9 7 7 9 11 7 3 2 5 7 6 9 4 2 -1 -3 -8 -4 -4 -6 -10 -4 -1 -3 1 7 6 5 8 10 13 13 14 15 15 15 16 18 21 24 26 28 25 22 19 18 18 19 18
17 15 15 11 7 7 7 7 7 6 2 1 1 -5 -0 2 3 8 -1 -3 -6 -4 7 0 -4 1 1 2 4 9 18 16 16 17 16 15 14 14 14 14 15 18 20 23 25 25 21 18 18 18 17 17 15 14
12 12 11 8 6 4 4 7 2 -1 -1 -3 -1 -2 -5 1 4 6 -1 -4 -1 0 1 1 1 -1 2 6 11 12 15 13 15 22 24 25 25 21 16 17 20 21 22 20 20 19 18 18 16 16 15 14 15 15

GFSWCAN_sfc_dewp_018.txt.gz
Dewpoint
43 44 44 43 42 43 42 42 44 42 38 39 41 39 39 40 39 36 34 38 35 35 34 36 36 38 40 38 33 35 36 37 36 34 32 33 32 33 32 32 33 31 31 32 32 29 24 32 37 33 33 36 36 36
44 44 45 43 43 43 42 42 43 44 41 40 41 40 39 41 38 38 33 36 38 34 32 38 37 37 37 39 41 40 37 37 38 34 33 36 34 34 31 27 33 32 30 30 31 29 31 32 34 36 36 35 36 35
45 45 45 43 42 43 43 42 42 43 44 41 38 37 39 40 40 37 37 36 35 32 31 32 29 28 35 37 39 42 40 41 40 40 38 38 34 36 31 31 31 35 34 33 32 33 33 33 34 36 36 34 34 37
45 46 44 44 44 43 42 42 42 43 44 43 40 40 39 39 40 40 37 38 36 32 26 27 38 37 41 42 41 45 45 45 43 41 39 37 35 38 33 34 35 36 36 35 34 36 36 36 35 35 34 37 37 38
45 45 44 44 45 42 44 43 42 42 44 41 39 40 40 41 40 41 39 37 38 30 26 28 30 34 37 46 46 47 45 44 42 39 39 37 38 38 38 37 35 35 35 34 32 36 36 36 36 35 34 35 34 35
45 45 44 44 43 44 44 44 42 42 43 41 41 41 40 40 40 40 31 41 40 37 28 25 37 40 46 46 45 45 45 45 44 42 40 41 41 39 36 35 36 36 36 36 35 36 36 36 35 34 33 33 33 33
46 45 44 44 44 44 45 44 42 42 44 41 41 40 40 39 41 36 29 38 41 38 32 29 32 42 45 45 45 45 45 44 43 42 41 41 41 41 38 34 34 37 41 40 39 38 36 35 35 33 33 33 33 30
46 45 45 44 44 44 44 44 42 42 42 41 40 40 39 41 40 35 37 41 41 37 35 28 31 41 45 42 41 45 43 44 43 42 42 40 40 40 36 36 38 39 34 39 37 38 37 35 33 32 32 29 28 27
45 44 45 45 44 43 44 43 42 43 42 39 40 40 41 40 34 35 42 42 41 37 31 32 31 34 45 43 43 43 44 39 42 40 40 40 38 36 35 31 31 31 31 33 36 35 34 33 32 31 29 28 27 26
45 44 45 44 43 43 44 42 42 41 39 39 36 35 32 34 41 40 39 36 34 34 34 31 36 36 42 40 40 40 41 38 35 40 41 38 36 38 32 31 31 32 33 34 33 32 34 29 31 31 29 28 27 26
45 45 45 44 43 43 44 41 42 40 36 35 33 31 34 39 38 36 32 31 34 32 35 35 39 39 42 36 39 40 35 35 32 33 35 33 35 30 31 31 31 32 33 35 35 35 36 36 34 32 30 29 28 26
46 45 45 44 43 43 43 40 41 36 34 33 34 38 38 35 33 30 29 32 32 32 37 37 38 40 40 41 37 37 32 34 30 35 33 29 33 31 31 30 30 30 31 33 34 34 37 37 35 33 31 29 28 29
46 46 45 44 43 43 41 40 42 39 38 38 35 31 31 32 26 26 25 29 32 33 34 35 35 38 38 39 36 35 32 31 31 32 29 31 31 30 30 30 30 30 31 31 34 34 35 36 35 33 33 33 31 28
46 46 45 44 43 43 41 41 40 36 34 30 27 23 26 26 28 29 29 30 34 33 34 36 35 35 35 35 35 31 33 31 28 26 27 30 28 29 29 29 29 29 30 30 33 35 35 36 35 34 32 28 25 24
47 46 44 43 44 44 41 40 36 37 29 25 27 21 25 28 30 31 32 32 34 36 35 35 35 36 33 33 34 32 30 27 27 24 29 24 26 28 29 28 28 29 29 29 30 33 34 34 33 32 32 30 27 27
46 45 43 43 44 43 41 36 36 36 29 26 27 24 28 27 28 29 29 29 35 34 34 34 33 33 33 32 31 29 27 25 24 29 25 25 27 27 28 28 29 29 29 28 29 29 30 30 32 32 33 33 32 31
46 40 44 44 42 41 37 33 31 26 26 23 25 29 27 29 29 26 26 28 31 33 32 32 31 30 32 31 29 31 29 30 30 30 23 24 25 26 27 28 29 29 28 28 28 28 27 28 27 27 28 28 28 26
40 42 44 42 38 35 33 33 27 21 19 23 25 25 29 29 28 27 27 27 28 29 31 31 31 29 30 30 27 29 29 30 30 29 24 24 25 26 27 26 28 28 28 27 27 26 26 26 25 25 24 24 24 24
41 42 43 40 37 31 26 25 27 20 21 25 27 28 28 28 28 27 26 26 27 28 28 28 28 27 28 27 26 20 29 29 27 25 24 24 25 25 25 25 27 25 26 26 26 27 27 26 26 24 22 21 20 19
43 43 43 41 33 27 21 23 25 22 20 23 26 25 26 26 25 24 23 24 23 15 15 22 26 28 26 23 22 23 26 26 23 19 18 21 22 19 22 22 23 24 25 26 25 29 25 24 23 22 21 20 19 18
41 41 41 37 33 28 24 17 16 19 21 22 23 24 21 23 20 13 15 23 17 18 15 19 20 23 25 24 24 23 23 23 20 17 13 15 19 19 19 18 17 23 24 25 25 27 27 25 24 22 21 21 19 19
36 38 33 34 28 23 19 23 18 21 18 17 19 20 17 15 13 12 15 17 19 18 19 20 19 22 23 20 20 20 18 20 18 19 22 22 18 16 17 18 17 15 17 18 24 25 24 26 25 22 21 20 21 20
36 34 31 30 25 20 17 21 16 16 16 14 14 13 11 11 15 22 13 17 19 20 21 20 16 15 20 16 17 17 18 17 15 16 16 17 18 18 17 17 17 11 18 18 19 21 22 26 27 25 20 20 18 20
35 31 28 26 24 17 17 11 19 17 16 16 11 11 9 10 17 14 11 17 20 20 21 18 17 16 15 15 14 15 16 16 14 14 16 15 12 13 15 16 18 17 18 19 19 21 24 25 27 24 19 17 18 20
28 26 26 18 14 9 4 9 9 12 9 15 16 14 11 14 9 6 12 18 14 16 19 18 17 17 17 14 13 15 16 16 15 14 11 15 14 14 14 14 15 16 17 13 17 22 23 24 24 21 18 20 20 21
24 24 20 13 6 8 8 8 10 10 14 14 17 11 10 13 7 7 13 19 16 17 19 20 20 18 16 16 15 12 13 15 13 11 9 14 14 11 5 9 12 13 17 17 13 13 18 21 22 21 20 20 24 22
22 19 20 18 15 13 13 13 13 13 11 12 13 11 13 7 5 11 15 17 18 18 16 19 20 19 17 12 13 13 10 9 11 10 9 10 12 14 13 12 12 13 15 14 14 14 15 17 20 22 21 22 24 25
25 18 14 12 10 12 10 10 10 10 13 15 13 9 9 6 8 15 14 13 11 10 7 6 7 8 7 6 6 9 4 1 -0 1 5 9 11 12 12 14 15 18 17 16 16 16 17 17 19 23 22 22 23 25
15 13 13 4 6 12 10 9 10 13 14 15 13 11 11 13 15 11 12 8 3 5 7 5 4 -5 -2 -2 -1 -1 0 1 2 1 4 7 3 5 5 8 9 8 13 15 20 22 24 22 21 23 22 23 24 22
11 14 8 6 6 8 14 13 14 15 15 15 13 13 13 13 12 7 7 3 6 9 4 -1 -5 -1 -0 -1 -3 -1 -2 2 5 6 5 7 6 3 -1 3 6 9 11 15 16 17 22 23 27 28 27 22 20 20
17 11 7 10 9 5 9 9 11 11 8 5 5 9 10 8 9 9 8 3 -0 -8 -4 -3 -6 -13 -5 -7 -6 -5 2 2 -0 4 7 9 11 12 12 12 13 13 11 12 14 16 18 21 25 21 17 18 19 19
11 9 11 8 2 7 9 7 5 6 5 4 5 0 3 5 7 11 -1 -5 -7 -3 7 -1 -4 1 -1 -0 -3 0 15 14 13 13 12 14 15 15 16 16 16 13 12 13 15 17 20 21 19 19 18 18 19 17
8 9 9 9 8 7 6 9 6 4 3 -0 2 0 -0 3 5 7 -1 -6 -1 -1 0 1 0 -3 -2 -1 2 6 13 7 10 20 22 22 23 25 22 15 15 14 15 16 18 19 19 19 19 18 18 16 16 16

GFSWCAN_sfc_dewp_021.txt.gz
Dewpoint
45 44 44 45 44 43 43 44 42 44 45 43 40 42 40 39 40 36 34 37 33 31 31 35 36 35 38 37 34 35 35 36 36 31 31 31 30 34 33 32 34 32 31 32 32 29 23 34 36 32 33 35 36 36
45 45 45 45 45 43 43 45 42 43 43 45 41 38 39 41 41 39 32 35 38 32 29 36 35 34 37 38 37 41 35 35 37 33 32 33 32 34 32 30 32 32 31 30 30 28 30 34 35 36 36 36 35 35
46 46 45 46 45 43 44 44 43 43 43 44 45 41 39 40 40 39 36 37 35 34 30 30 28 29 31 30 32 36 41 41 38 38 36 36 32 36 32 30 30 34 34 33 32 33 33 33 34 34 36 35 34 35
47 46 46 46 45 44 45 44 44 42 42 43 45 40 39 39 39 40 37 39 38 32 26 24 31 30 35 33 34 36 40 45 42 40 37 35 33 35 32 32 34 35 36 34 34 35 37 36 36 35 36 35 36 37
46 46 47 45 44 45 44 44 44 43 42 43 44 42 41 41 41 40 41 39 39 34 24 25 27 24 23 24 40 38 39 44 42 38 37 35 36 36 35 36 33 34 33 33 31 35 36 36 37 36 34 34 36 37
46 47 46 45 45 44 44 45 45 44 42 43 44 41 41 40 40 40 34 40 40 39 32 21 31 33 38 39 43 42 43 45 44 39 38 39 41 37 34 34 34 36 36 38 36 37 36 37 37 35 34 34 33 35
47 47 46 45 45 44 44 45 45 43 42 43 43 41 40 40 40 36 29 34 40 40 29 24 26 35 35 45 46 45 46 45 44 42 39 40 40 40 38 33 35 39 38 36 39 37 37 36 36 35 33 33 33 31
48 47 46 45 45 45 44 44 45 42 43 43 41 41 41 42 39 35 36 39 40 35 35 27 28 35 43 42 41 45 43 43 43 40 41 40 40 41 34 34 31 31 31 31 33 34 36 37 34 33 32 30 29 28
46 46 45 45 45 45 44 44 45 42 43 40 40 41 40 37 33 33 42 42 40 36 30 31 28 32 45 42 43 43 43 38 42 38 39 40 37 36 33 30 30 30 31 31 33 34 35 34 34 32 31 29 28 27
46 46 45 45 45 45 43 44 43 42 41 38 37 36 30 35 39 41 39 36 34 35 33 29 34 32 42 40 40 40 41 37 33 38 41 38 36 33 31 31 31 31 32 33 32 32 30 28 30 32 31 29 28 27
47 46 45 44 45 45 44 44 42 41 35 34 32 31 33 38 36 36 32 31 33 28 34 34 35 39 42 37 38 40 35 35 32 34 36 33 32 30 31 30 30 30 31 31 32 34 34 35 35 35 32 30 28 26
47 46 45 45 45 44 44 43 41 38 34 32 33 37 38 35 33 30 28 31 31 31 36 35 38 40 41 42 38 38 32 34 30 35 33 28 31 31 29 29 30 30 30 31 31 34 34 35 36 36 33 30 28 27
47 46 45 45 45 44 43 41 42 40 38 37 36 31 31 32 26 24 22 27 31 33 34 34 35 38 39 40 35 34 31 28 30 31 29 31 29 29 29 29 29 29 30 30 31 35 35 36 35 34 32 30 29 27
48 47 46 46 45 44 43 41 40 36 34 27 26 22 25 22 25 27 29 25 33 34 34 34 35 35 36 35 35 31 33 31 29 26 26 29 29 28 29 29 29 29 29 29 30 33 35 35 35 33 33 32 30 29
47 47 46 46 45 44 43 42 37 37 31 23 27 19 20 26 23 30 31 31 34 36 34 34 35 36 33 33 34 32 31 27 27 25 26 29 24 27 28 28 29 29 29 28 29 29 30 33 33 33 32 31 30 29
47 47 44 44 44 44 43 38 37 36 28 23 23 21 24 22 21 25 24 30 33 34 34 33 33 33 33 31 31 29 27 26 24 28 29 26 26 26 27 27 28 29 29 28 28 28 27 28 29 32 33 33 31 30
47 41 45 44 44 43 38 35 33 25 21 19 21 28 26 25 25 28 27 29 32 33 31 32 31 30 32 30 28 29 28 29 29 29 22 24 25 25 26 26 27 29 28 28 27 28 27 27 27 29 31 31 32 32
40 42 45 44 38 36 34 33 28 18 23 19 19 23 29 29 28 28 27 27 29 28 30 31 30 29 30 28 25 27 23 23 31 30 25 24 24 25 25 25 27 27 27 27 26 26 27 26 26 26 25 25 26 27
41 43 45 40 38 31 26 26 28 17 17 19 25 27 28 29 29 27 27 26 27 29 28 28 25 27 29 26 25 18 17 23 29 28 25 24 24 24 23 22 24 23 23 24 26 27 27 26 25 25 24 22 22 23
43 45 42 40 34 27 20 22 23 20 16 19 24 24 27 27 26 24 25 25 25 18 17 20 24 26 26 23 23 23 23 26 22 16 14 17 21 17 20 19 20 20 20 20 23 27 27 26 26 24 23 22 20 19
40 42 40 37 34 29 22 15 13 16 16 18 22 24 23 24 23 21 16 22 24 18 20 20 21 23 25 24 24 25 25 22 17 9 6 12 16 17 17 16 13 18 20 22 22 22 24 23 24 26 23 22 22 20
37 38 34 34 30 27 22 20 14 19 17 15 18 21 18 17 18 19 20 15 16 21 21 20 20 21 23 21 20 19 21 20 18 18 21 21 17 14 15 15 14 8 9 11 18 19 20 21 22 25 24 22 23 19
36 35 32 31 27 25 21 19 13 13 13 11 14 15 15 14 16 23 17 17 19 23 21 20 18 19 21 17 17 17 17 17 15 15 16 17 17 17 14 14 13 7 12 14 16 16 17 21 23 25 24 23 20 19
36 31 28 27 26 21 18 8 17 15 14 16 12 12 12 12 16 15 11 14 18 21 19 14 17 17 17 16 15 16 16 15 13 13 15 13 10 12 14 14 15 15 16 17 15 15 16 21 24 23 24 18 17 19
28 26 26 21 15 10 3 10 4 13 11 14 12 11 11 12 7 5 9 15 16 16 16 18 20 19 19 17 15 15 16 16 14 14 12 15 13 12 11 12 13 14 15 10 12 13 14 16 19 23 24 22 19 19
22 24 19 14 7 10 7 4 4 9 12 10 12 10 8 7 3 5 11 15 16 16 19 21 22 19 17 18 17 13 15 16 15 13 11 13 14 10 4 6 11 12 14 14 11 11 12 13 14 13 18 22 25 24
16 18 19 19 16 12 10 11 12 10 7 10 13 11 12 7 0 9 14 16 16 15 17 22 22 21 19 14 15 15 13 14 12 11 9 10 11 13 11 9 10 13 14 12 12 11 12 13 13 13 16 19 20 22
23 17 14 13 10 8 5 7 6 7 10 15 13 10 11 7 7 15 15 14 13 10 9 9 10 13 13 10 10 13 4 -1 -0 1 4 7 8 7 9 12 13 18 16 14 14 14 14 14 14 15 15 19 20 20
18 14 13 2 3 5 7 6 8 12 15 15 12 11 11 14 18 14 14 11 7 9 12 12 8 0 1 -1 -2 -4 -1 4 5 3 3 8 1 4 2 5 6 5 6 8 17 20 20 17 17 17 17 17 19 20
11 14 6 1 4 5 8 9 7 10 14 14 13 11 12 14 16 10 9 9 11 13 13 8 3 7 5 2 -1 -1 -4 0 5 7 5 6 5 1 -3 1 5 6 5 8 10 11 18 17 18 18 20 22 21 19
13 5 3 5 6 1 -0 4 6 11 6 1 1 6 10 8 10 11 11 10 7 2 2 -0 -4 -11 -3 -6 -4 -4 2 -1 -1 2 3 5 6 8 9 10 11 12 11 11 10 10 10 10 13 16 18 20 18 20
5 5 7 3 1 -3 0 -1 2 4 1 -0 1 -3 2 4 7 13 6 0 1 3 9 5 1 3 0 -2 -4 -3 13 3 4 6 6 11 12 12 12 13 15 16 13 12 12 11 10 11 14 16 17 17 18 17
9 1 -5 -3 -3 -2 2 7 6 3 -1 -2 -1 -1 -1 4 8 12 3 -1 2 2 1 0 -1 -5 -2 0 1 0 11 3 7 18 20 22 23 24 22 20 22 17 13 13 12 13 13 14 16 17 17 18 16 17

GFSWCAN_sfc_dewp_027.txt.gz
Dewpoint
48 47 46 45 45 45 46 46 44 45 44 43 42 43 45 43 40 37 35 36 32 27 27 28 34 32 32 37 34 33 34 34 34 32 32 31 27 30 28 29 29 29 30 27 27 25 22 33 35 30 32 34 35 35
48 47 46 46 46 46 47 45 44 44 45 44 43 43 45 42 40 40 36 36 38 32 30 29 29 30 31 30 30 35 36 33 35 31 30 30 30 30 30 28 31 29 29 29 28 26 29 34 35 37 36 34 34 35
49 48 47 46 46 47 46 45 45 45 45 45 43 41 44 45 43 38 37 38 37 35 31 32 31 31 32 31 30 31 38 42 37 36 34 33 30 32 30 29 28 32 33 31 31 32 33 33 35 36 35 35 35 35
49 48 47 47 47 47 46 45 44 44 45 45 44 44 43 44 43 41 39 39 38 35 29 26 28 27 28 32 31 31 31 34 34 39 38 35 31 33 29 30 30 32 34 32 32 34 34 35 37 36 36 36 35 35
49 48 47 47 47 47 46 45 45 44 44 45 43 42 44 45 42 41 40 38 39 35 27 28 29 29 29 32 31 30 28 27 30 35 39 35 34 33 32 32 30 34 33 34 33 34 35 35 37 37 36 37 37 35
49 48 48 48 47 47 47 46 45 45 45 45 44 43 45 41 41 39 34 38 39 38 30 25 29 26 28 30 29 28 28 32 34 36 39 37 36 34 29 31 33 33 35 37 37 37 38 39 38 37 35 35 35 34
49 49 49 48 48 48 47 46 45 44 45 45 44 45 40 42 40 34 31 32 40 38 32 21 21 28 36 32 30 29 28 33 36 35 39 37 37 36 33 30 34 35 34 32 33 35 35 36 35 34 35 35 34 32
49 49 48 48 47 47 46 45 44 44 45 44 44 41 42 42 39 36 35 40 39 36 33 24 20 29 37 34 28 36 33 34 39 38 40 36 38 36 33 33 32 30 30 31 32 33 33 33 34 35 35 33 31 31
49 48 47 46 46 46 45 45 45 44 45 44 40 39 41 38 33 33 40 41 41 35 27 28 24 23 37 36 38 38 39 33 39 38 39 36 37 33 33 34 30 30 30 30 31 31 32 32 33 33 34 32 31 31
49 48 46 46 46 45 45 45 44 44 42 37 36 36 33 35 38 40 39 34 34 35 33 27 33 28 35 35 36 36 37 35 32 37 40 37 33 31 30 30 30 30 30 29 28 28 26 26 30 33 33 34 33 31
48 48 47 46 46 44 45 44 44 42 40 33 31 31 34 38 35 35 32 31 30 28 32 31 33 31 38 34 37 39 35 34 31 35 35 34 33 31 28 29 29 28 28 29 30 31 31 31 33 33 33 33 34 33
48 48 47 46 46 45 44 43 42 39 38 37 35 36 37 34 31 29 27 30 30 26 35 34 35 36 38 41 37 36 33 33 28 37 34 30 30 27 28 27 27 28 28 29 30 31 34 35 35 35 34 35 36 33
46 48 47 46 45 45 44 43 42 40 37 36 35 31 30 29 25 23 21 23 27 33 33 33 31 37 39 39 35 34 31 29 32 32 28 26 27 27 27 28 27 28 29 29 29 30 31 34 36 35 33 31 30 28
47 48 47 47 46 45 44 43 40 37 31 24 20 17 22 20 25 26 24 28 29 32 31 32 33 35 36 35 35 29 31 30 28 26 22 28 25 27 27 28 29 28 29 28 28 29 30 30 33 36 35 35 32 27
47 47 48 47 46 46 44 42 38 36 26 18 21 13 19 26 26 26 26 30 27 32 30 30 33 35 34 32 34 31 30 27 27 23 22 22 29 27 26 26 27 28 28 28 28 28 28 28 28 29 33 33 31 30
47 47 45 47 46 46 42 39 37 34 23 19 23 20 22 21 22 22 21 25 32 32 32 32 31 31 31 32 30 28 26 22 25 22 25 28 27 26 25 24 27 28 27 26 27 28 27 27 26 27 31 31 32 31
46 42 46 46 46 42 40 36 31 20 17 23 18 22 20 18 22 24 27 27 30 31 28 31 29 30 32 30 27 27 26 27 23 27 26 27 26 26 25 25 26 25 22 25 26 27 27 27 26 25 24 25 27 31
40 40 46 45 40 38 36 33 21 20 13 12 17 15 24 25 24 27 28 28 27 26 27 27 26 24 29 27 26 30 28 28 23 25 26 25 24 25 23 23 23 20 21 24 25 25 27 24 24 25 24 24 24 25
40 42 46 42 40 35 32 29 24 17 20 11 17 20 23 25 27 28 28 28 28 29 27 27 24 22 26 26 26 18 20 24 27 27 25 24 23 24 22 22 21 19 18 19 22 24 24 24 23 22 23 25 23 22
44 45 44 41 38 32 27 24 27 21 12 14 14 14 20 23 23 24 24 27 27 27 22 19 21 25 28 24 24 25 24 26 25 23 22 21 22 17 20 19 19 17 15 14 16 21 20 17 20 20 20 25 24 23
40 41 40 37 34 33 28 17 19 18 13 15 9 13 13 13 12 11 13 26 24 20 20 24 24 25 27 28 27 27 27 26 24 25 22 16 19 18 15 13 11 14 15 14 15 15 17 16 17 18 20 23 24 24
38 39 35 36 32 29 25 23 16 17 17 10 10 10 13 4 3 6 11 14 17 22 24 25 23 22 21 21 24 23 24 23 17 15 17 19 15 14 14 14 12 7 7 8 11 13 14 16 17 20 21 22 24 23
38 36 33 32 28 24 15 23 16 12 14 8 4 4 3 0 4 12 15 15 19 22 23 22 18 16 19 19 19 18 20 20 16 15 17 15 13 14 14 14 12 6 5 10 12 12 11 18 18 18 21 22 22 22
36 33 29 24 24 20 19 11 17 15 13 12 6 3 -0 -0 7 8 11 15 18 21 21 18 18 19 19 18 18 18 16 17 15 13 14 14 11 12 14 13 12 12 13 14 11 11 12 15 17 19 19 14 15 16
28 26 29 23 20 17 9 6 4 12 5 8 2 3 3 3 2 -2 6 14 17 18 19 18 19 20 20 20 17 18 17 17 14 13 12 14 12 11 10 11 12 13 14 7 9 10 9 9 10 10 11 10 11 12
22 21 23 16 9 12 11 6 9 10 8 6 6 1 -3 -0 -1 1 9 15 17 18 18 19 19 19 20 20 19 18 18 17 15 13 11 15 15 13 12 12 12 13 13 13 10 9 9 10 10 8 9 11 17 14
20 17 22 24 20 16 11 10 11 9 6 8 3 3 -1 -3 -1 6 12 15 17 18 17 18 21 21 21 19 20 17 14 17 15 14 13 12 14 16 16 14 13 13 12 11 10 10 10 10 10 9 10 8 8 10
22 16 13 14 15 13 11 10 10 10 11 12 11 4 3 5 12 15 13 14 16 16 14 14 15 17 17 16 13 16 10 8 7 9 11 12 8 3 6 9 10 16 12 11 10 9 9 10 11 10 10 10 11 11
22 20 17 10 7 9 10 12 11 12 13 14 11 8 8 12 11 9 11 9 7 10 15 15 15 9 8 7 6 6 10 13 15 14 12 14 8 10 3 4 4 0 -0 2 14 16 10 10 12 13 12 12 12 12
20 20 11 4 10 11 11 12 10 8 11 13 12 10 10 10 11 5 4 3 8 12 16 15 13 12 14 11 10 8 7 9 13 16 14 13 11 4 -4 -3 -2 0 0 1 3 3 14 11 11 7 8 8 8 9
17 9 6 7 8 6 2 0 1 10 3 -3 -4 3 7 6 8 8 10 12 14 5 5 8 3 5 10 10 11 9 10 9 8 8 5 4 -0 -2 -1 2 5 4 3 4 3 3 6 8 6 6 6 6 4 13
7 12 10 4 4 -3 -6 -4 -4 0 -3 -4 -1 -11 -3 -1 3 10 4 2 -0 3 11 11 10 11 9 9 6 5 13 3 1 1 -1 0 -1 3 6 7 6 7 9 8 7 9 9 7 7 7 7 4 4 6
-6 -9 -11 -4 -1 -1 -3 -1 -4 -4 -7 -6 0 -0 -3 3 6 11 1 -3 -0 1 4 3 3 3 4 4 3 -0 7 -3 3 15 18 18 20 18 17 17 16 14 13 11 11 11 9 8 7 6 6 7 7 10

GFSWCAN_sfc_dewp_030.txt.gz
Dewpoint
48 47 46 46 45 45 45 46 45 45 45 45 45 44 44 46 42 40 38 38 34 30 27 26 31 29 26 31 34 36 38 38 38 35 33 31 29 30 29 28 27 27 28 29 29 25 23 31 33 28 32 34 34 36
49 48 47 46 46 46 47 46 44 45 45 45 45 43 43 44 44 41 37 37 37 34 30 29 27 26 27 28 30 31 36 37 38 37 36 35 31 32 31 27 32 28 29 26 26 25 28 33 34 37 37 36 36 36
49 48 48 47 47 47 47 47 45 44 44 45 45 44 44 44 44 44 38 39 38 36 33 30 29 31 32 29 29 25 32 38 39 38 37 36 33 35 31 30 32 33 33 31 31 31 32 32 35 36 36 36 36 36
49 48 47 47 47 47 47 46 46 44 44 44 45 44 43 44 45 43 40 40 39 36 28 27 31 28 29 32 31 30 29 32 32 35 39 38 34 36 33 31 31 33 34 32 32 34 35 36 36 37 37 38 38 38
49 48 47 47 47 47 47 46 46 44 44 45 44 44 44 45 42 42 42 40 40 35 27 27 31 30 30 30 30 31 30 29 30 30 34 37 37 35 34 34 32 34 34 32 30 34 33 34 37 38 38 37 37 37
49 48 48 47 48 47 47 47 46 45 44 44 44 44 45 41 42 40 34 40 40 40 32 25 31 27 27 29 30 31 31 30 32 30 32 38 38 36 35 32 33 34 35 36 34 36 38 39 38 38 35 35 35 36
49 49 48 48 48 48 48 47 45 44 44 44 44 45 43 42 42 36 31 35 40 39 32 26 25 25 31 33 31 30 31 30 30 30 33 37 39 38 36 31 32 34 35 36 34 34 34 36 36 35 34 35 36 35
49 49 48 48 46 47 46 45 44 44 44 44 44 42 39 42 40 37 37 40 41 36 32 24 25 27 34 33 28 31 29 29 32 32 36 36 40 38 35 35 35 34 33 32 33 32 32 32 33 34 35 35 34 34
48 48 48 47 45 46 45 45 45 44 44 44 39 39 42 39 35 36 39 42 42 36 28 27 25 26 37 36 36 32 32 26 32 35 36 38 36 36 35 35 34 32 32 32 32 31 31 33 33 33 34 34 33 32
48 48 48 46 46 45 44 44 43 44 42 37 36 35 34 35 37 40 39 35 35 35 34 28 32 28 35 36 35 35 35 34 31 35 40 36 36 34 31 31 32 31 30 31 30 32 33 34 33 34 34 34 34 34
48 48 48 46 46 45 44 44 43 41 40 36 33 31 35 37 36 34 31 31 31 28 31 30 31 30 37 32 34 36 32 34 33 35 35 34 33 32 30 29 29 29 29 30 31 31 31 32 33 34 35 35 35 35
47 48 47 47 46 45 44 44 42 40 40 38 37 37 37 34 32 29 28 31 30 28 35 34 35 35 36 40 38 37 34 35 30 37 35 32 32 29 29 29 29 29 29 30 30 30 32 34 35 36 35 33 34 36
46 48 47 46 46 45 45 43 43 40 37 38 34 32 30 30 25 25 22 27 29 32 33 33 31 36 38 39 36 35 33 31 34 33 29 31 30 28 29 29 29 29 29 29 29 30 30 32 34 36 35 35 29 28
45 47 47 47 46 45 45 43 39 37 34 29 24 15 24 24 26 27 27 29 32 31 31 30 31 34 36 34 35 32 34 33 30 27 27 31 30 29 28 29 29 28 28 28 29 29 29 30 31 34 35 35 34 32
45 47 47 47 47 46 45 42 37 37 31 25 23 16 21 27 28 29 29 31 32 32 32 30 30 34 34 32 35 33 30 28 27 26 31 32 30 28 26 27 28 27 26 27 28 28 28 28 27 28 32 33 33 31
47 47 46 46 46 46 42 39 38 35 27 26 24 22 23 24 25 26 28 28 32 32 32 32 30 30 32 33 32 31 28 26 30 33 32 30 28 26 24 25 27 26 23 24 27 28 28 26 26 26 26 25 28 32
45 41 44 47 46 42 40 37 33 26 25 22 23 24 25 24 24 25 25 28 29 30 28 29 28 30 32 32 29 31 30 33 33 32 31 31 29 27 23 24 24 21 21 23 25 27 27 26 26 26 25 25 25 28
41 43 47 45 41 39 36 34 28 25 22 23 22 23 23 25 25 26 28 29 29 30 29 27 28 25 27 28 29 33 34 32 30 30 30 28 27 27 22 23 21 18 21 23 24 26 27 26 22 19 21 27 26 25
41 43 46 42 40 36 33 31 29 24 25 23 21 22 24 25 27 27 29 29 29 31 29 28 25 24 26 31 32 34 31 31 30 29 27 26 26 26 22 24 21 20 22 23 21 21 22 21 22 18 18 23 26 26
44 45 44 41 38 34 29 28 29 23 20 20 20 22 24 25 25 26 27 28 28 28 26 24 24 24 28 31 31 32 31 28 28 27 25 24 24 24 24 23 19 19 19 20 18 19 19 15 17 17 19 23 23 25
41 42 40 37 35 35 32 24 23 23 19 19 18 19 21 19 21 22 22 26 27 24 23 24 24 26 29 29 29 29 30 29 28 28 27 26 23 23 22 21 20 14 14 13 12 12 14 14 16 16 20 22 23 24
38 39 36 36 33 30 29 26 23 20 20 17 17 16 19 17 17 17 18 21 22 23 24 25 25 25 25 25 24 27 28 28 26 20 19 23 21 20 20 20 18 19 18 18 13 12 12 14 15 18 19 22 23 22
38 37 34 33 30 27 20 23 21 18 17 14 13 14 14 13 13 16 16 17 19 21 24 25 25 23 22 23 22 23 24 26 24 19 17 16 15 19 20 19 18 19 18 16 15 15 16 15 17 17 19 22 20 19
37 34 31 28 28 23 20 16 18 17 17 15 14 12 11 11 13 14 14 16 17 20 21 23 21 21 21 21 21 22 23 23 23 18 17 15 16 12 13 14 13 15 17 16 16 16 15 14 16 15 17 19 17 16
30 28 29 21 25 21 18 12 11 14 14 10 9 11 11 10 12 10 11 17 18 20 21 20 19 20 20 21 22 21 21 21 21 20 17 17 14 11 14 14 12 13 16 17 16 15 15 14 15 15 16 17 16 16
22 25 24 22 20 17 15 10 9 10 10 8 10 9 7 10 6 10 13 17 17 19 19 19 19 19 19 21 21 23 23 20 19 19 19 17 16 17 19 16 16 17 16 17 18 16 15 15 14 15 14 14 17 16
21 16 23 23 20 16 14 12 13 11 8 12 13 10 11 11 8 12 13 15 18 20 20 21 22 22 22 22 22 23 19 21 21 20 17 18 19 18 20 18 17 17 16 16 16 16 15 15 14 14 14 14 14 14
21 17 15 16 16 15 15 13 13 12 14 15 13 12 12 10 14 19 18 17 17 16 17 18 18 20 22 23 23 20 18 15 14 15 17 17 14 15 15 16 16 18 16 16 16 15 15 15 15 14 14 14 14 14
23 21 17 7 6 11 15 17 18 19 17 16 14 13 13 14 17 17 15 14 11 14 16 18 20 17 17 16 14 16 17 16 18 18 18 19 17 18 10 11 12 13 14 15 18 19 16 15 15 15 15 15 16 16
18 21 16 13 14 14 16 16 16 13 13 15 13 14 13 13 15 12 12 10 12 15 18 19 19 16 18 18 19 17 13 14 19 20 19 18 18 13 10 11 12 12 11 11 11 11 15 15 15 14 14 13 13 13
19 14 12 14 12 13 10 4 5 9 6 5 3 10 13 12 11 11 12 15 17 18 11 14 13 11 14 14 14 15 16 15 13 13 12 11 10 11 11 11 11 11 10 10 11 10 9 10 10 11 11 10 9 13
16 14 11 6 8 0 -1 1 -1 2 -0 -0 6 -2 3 5 8 15 10 6 7 9 14 15 12 14 11 13 12 13 15 11 9 8 6 11 10 10 10 11 10 10 10 10 11 11 10 8 10 10 9 8 8 8
-1 3 -6 -1 2 2 1 2 -1 -1 -4 -3 2 1 2 6 9 14 4 1 5 6 7 7 7 6 4 5 8 8 11 6 6 14 16 17 18 17 14 13 14 14 13 14 14 12 10 9 9 8 8 8 8 9

GFSWCAN_sfc_dewp_033.txt.gz
Dewpoint
48 48 47 46 46 45 45 46 45 45 45 45 45 43 43 43 44 42 39 39 33 30 28 27 25 24 21 25 30 36 37 39 39 34 32 30 26 27 24 26 26 26 26 25 25 24 22 29 35 30 33 35 35 36
49 49 48 47 47 46 46 47 46 45 45 44 45 45 44 44 44 43 38 37 37 35 30 32 30 28 27 26 27 31 35 36 39 37 34 32 27 28 27 24 28 26 26 25 25 25 28 30 31 35 36 36 36 37
50 49 49 48 47 47 47 47 47 45 44 45 45 45 44 43 44 45 41 40 39 36 31 29 28 30 31 32 30 22 27 36 36 35 39 37 32 31 27 27 29 29 30 29 28 28 30 30 35 35 36 37 37 37
50 49 48 48 48 47 47 47 46 45 44 44 44 44 44 44 44 43 40 40 39 35 29 25 31 29 29 31 31 28 26 30 30 34 35 38 34 32 29 29 29 31 33 31 29 30 34 33 33 34 37 38 38 38
50 49 48 47 48 47 48 47 46 45 44 44 44 44 44 45 41 42 41 40 41 35 29 28 31 29 29 29 29 29 29 29 29 29 32 35 37 35 34 33 30 33 32 31 29 30 30 32 35 37 38 38 36 36
50 49 48 48 48 48 47 47 47 45 44 44 44 44 44 43 42 40 33 40 40 40 33 25 31 28 26 27 29 29 30 30 29 29 28 32 37 39 33 29 29 31 33 33 31 35 35 37 39 38 38 36 36 35
49 49 49 48 49 48 48 48 46 44 44 44 44 44 42 40 43 36 32 37 41 40 32 27 28 26 27 32 32 31 30 31 30 30 27 28 33 35 37 29 30 32 33 35 37 37 36 36 36 37 35 34 36 35
49 49 49 48 47 47 46 45 44 44 44 44 44 42 38 42 40 37 38 40 40 37 35 26 26 28 33 32 29 31 28 30 29 26 27 27 29 33 34 35 33 34 34 35 35 34 33 33 32 33 34 34 34 34
48 48 48 48 46 46 46 44 45 44 44 43 40 39 42 40 35 37 39 41 42 37 30 29 27 29 37 36 35 30 30 24 27 26 25 27 30 32 37 35 35 34 34 34 34 32 32 32 33 34 35 35 34 34
47 47 48 47 46 46 44 44 43 44 42 38 34 33 34 34 38 39 39 36 35 35 34 28 34 30 35 36 35 34 32 32 26 27 32 32 33 37 35 32 35 33 32 32 32 33 36 38 35 35 35 35 35 35
46 47 48 47 47 45 44 44 43 42 40 37 35 32 34 38 36 34 31 32 33 30 32 31 33 30 36 32 34 36 33 35 31 34 33 34 34 35 33 31 30 30 30 30 31 31 32 32 33 35 35 36 35 35
46 47 48 47 46 45 44 43 42 41 40 38 37 37 37 34 33 30 30 32 31 30 35 33 32 33 36 37 34 35 33 33 31 35 33 32 32 31 30 29 29 29 30 30 31 31 32 33 34 35 36 35 32 30
45 48 47 47 46 45 45 43 42 40 38 38 34 32 31 32 27 26 23 28 28 33 33 31 29 31 36 38 36 35 33 32 35 34 29 32 31 30 29 29 29 29 30 30 30 30 31 31 34 35 35 35 35 32
47 47 47 47 46 46 45 43 40 36 35 31 27 19 27 27 28 29 29 31 33 33 32 30 29 30 35 34 35 32 33 34 30 28 29 34 31 29 29 30 29 29 29 29 29 30 30 30 31 33 34 35 35 34
44 46 47 47 47 46 45 41 37 37 34 31 28 22 24 28 31 32 33 31 32 33 32 30 31 31 32 32 35 33 31 28 26 27 34 35 31 29 28 29 28 27 27 28 29 28 28 28 28 27 28 28 32 33
47 46 46 46 47 46 43 40 38 36 33 31 28 27 26 27 31 30 31 30 33 32 32 32 29 29 31 32 32 32 30 28 32 36 34 31 29 26 25 27 26 23 21 23 27 27 27 27 26 26 26 26 25 29
46 42 45 46 47 43 40 39 36 30 30 26 28 28 28 29 28 27 23 25 30 30 28 29 27 30 31 30 30 33 32 35 35 35 33 32 30 25 23 24 24 19 20 21 23 25 27 26 22 20 21 27 27 26
42 44 46 45 41 39 37 37 33 30 27 29 27 29 25 24 26 24 26 28 29 30 29 28 29 26 27 28 30 35 37 35 33 31 32 30 28 26 23 23 20 18 20 21 23 25 26 24 21 17 19 22 28 28
43 46 44 43 41 37 35 33 33 30 29 29 27 26 25 26 27 26 26 28 30 31 30 29 25 24 26 31 34 37 36 34 33 31 29 29 28 27 23 25 23 22 24 23 20 19 19 19 19 17 17 20 22 25
44 46 43 42 39 36 32 31 31 27 26 25 24 25 26 26 26 27 27 28 27 28 26 24 24 25 26 29 35 34 34 31 30 31 31 27 25 28 27 25 20 20 19 21 20 19 17 16 16 16 18 22 22 22
42 43 41 38 36 37 35 30 27 27 26 23 24 23 25 25 25 26 26 27 25 24 24 26 25 26 28 28 29 30 30 31 32 33 32 30 25 26 26 25 24 16 14 13 11 11 15 13 15 15 17 20 22 23
39 39 37 37 35 32 31 29 28 24 23 24 22 21 23 23 24 23 22 22 22 25 26 24 26 27 26 27 27 28 27 29 30 29 25 25 24 24 25 25 22 22 21 23 15 12 12 12 14 16 18 18 23 21
39 38 35 34 32 30 26 26 25 25 24 22 21 20 21 20 20 20 19 21 23 25 25 26 27 27 26 25 26 25 25 26 26 27 25 23 22 27 26 25 23 25 24 21 19 18 19 15 16 17 16 20 20 18
38 34 32 30 30 26 23 22 22 21 20 19 19 19 21 19 18 18 17 21 22 21 21 25 23 21 20 23 22 22 25 25 25 26 22 20 20 16 19 21 14 20 22 20 20 19 18 13 15 16 15 19 19 18
31 29 29 25 29 23 20 19 17 18 17 19 17 17 18 16 17 17 16 24 25 23 26 22 20 19 19 19 21 23 25 23 24 24 25 21 19 13 17 16 13 14 19 22 20 19 20 18 17 17 17 18 18 18
23 27 26 24 23 21 20 15 14 15 17 16 16 16 14 16 14 16 20 23 21 24 24 20 19 20 20 21 20 22 25 23 23 23 26 22 20 21 23 19 18 18 18 19 22 21 20 18 17 17 16 16 18 18
22 23 25 24 21 19 17 15 15 16 15 14 17 13 14 14 16 20 19 20 22 28 25 24 23 23 23 24 24 25 24 23 24 23 19 21 22 21 24 23 20 21 20 20 20 20 19 18 17 17 17 17 17 16
24 22 19 21 20 19 18 16 15 15 16 19 19 15 16 17 20 26 25 26 24 25 24 23 23 23 23 24 26 25 24 22 20 19 21 21 20 21 21 22 21 19 21 20 20 19 19 18 18 17 16 16 16 17
23 22 19 17 16 18 19 18 18 19 20 19 20 20 19 20 25 24 24 22 21 19 20 20 24 23 22 22 21 22 23 21 20 21 20 21 24 24 20 19 19 20 20 20 20 20 17 17 17 17 16 17 17 18
22 24 19 17 17 17 21 20 23 23 19 20 18 17 17 19 21 23 21 20 19 19 21 23 24 25 22 21 21 22 20 20 21 22 22 22 24 19 16 15 15 16 16 16 16 16 17 18 17 16 15 17 17 16
23 23 21 20 18 21 20 11 12 11 13 15 15 16 16 19 18 20 19 19 20 22 22 22 21 21 19 19 19 18 18 21 19 19 21 19 17 17 17 17 17 17 15 15 14 14 14 14 14 13 13 12 11 15
20 20 17 13 15 12 8 12 15 15 15 12 15 13 12 13 14 20 20 15 17 16 19 20 19 19 18 18 18 19 17 17 15 15 14 18 16 15 15 15 14 14 14 13 13 13 13 11 12 12 12 10 10 9
12 14 10 12 14 13 11 12 11 11 9 10 11 12 13 13 12 19 12 8 12 12 12 13 12 12 10 8 12 14 13 12 11 15 15 15 16 16 15 15 16 16 14 14 14 14 13 12 12 10 10 9 8 8

GFSWCAN_sfc_dewp_036.txt.gz
Dewpoint
49 48 47 46 46 46 45 46 46 45 45 45 45 45 45 45 44 44 41 40 35 30 29 30 26 24 24 23 25 30 35 37 37 35 32 32 29 27 24 25 27 27 27 27 27 25 20 36 35 32 34 35 36 36
49 49 48 47 47 46 46 47 48 46 45 44 45 44 44 44 44 45 39 39 38 35 31 34 33 32 30 28 27 27 31 33 38 36 35 33 28 26 26 24 27 26 27 25 25 25 30 31 33 36 37 36 36 37
50 49 49 49 48 47 47 48 48 47 45 45 44 44 44 44 44 45 42 41 40 36 32 31 29 31 32 32 32 25 28 33 32 34 35 38 34 31 26 26 27 28 29 29 27 28 29 30 34 36 37 37 38 38
50 50 49 48 48 48 48 48 48 46 46 44 43 44 44 44 45 41 40 41 40 36 28 27 31 30 31 30 32 32 29 29 31 33 33 35 34 33 29 29 30 31 31 29 30 31 35 32 33 36 37 38 38 38
50 49 48 47 47 47 47 48 47 47 45 44 44 44 44 44 43 43 42 41 42 36 28 30 32 30 28 30 31 31 30 29 30 29 29 30 36 36 35 34 32 33 32 31 29 31 30 32 34 37 38 38 37 36
50 49 49 48 48 47 48 48 48 47 46 44 44 45 45 41 42 41 36 41 40 40 33 26 32 29 28 29 29 29 31 30 31 29 28 29 34 35 33 30 31 30 32 33 32 36 37 38 39 38 38 37 36 35
50 49 48 48 48 48 48 47 47 45 45 44 45 45 42 41 43 37 34 38 41 40 32 27 28 29 28 32 33 32 32 31 31 30 27 27 27 35 34 30 33 31 31 34 37 37 37 36 36 36 35 34 36 35
49 49 48 48 48 47 46 45 45 45 45 45 44 42 38 42 41 39 40 40 40 37 34 26 26 30 33 33 31 32 30 32 31 29 28 25 27 27 26 33 37 38 34 36 35 34 33 33 32 33 34 35 34 34
49 48 48 48 47 46 46 45 45 44 44 43 38 38 42 40 35 37 39 41 42 37 30 29 26 27 37 36 37 32 31 25 28 26 25 25 24 25 27 27 36 37 35 34 33 32 32 32 33 35 35 35 35 35
46 47 48 48 46 46 45 44 44 44 43 41 36 35 35 35 37 38 38 35 34 35 34 28 34 29 35 35 35 33 33 30 26 26 30 26 25 27 31 36 35 33 32 34 33 32 31 31 33 34 34 36 36 36
46 47 48 47 47 45 44 44 44 43 42 38 33 32 35 38 36 35 32 32 33 30 32 31 32 31 35 32 32 36 32 33 28 31 29 31 31 33 35 32 31 30 30 31 31 32 32 33 34 34 35 36 36 33
46 47 48 47 46 45 44 43 43 42 40 38 36 37 36 33 32 27 26 31 31 30 34 33 31 31 33 37 33 34 31 32 29 34 32 31 33 32 33 30 30 30 30 31 31 32 32 34 34 34 36 35 35 34
47 48 47 47 46 46 45 44 42 39 38 38 34 29 30 29 19 18 17 22 26 33 33 31 29 30 33 37 34 34 32 31 33 32 31 31 31 30 29 29 29 30 30 31 30 31 31 32 34 34 35 35 35 35
46 48 47 47 47 46 45 44 40 37 36 30 23 12 22 20 24 26 26 26 31 31 31 31 30 29 32 32 34 31 34 33 29 28 28 29 29 29 29 30 29 29 29 30 30 30 30 30 30 32 32 32 34 34
47 47 47 47 46 46 45 42 38 38 34 26 25 17 19 27 27 27 28 26 29 32 31 29 30 30 30 31 32 32 30 25 29 28 32 32 29 29 29 29 28 27 27 28 29 29 28 28 27 27 28 27 27 31
46 46 45 47 47 47 43 40 39 36 30 26 24 21 26 22 24 25 25 25 30 31 31 32 29 28 29 31 30 28 30 27 31 32 34 32 30 27 27 27 24 21 21 24 27 27 27 27 26 26 27 27 27 27
46 43 46 46 47 44 41 40 35 29 28 26 22 28 26 24 24 26 24 26 30 27 22 27 23 22 27 27 29 31 30 33 34 34 33 32 30 26 24 26 23 20 20 22 23 25 27 26 21 17 17 20 26 28
43 44 46 45 42 40 37 36 31 30 27 28 22 25 27 25 25 25 25 27 27 26 27 22 29 23 22 21 26 32 33 33 31 30 31 31 29 25 23 23 20 18 21 25 27 28 28 24 21 18 19 21 24 26
44 46 45 43 41 38 35 33 32 28 29 29 27 26 26 27 28 27 26 27 29 29 29 27 24 22 23 26 27 29 31 30 31 32 31 30 29 31 29 26 24 23 25 24 21 20 19 18 18 17 18 21 22 23
46 45 44 42 40 35 31 31 31 28 25 24 23 21 23 25 26 26 26 27 26 26 23 23 23 25 26 26 29 29 28 30 31 30 32 32 29 27 26 26 23 23 22 22 22 19 17 17 16 16 17 21 22 22
43 43 42 39 36 36 33 31 29 27 25 20 20 20 21 22 19 21 24 27 25 24 22 24 25 25 26 27 27 29 29 29 28 29 29 30 28 27 27 25 23 19 18 17 15 13 15 14 14 15 16 18 21 23
40 40 37 37 34 33 32 32 30 24 20 19 17 18 15 15 16 20 23 21 22 20 24 24 24 24 25 25 25 25 27 26 26 28 31 29 25 24 24 25 24 21 17 16 14 12 11 12 14 14 17 18 20 22
39 37 35 34 32 31 27 27 26 25 19 16 15 14 14 12 12 15 10 16 19 23 25 24 22 21 22 23 21 21 22 22 22 23 25 26 25 25 26 26 25 23 21 21 19 18 15 16 15 18 17 17 20 19
38 34 31 29 30 26 25 21 24 21 21 18 15 9 12 12 12 9 10 16 23 24 23 18 19 21 20 19 19 21 21 21 21 22 25 24 19 19 23 25 21 23 22 21 19 16 15 14 16 16 16 14 15 16
29 29 30 24 29 21 17 17 14 18 10 12 10 8 9 9 7 6 9 15 21 22 22 23 21 19 17 18 19 21 22 22 22 23 26 24 21 15 16 16 15 14 20 17 15 14 13 14 14 14 14 13 12 10
18 23 25 23 21 18 16 11 11 10 11 7 10 9 7 7 3 7 13 17 21 22 22 21 19 18 19 20 20 21 25 25 24 23 25 24 22 20 16 15 13 15 18 18 16 16 15 15 14 12 13 13 19 13
20 19 27 25 22 20 17 15 15 14 8 7 8 6 8 9 6 13 20 20 21 24 23 21 19 19 18 19 23 24 24 24 24 24 22 21 23 23 23 21 18 18 18 18 17 16 16 15 14 13 12 10 11 11
22 20 16 18 19 16 12 14 12 13 12 17 17 6 7 10 14 21 22 23 21 19 18 19 21 21 19 20 22 23 23 22 20 20 21 21 21 21 22 22 20 21 20 20 19 19 18 17 16 14 12 11 9 9
23 20 19 16 13 15 16 16 16 17 19 18 13 12 14 18 18 17 20 16 12 11 11 16 19 18 20 19 19 21 21 20 18 17 18 19 22 24 21 20 20 20 18 17 21 18 15 14 12 11 10 11 10 9
22 20 14 11 14 15 17 21 17 18 20 19 18 15 15 15 16 17 15 13 13 18 21 21 21 15 20 16 19 18 19 20 21 19 18 19 22 18 16 15 16 15 15 15 12 10 20 12 12 6 9 6 8 9
22 21 17 18 15 14 14 8 10 13 9 7 8 10 16 13 13 14 18 20 21 21 20 20 20 12 12 12 10 13 16 14 16 17 17 15 13 12 12 12 13 12 11 10 7 6 4 5 4 2 2 2 3 12
17 17 16 10 10 7 5 4 4 5 5 3 5 3 3 4 6 14 19 14 9 11 17 15 10 10 6 5 5 6 17 7 6 7 8 11 10 10 9 8 6 6 6 5 4 4 3 2 2 4 5 4 3 3
13 13 7 4 3 3 3 3 2 1 -1 -1 4 7 6 8 8 14 13 10 10 9 7 5 3 2 1 -0 1 4 9 2 7 17 16 16 16 12 4 4 5 6 5 5 4 4 4 5 8 6 5 6 5 4

GFSWCAN_sfc_dewp_039.txt.gz
Dewpoint
50 48 48 46 46 46 45 45 46 46 45 45 45 45 45 44 45 42 40 39 33 29 30 30 28 24 25 25 24 27 32 37 37 32 30 29 27 26 25 25 27 26 25 26 27 25 20 35 34 32 33 35 35 35
50 49 48 48 47 46 45 46 48 47 45 45 45 45 44 44 44 43 40 41 39 33 30 34 33 33 32 31 27 26 26 32 35 36 35 33 29 26 26 24 28 25 27 25 26 26 28 35 33 36 36 35 36 37
50 49 49 49 48 47 46 47 47 46 46 45 44 44 45 45 45 43 38 38 37 33 30 29 29 30 32 32 33 25 29 32 32 34 34 36 32 32 25 25 27 28 29 27 27 28 30 30 35 36 37 37 38 38
50 50 50 49 49 48 47 47 47 46 46 45 44 44 45 45 44 42 38 40 37 33 26 26 30 30 32 30 33 33 31 31 31 33 30 32 33 35 31 30 29 30 30 28 29 30 32 32 34 36 37 37 37 37
50 50 49 48 48 47 47 47 46 47 47 45 44 44 45 45 41 41 39 39 40 33 27 28 32 31 28 31 32 33 32 30 29 28 26 26 32 33 33 33 30 32 31 29 29 31 30 30 33 37 37 38 38 37
50 50 49 49 48 47 47 47 47 48 46 44 45 45 44 42 42 39 33 39 40 39 32 26 32 29 28 29 30 30 31 30 30 29 27 28 31 33 29 27 25 28 33 34 32 34 35 38 38 39 38 37 36 35
49 49 49 49 48 48 47 47 46 45 45 44 44 44 41 42 39 34 32 36 40 39 31 25 27 30 27 31 33 32 31 31 30 29 28 26 27 30 28 22 26 29 35 37 36 38 37 37 36 35 35 34 35 35
49 49 49 49 48 47 46 45 45 45 44 44 43 39 39 42 41 35 38 40 40 36 33 25 26 29 34 33 31 33 30 31 31 29 29 26 26 26 22 24 25 24 32 37 34 35 36 35 33 34 34 35 34 34
49 49 49 49 47 47 46 45 44 44 43 42 39 40 40 36 33 34 39 41 41 36 27 26 24 24 37 35 36 33 31 25 29 27 26 25 22 20 24 24 24 33 36 36 36 33 32 33 34 35 35 34 33 34
49 49 49 48 47 46 45 44 43 42 41 41 36 35 31 33 37 38 38 35 34 34 34 27 32 27 34 33 33 33 32 27 24 25 28 24 23 25 26 30 38 37 37 38 34 32 31 30 33 33 33 35 35 35
48 48 48 47 46 46 45 43 41 42 40 36 33 32 34 39 36 33 30 29 31 26 31 30 32 30 33 30 31 35 31 29 27 27 26 28 31 34 35 31 31 31 34 35 34 33 33 34 34 34 34 35 35 34
47 48 47 47 46 45 44 43 42 39 36 35 33 36 36 33 27 18 15 26 24 24 31 31 30 31 32 36 33 34 31 32 25 34 30 30 34 34 35 33 33 33 34 33 33 33 34 34 34 35 35 35 35 35
47 48 47 47 46 45 44 43 41 40 39 36 30 25 25 21 13 9 9 15 16 27 25 27 25 29 31 35 34 33 31 31 33 30 31 32 31 30 32 34 33 33 35 34 31 32 32 33 34 34 34 34 35 34
47 47 47 47 47 46 45 43 40 37 33 25 16 10 15 12 14 18 18 17 25 23 24 26 28 26 29 30 33 30 33 33 27 23 27 32 32 30 29 30 29 30 33 33 32 31 30 30 30 30 28 27 29 31
48 47 47 46 46 46 44 41 38 36 29 23 19 11 11 21 17 18 25 19 23 26 25 23 25 30 29 28 31 32 30 26 29 28 32 33 33 32 29 29 27 25 27 28 28 28 28 28 27 26 27 27 26 27
48 47 44 47 47 45 42 40 37 33 24 20 18 16 21 15 14 16 14 17 24 27 24 26 23 25 26 29 27 29 29 27 28 32 35 34 32 33 30 27 23 20 22 26 26 29 28 26 25 24 25 24 27 27
45 41 46 47 46 43 42 35 30 28 28 27 17 24 21 15 19 19 25 25 29 24 17 19 13 15 22 24 22 30 29 29 32 32 33 33 32 32 32 27 24 20 20 22 23 26 26 27 21 15 15 18 23 27
41 45 47 45 42 39 36 32 30 29 26 27 18 23 26 25 22 24 25 27 25 23 25 14 25 22 16 19 20 25 26 31 28 27 28 31 30 31 31 27 24 19 21 28 29 28 29 27 25 19 20 21 23 24
43 45 45 44 40 36 31 32 32 27 27 28 28 25 23 24 26 25 26 26 27 28 28 25 23 20 19 21 21 20 27 30 29 32 33 31 30 32 32 31 29 26 27 27 26 23 20 18 17 18 17 20 21 22
45 45 44 42 39 31 30 30 31 27 25 20 16 14 19 21 23 22 24 26 27 27 24 22 20 22 23 22 23 24 26 28 29 28 26 28 31 28 31 31 30 29 27 24 23 20 18 17 16 16 16 19 21 21
43 43 41 39 36 32 31 29 27 27 26 15 11 14 14 14 13 12 15 22 25 24 19 23 23 24 25 25 26 26 26 27 26 27 26 26 28 27 27 27 28 25 20 18 17 16 18 15 13 15 16 17 19 22
40 40 37 37 34 33 32 32 28 25 15 11 11 12 5 7 8 9 15 23 22 20 21 21 22 24 24 24 24 23 25 24 24 24 25 25 24 23 23 25 22 24 22 21 16 13 11 12 13 14 15 17 18 21
39 37 34 33 32 31 26 24 26 20 14 10 8 8 6 5 5 17 13 12 17 19 23 23 21 19 22 22 19 21 21 20 20 21 22 23 24 25 24 23 24 23 24 23 20 18 15 16 15 16 17 17 19 19
37 33 29 28 30 24 22 15 21 16 16 15 8 5 4 4 11 4 10 11 16 21 21 20 18 19 19 18 19 20 19 17 19 20 22 22 22 23 23 24 23 23 24 21 20 19 17 16 18 15 16 14 13 14
28 28 28 23 20 20 12 11 14 19 10 7 8 7 6 4 2 -2 6 14 12 17 19 17 18 21 18 17 18 19 20 20 20 20 22 24 26 22 19 18 19 21 21 17 17 15 12 13 14 14 13 12 12 10
20 21 24 17 19 17 14 9 10 7 6 3 7 4 -1 1 2 6 9 11 14 14 18 21 20 19 19 19 18 17 18 19 19 20 22 25 25 24 22 20 19 17 18 20 17 15 14 14 14 13 13 14 20 15
11 14 25 25 21 19 15 13 13 10 2 5 4 2 1 2 3 10 15 15 19 24 25 25 23 21 19 18 19 20 21 17 20 21 22 22 23 24 24 23 22 22 18 18 17 15 14 14 14 14 13 9 11 11
20 18 18 20 16 13 10 9 6 8 10 14 13 2 5 7 10 15 18 19 20 15 14 16 19 21 20 19 19 18 19 16 16 16 19 21 22 23 23 23 24 25 21 20 18 18 17 16 15 14 13 13 12 10
23 17 18 14 7 8 11 12 11 16 18 18 12 9 11 14 14 14 19 15 6 8 11 18 20 15 15 15 15 18 16 11 15 17 16 17 18 22 22 22 22 23 22 20 22 21 17 16 16 16 15 14 12 8
18 15 11 5 10 12 14 18 14 11 17 18 17 15 15 15 15 14 13 10 12 18 22 22 22 13 19 19 19 16 11 15 19 19 18 18 19 17 13 14 15 17 17 16 14 13 22 15 15 12 14 10 8 7
18 13 11 12 11 8 9 6 6 15 6 3 3 11 18 15 13 13 18 21 22 22 21 20 20 15 14 14 10 9 13 7 6 11 15 16 15 11 11 11 11 11 12 12 11 10 10 8 6 2 1 -0 1 9
14 14 11 7 7 3 -0 2 -0 2 -2 -1 4 -4 1 2 6 13 14 17 16 16 19 18 15 17 6 1 -1 1 16 6 3 3 3 6 8 8 9 9 7 9 10 9 7 6 3 1 1 0 2 2 1 0
16 15 9 3 3 2 -0 1 -2 -2 -5 -5 1 2 2 7 8 12 10 9 14 12 6 5 4 3 2 -1 -2 -1 8 -1 8 19 18 18 17 13 3 1 1 2 3 2 0 -0 -1 -1 -0 -0 1 2 2 2

GFSWCAN_sfc_dewp_042.txt.gz
Dewpoint
50 50 48 46 46 46 45 45 46 47 45 44 45 45 45 44 44 40 38 38 33 28 29 29 28 25 27 26 23 26 31 35 36 30 29 28 27 26 24 25 26 25 24 26 28 26 19 31 34 30 32 36 35 33
50 50 48 47 47 47 46 47 47 48 46 45 44 44 45 45 45 42 36 40 39 32 29 34 33 33 32 30 27 26 25 33 34 34 35 34 32 28 25 24 27 25 26 25 27 26 27 32 33 34 35 35 36 37
50 50 49 48 47 47 47 47 47 47 46 45 43 44 45 45 43 42 36 39 37 34 29 28 27 29 33 32 32 25 28 30 31 33 33 34 31 33 27 25 25 28 29 27 27 27 28 29 33 36 37 36 37 38
50 50 50 49 48 48 48 47 47 47 46 45 43 44 45 45 42 42 39 38 35 34 26 25 31 31 33 31 33 32 31 31 32 31 26 29 31 34 30 30 29 29 30 28 28 29 31 31 32 36 37 38 37 37
50 50 50 50 50 48 47 47 47 47 46 44 44 45 44 42 42 39 38 38 38 30 25 27 31 31 28 31 32 33 32 30 30 27 27 25 30 30 30 32 28 32 31 29 28 30 29 29 32 36 37 37 37 38
50 50 50 49 49 48 48 48 48 47 45 44 45 44 42 41 43 38 34 37 39 37 29 26 32 29 29 29 30 30 32 31 31 29 27 28 29 31 25 25 28 22 26 36 34 36 35 34 36 37 37 38 37 36
50 49 49 49 49 48 48 48 47 45 45 44 43 41 42 42 37 32 29 34 40 37 28 22 25 30 27 29 33 32 31 32 30 29 28 26 26 29 27 23 20 20 20 22 29 36 37 37 36 37 36 35 36 35
49 49 49 49 49 48 46 46 45 44 44 42 39 41 42 42 39 33 37 41 39 33 30 17 23 29 35 32 32 33 31 32 31 29 29 28 27 25 22 23 22 23 24 25 33 37 35 36 34 34 34 34 34 34
49 49 49 49 48 47 46 45 44 43 42 40 41 42 37 34 31 33 39 41 40 31 21 20 20 21 35 33 35 34 32 27 29 27 27 25 23 20 23 23 23 25 31 35 36 36 36 35 35 35 35 34 33 34
48 49 49 48 48 46 45 44 42 42 42 40 35 32 28 32 37 38 36 34 33 33 27 19 27 21 31 31 30 34 32 26 23 26 28 24 22 25 29 34 31 31 38 37 35 33 34 34 35 34 34 35 35 34
48 48 48 48 47 46 45 42 42 42 39 34 30 27 32 38 34 31 30 28 29 21 30 30 28 27 31 29 29 33 31 30 24 28 25 22 27 35 35 35 34 33 34 37 37 37 36 35 34 34 35 35 35 35
48 47 47 46 46 46 43 42 42 38 34 33 33 35 34 31 24 18 17 23 22 20 29 29 27 29 29 34 33 33 29 31 24 32 27 26 32 34 33 34 34 35 35 35 35 36 35 35 35 35 35 35 35 35
48 47 46 46 46 44 44 41 40 40 38 34 28 19 23 20 10 4 3 11 13 25 22 24 23 26 29 33 33 33 30 29 33 30 30 30 34 34 33 30 33 34 34 34 35 35 35 35 34 34 33 31 33 33
47 47 46 46 46 45 44 41 41 38 32 24 13 7 13 10 12 14 14 14 22 28 23 26 27 24 27 25 31 29 30 34 28 25 25 28 33 34 33 32 29 29 33 33 33 34 33 33 30 28 28 27 27 30
47 46 46 46 46 45 43 41 39 35 28 25 17 13 12 19 14 19 27 20 21 24 24 23 27 27 22 25 26 30 29 27 24 23 27 31 36 34 33 32 27 22 24 27 31 32 31 31 30 27 28 28 27 27
47 46 43 47 46 44 42 39 36 32 25 19 17 16 21 14 11 13 14 16 22 26 23 29 25 24 23 27 25 22 25 18 24 28 32 34 33 33 33 32 31 22 21 24 26 29 29 26 23 20 20 20 26 27
44 40 46 46 45 43 41 35 30 28 28 22 18 25 21 17 18 19 24 24 27 23 16 15 12 14 24 22 22 25 22 21 27 30 30 30 30 31 33 31 31 29 22 28 27 28 29 28 28 17 14 17 22 26
40 44 46 45 41 38 34 32 30 28 23 23 22 19 26 25 21 24 25 26 24 22 20 12 21 21 13 12 16 20 29 23 30 28 28 29 30 31 31 31 30 29 28 29 30 29 29 28 26 25 21 22 21 22
44 45 45 43 39 33 29 31 30 19 22 21 25 28 27 25 25 24 25 26 26 26 23 25 21 19 18 20 19 17 14 24 26 26 28 30 31 30 30 30 31 30 25 28 29 28 25 22 18 17 16 18 20 21
45 45 44 42 37 30 29 29 32 28 22 22 19 14 20 20 21 21 23 25 24 18 23 22 20 21 21 22 22 22 22 24 24 24 24 24 25 25 28 30 31 31 30 29 28 30 22 17 17 16 16 16 20 20
42 42 41 39 35 31 29 29 27 28 27 20 10 14 14 12 11 9 10 20 26 15 17 22 22 23 24 24 24 25 25 25 24 23 23 22 22 24 26 28 27 29 28 27 26 23 21 18 14 14 16 16 17 20
40 40 37 37 34 33 31 28 23 25 21 12 13 13 3 5 5 5 12 23 20 18 22 20 21 22 23 22 23 23 24 24 23 23 24 23 21 21 22 24 22 25 27 27 25 20 16 13 14 14 14 15 19 19
39 37 34 34 31 28 24 28 26 22 14 11 8 6 5 2 6 18 17 14 17 20 22 22 21 19 21 22 18 20 21 21 19 19 20 21 22 23 23 24 24 23 24 25 24 23 21 17 14 15 13 18 18 18
36 32 28 29 24 21 23 23 25 20 16 13 6 5 4 1 13 8 9 10 14 19 19 18 18 19 18 16 17 19 20 20 20 20 21 20 19 20 23 24 24 24 25 24 20 21 19 14 17 17 16 13 13 15
21 21 21 14 21 15 10 12 11 18 16 3 8 8 8 4 1 -4 5 11 7 14 15 15 15 17 18 17 18 19 20 20 19 17 19 20 19 20 22 22 21 21 23 21 19 18 17 16 16 16 13 12 12 10
21 24 23 18 16 15 14 11 15 11 5 1 8 4 -3 -1 4 6 8 10 13 14 16 19 20 18 19 21 22 23 21 21 18 17 19 19 20 19 17 21 21 22 19 21 21 18 17 15 14 11 12 14 20 16
18 16 23 25 21 18 14 12 12 7 -1 6 3 3 1 3 3 9 13 13 16 17 17 19 21 20 21 21 22 22 20 13 18 19 19 19 22 22 22 22 21 22 20 19 20 19 18 16 14 13 13 9 12 13
18 19 19 22 19 12 9 7 5 7 8 12 9 1 4 6 10 14 15 17 18 16 12 16 16 19 20 20 20 19 18 13 9 10 14 19 21 22 22 23 23 25 25 20 19 18 18 16 15 14 13 13 12 9
23 18 18 18 9 6 10 11 10 13 16 14 10 8 9 13 12 11 16 13 3 7 12 19 22 18 11 10 12 14 15 9 9 12 13 15 15 15 13 18 19 20 23 24 26 23 19 18 18 17 16 14 12 6
20 17 9 7 10 11 14 16 11 9 15 17 16 14 15 15 15 12 12 11 13 19 22 23 22 12 19 21 20 18 11 12 14 16 15 15 14 14 14 15 16 15 15 17 17 16 23 18 18 15 12 10 10 10
16 9 7 9 10 8 7 6 4 15 5 3 1 10 18 16 13 12 18 20 21 22 15 19 19 13 15 16 12 13 15 5 1 4 7 10 14 14 15 14 11 10 11 12 11 12 14 12 11 11 10 8 7 12
11 11 10 10 7 2 -2 0 -3 0 -4 -2 2 -7 1 3 6 13 11 8 7 13 19 20 13 17 9 5 4 8 15 7 5 4 0 3 5 6 5 5 5 7 8 8 8 8 6 6 6 5 6 5 2 -1
15 15 13 5 5 3 0 1 -3 -2 -6 -6 0 1 2 7 8 12 9 9 16 16 15 8 3 -0 1 2 4 2 7 -2 6 19 21 20 20 15 4 -1 -0 1 1 0 -2 -2 -3 -4 -3 -4 -3 -2 -1 -1

GFSWCAN_sfc_dewp_045.txt.gz
Dewpoint
50 50 49 48 47 46 46 47 47 46 45 45 44 45 45 45 44 39 37 38 32 28 28 30 30 27 26 25 23 25 30 31 34 29 29 27 26 26 23 25 26 26 24 25 28 27 20 27 33 29 30 35 35 35
50 50 49 48 47 46 46 47 48 48 45 45 44 44 45 44 43 40 34 38 38 30 28 33 33 33 31 29 27 26 24 33 33 32 32 34 30 29 24 23 26 24 25 25 27 26 28 29 33 33 35 35 35 36
50 50 49 48 47 46 47 48 48 48 46 45 44 44 45 44 43 40 35 37 34 29 26 27 27 29 32 32 32 25 28 28 30 33 30 32 29 31 26 25 24 27 29 26 27 27 28 29 30 35 37 36 37 38
50 49 49 49 48 48 47 48 48 47 47 44 44 45 45 42 44 40 36 36 34 31 24 26 30 31 31 31 32 31 30 30 31 30 25 27 29 33 29 30 30 30 30 28 28 29 29 30 31 31 34 38 38 37
49 49 49 49 49 49 48 48 48 47 46 44 45 45 42 43 41 39 37 37 37 29 24 24 30 31 28 31 32 32 32 30 29 26 26 23 28 29 28 30 29 27 26 28 25 33 33 32 33 35 35 37 37 37
49 49 49 49 49 49 49 48 48 47 45 45 45 43 42 44 41 36 31 36 38 36 25 22 29 28 28 29 30 30 32 31 31 29 28 28 28 29 23 24 26 28 22 27 26 23 31 30 35 37 36 37 37 37
49 49 49 50 49 49 49 48 48 46 45 44 42 43 43 41 36 30 30 35 40 35 26 21 23 30 27 30 33 32 31 32 31 30 28 26 25 29 27 22 22 21 20 22 24 27 29 34 35 36 37 37 37 35
49 49 49 49 49 49 49 48 46 45 44 42 42 42 42 42 38 33 36 40 38 32 28 14 18 25 34 30 32 34 32 31 30 29 28 28 27 25 21 23 22 23 24 26 32 35 35 36 36 35 35 34 33 33
49 49 48 49 49 48 47 46 45 44 42 41 43 42 36 33 29 31 38 41 39 29 20 17 18 18 31 30 34 34 32 26 29 27 27 26 23 21 26 29 31 34 33 30 35 35 35 35 36 36 36 33 33 33
48 48 48 48 48 47 46 45 43 42 42 43 35 30 27 31 37 37 35 31 29 33 26 18 26 20 29 27 27 34 32 27 23 26 27 24 22 26 34 36 35 35 34 34 35 33 34 33 34 36 36 36 35 34
48 48 48 47 47 46 45 44 43 42 39 33 30 27 31 37 33 30 23 24 26 20 29 29 30 27 29 26 28 32 31 30 23 27 24 24 27 30 36 34 34 36 35 35 36 37 36 36 35 36 36 36 35 35
48 48 47 47 47 46 44 44 43 36 34 33 32 34 32 28 22 16 14 20 21 20 26 26 26 27 28 34 33 33 28 30 25 30 27 26 27 30 36 34 33 33 35 34 36 36 36 36 35 36 36 35 35 35
48 47 47 46 46 45 44 43 41 39 37 31 26 19 23 18 9 1 0 8 11 19 23 23 22 25 28 31 31 32 29 29 32 27 28 25 28 32 35 35 33 31 33 34 34 35 35 34 34 32 29 27 30 32
47 46 46 45 45 44 42 42 40 37 30 24 15 8 13 8 11 13 13 14 20 28 22 26 26 25 27 24 29 28 29 32 26 21 21 27 29 34 34 35 31 27 23 30 32 33 33 32 32 32 31 28 27 28
46 45 45 45 45 43 42 41 39 33 27 20 19 11 10 18 17 21 24 22 21 25 24 23 23 26 24 25 26 28 25 20 15 17 21 28 31 34 33 33 31 29 22 23 27 32 32 31 31 30 29 26 27 26
46 45 43 46 45 42 41 38 34 30 23 18 16 15 19 13 9 17 22 18 21 25 25 26 21 23 22 25 22 22 22 21 15 18 24 27 31 31 31 32 31 30 26 21 26 27 30 30 28 27 20 18 24 27
44 40 46 45 44 41 39 33 29 27 23 14 16 24 19 17 16 18 24 24 27 22 15 15 9 11 24 20 20 24 24 18 19 23 24 27 28 29 30 30 31 30 30 25 27 30 31 31 30 29 27 18 21 24
41 45 45 44 40 37 33 30 27 18 16 18 17 17 25 24 21 23 24 26 24 22 19 11 19 19 10 7 13 19 27 23 29 28 26 27 27 28 29 29 30 30 31 30 30 30 29 28 28 27 27 25 24 22
44 44 44 42 38 33 30 31 27 15 16 18 20 23 26 25 25 24 25 26 26 26 21 20 19 19 17 19 18 15 12 17 23 24 25 25 26 27 27 26 27 28 30 30 28 29 30 30 26 25 18 19 21 21
45 44 42 40 36 29 27 29 29 19 14 20 20 16 20 20 20 20 22 25 24 16 16 21 19 20 20 20 22 21 20 23 22 22 22 21 22 20 22 23 25 27 29 30 30 31 29 28 26 18 17 16 16 19
42 42 41 37 34 30 27 28 27 25 22 18 12 14 14 11 9 9 10 19 25 20 16 21 22 22 23 23 23 24 24 24 23 22 22 21 20 20 23 22 22 25 26 27 28 28 31 28 27 15 15 17 18 18
40 40 37 36 32 32 27 27 22 24 23 15 17 17 4 6 3 11 10 24 23 19 21 20 20 22 21 21 21 22 23 23 23 23 25 24 22 20 20 20 18 21 23 25 26 27 27 28 26 16 14 14 17 18
39 37 35 33 29 21 23 28 19 20 16 15 10 7 5 3 5 19 19 21 18 19 20 20 19 17 19 20 17 19 19 20 20 18 18 19 20 22 21 21 20 20 22 24 25 25 25 25 22 19 13 15 16 17
35 29 27 28 23 19 24 24 25 20 20 19 16 11 4 -1 12 9 11 10 15 18 17 14 14 16 17 16 16 19 19 17 18 18 19 20 21 17 18 19 21 22 23 24 24 24 23 22 22 17 14 14 15 15
23 21 20 21 22 15 19 14 17 19 17 15 12 9 2 5 1 0 7 11 6 12 14 14 13 16 17 17 18 18 22 24 27 24 21 21 20 18 19 20 20 21 21 20 21 21 22 20 17 16 15 14 13 11
12 22 15 15 14 15 15 13 15 16 7 -0 9 1 -4 -2 4 7 7 9 12 12 14 17 18 17 19 21 20 21 22 24 20 17 20 20 18 18 19 18 18 19 19 20 19 19 21 19 17 14 14 14 20 14
12 15 21 23 21 18 15 12 11 8 0 8 2 5 -0 1 1 8 12 12 13 16 18 20 19 18 19 20 21 22 21 14 18 19 19 18 19 19 20 19 18 20 19 19 19 19 19 18 17 16 14 10 12 13
18 19 20 23 19 14 11 8 7 7 8 10 9 2 4 6 9 13 14 16 16 12 13 16 17 19 19 20 21 20 19 12 6 9 13 16 17 18 18 19 21 25 24 24 21 20 19 19 17 16 15 14 13 10
18 19 21 19 14 7 9 11 11 13 15 12 10 7 9 12 12 10 14 14 5 5 11 18 21 16 14 12 13 15 15 7 8 11 12 14 12 11 6 9 12 16 18 19 24 26 22 20 18 18 16 16 15 10
16 16 10 14 11 14 14 15 10 8 13 14 14 13 14 13 14 12 11 10 10 17 21 22 21 11 20 20 20 19 13 12 12 14 12 13 11 7 13 14 15 17 14 15 15 15 23 19 18 15 12 10 10 9
15 9 7 8 9 8 5 3 3 15 5 2 -0 9 17 16 12 13 18 20 22 22 18 19 20 16 13 13 11 8 14 6 -1 2 2 6 7 8 9 9 11 9 10 11 12 13 13 13 11 10 9 9 7 11
15 11 12 12 10 1 -3 2 -5 -1 -5 -2 3 -6 2 4 7 13 12 7 6 11 19 20 15 17 11 10 2 4 17 6 4 0 -1 2 3 4 2 1 0 4 6 7 6 6 6 7 6 5 5 2 1 0
14 16 15 6 5 4 1 2 -2 -2 -5 -7 -0 -2 -1 6 9 13 9 9 15 14 15 10 4 0 0 -0 -1 -1 7 -0 5 17 19 21 20 18 8 -1 -1 0 1 -1 -3 -3 -3 -4 -4 -5 -5 -6 -6 -6

GFSWCAN_sfc_dewp_048.txt.gz
Dewpoint
51 50 49 49 49 49 48 47 46 45 45 44 45 45 45 44 43 38 36 37 31 27 28 30 30 26 25 24 21 24 29 30 32 29 29 27 26 25 23 24 25 26 24 24 26 25 18 28 32 27 28 33 35 35
51 50 49 49 49 49 48 48 47 46 45 44 45 45 44 43 43 38 33 37 36 29 29 32 32 32 31 29 27 25 25 31 31 32 31 30 28 29 23 22 25 24 25 24 26 24 27 28 32 33 34 35 35 36
50 50 49 49 49 48 47 48 48 47 46 44 44 45 44 43 42 39 35 35 32 28 26 27 27 29 31 32 32 24 28 28 30 32 30 32 28 30 24 24 23 25 28 27 26 28 29 30 31 32 33 34 36 37
49 49 49 48 48 48 48 48 48 47 46 44 45 45 43 43 41 39 35 35 33 29 25 25 30 30 31 31 32 31 30 30 31 29 24 26 27 31 27 28 28 30 31 28 27 28 28 31 31 30 28 35 36 37
49 49 48 48 48 48 49 49 48 47 46 44 45 44 43 42 41 39 37 36 35 28 25 25 29 30 29 31 32 32 31 29 28 26 26 23 25 26 27 27 25 25 25 25 25 28 27 26 28 25 32 36 36 37
49 48 48 48 48 49 49 49 48 47 45 45 45 43 43 42 40 34 30 33 37 34 25 22 29 28 29 28 29 29 31 31 30 28 27 28 28 28 23 21 24 26 21 22 22 22 24 24 27 30 35 35 35 37
49 48 48 48 49 49 49 49 48 46 45 45 42 43 44 42 35 30 28 32 39 33 26 21 22 28 30 31 32 31 31 30 29 29 28 26 25 30 28 22 21 23 27 33 34 30 29 30 33 36 36 35 37 36
48 48 48 48 49 49 49 49 47 45 45 43 42 42 41 41 37 32 36 39 36 30 26 13 15 24 33 29 31 34 32 31 29 28 28 28 28 26 21 23 28 32 34 33 32 33 33 35 35 35 36 35 34 34
48 48 48 49 49 49 49 48 47 45 43 43 43 41 35 32 28 30 38 39 35 29 21 18 20 14 29 28 32 35 32 25 29 27 27 26 24 24 30 31 33 34 34 33 34 35 34 34 34 36 36 36 35 35
48 48 48 48 48 49 48 47 46 43 45 44 35 29 27 31 37 37 32 29 28 28 26 18 27 21 27 26 27 31 31 27 20 26 28 26 25 27 29 32 36 34 33 33 31 31 33 34 34 34 34 37 37 36
48 48 48 48 48 47 47 45 43 45 40 33 30 29 32 37 32 28 22 21 23 18 27 24 22 19 28 19 23 30 29 29 20 27 26 25 25 28 32 34 34 33 31 31 34 35 36 35 33 33 34 37 37 36
48 47 48 47 47 46 45 44 45 37 35 33 33 34 31 27 22 14 12 18 19 15 25 23 25 27 27 30 32 29 27 29 21 29 26 22 25 27 33 34 34 32 31 30 31 32 32 35 34 33 34 34 34 35
47 47 47 47 46 46 45 44 40 39 36 30 28 22 23 18 9 -0 2 8 11 19 23 24 16 25 27 28 26 29 28 28 31 27 22 22 26 27 32 34 34 33 29 27 29 32 31 33 34 33 31 31 30 30
47 47 46 46 45 45 45 43 40 36 31 26 20 12 14 11 12 12 13 14 20 28 24 25 21 25 26 25 28 25 26 30 24 17 16 19 23 26 31 32 33 32 31 27 26 30 32 32 31 32 32 30 28 28
47 46 46 45 45 45 44 41 38 33 27 21 20 10 13 20 19 19 20 23 22 27 23 22 20 25 24 24 26 24 22 22 16 14 16 21 26 28 29 29 29 29 30 30 23 27 30 30 30 29 29 27 26 29
46 44 43 44 44 43 41 37 34 30 24 19 16 15 21 15 9 22 24 18 21 25 27 21 16 17 21 24 21 17 20 18 16 15 22 23 27 27 27 27 27 28 29 30 26 24 27 29 30 29 30 28 24 26
43 41 44 44 43 41 38 32 29 22 20 16 15 24 19 14 17 18 23 24 26 22 15 14 8 10 21 20 19 23 22 20 18 19 21 24 25 26 26 26 27 28 28 28 29 27 29 31 31 29 28 29 27 26
41 44 44 43 39 36 33 30 24 20 20 20 19 17 24 23 22 23 24 25 24 21 18 10 15 15 13 6 11 17 19 24 28 25 26 26 24 24 25 25 26 26 26 26 28 30 31 30 29 29 29 29 27 24
43 43 43 41 37 32 28 28 25 19 20 18 22 21 23 24 24 23 25 26 26 25 20 14 13 9 16 17 16 13 11 16 19 22 22 23 23 23 23 22 22 22 22 23 26 28 29 30 30 30 29 25 22 23
44 43 41 38 35 29 25 26 26 20 17 22 23 22 17 18 19 19 21 25 23 16 14 18 17 19 20 19 20 20 20 20 21 21 21 21 20 17 20 21 22 22 22 22 24 28 28 29 30 29 27 25 18 21
41 40 39 36 32 29 26 24 25 20 24 17 15 14 10 9 9 14 12 18 26 23 17 21 21 22 22 22 22 23 23 23 22 21 21 21 22 19 22 23 21 21 21 21 23 25 27 27 29 29 27 26 20 21
40 40 35 35 32 29 27 25 24 25 18 19 14 19 3 6 1 15 17 23 20 19 19 20 19 20 21 21 20 21 22 22 22 22 25 25 22 20 20 22 24 22 20 21 21 23 24 26 27 28 26 25 20 17
38 37 34 29 24 21 24 24 19 20 17 12 7 6 3 3 1 17 19 22 20 20 20 19 17 15 18 19 16 18 19 19 20 21 19 19 19 20 21 22 24 20 18 19 21 23 24 26 26 26 26 26 23 18
34 29 27 24 19 21 25 20 22 18 21 15 13 11 3 -2 11 10 13 11 14 18 17 13 13 15 16 14 15 18 19 17 18 18 20 20 19 20 19 19 17 18 20 20 21 22 23 23 25 24 21 20 23 21
23 23 21 22 18 16 19 19 19 17 16 17 14 9 3 8 1 2 8 10 6 12 13 12 12 15 16 16 17 18 19 19 19 21 22 23 21 19 19 19 18 19 20 18 19 20 20 20 20 21 20 18 16 16
16 24 12 12 12 13 14 11 10 13 11 1 7 1 -3 -1 5 8 8 8 11 11 12 15 17 16 17 19 19 19 19 20 18 18 21 21 20 18 16 17 18 18 18 19 20 19 19 19 19 19 19 19 22 18
15 20 22 22 20 17 14 12 11 8 0 6 3 5 1 2 4 10 12 11 12 15 15 17 18 18 19 19 20 20 20 14 18 21 21 15 18 18 19 18 18 19 18 17 18 18 19 20 19 19 19 18 16 16
16 19 18 19 16 14 10 7 6 7 9 10 9 5 5 7 9 13 14 14 16 12 10 12 14 17 18 19 20 20 20 12 6 9 12 14 15 14 13 14 16 23 22 18 19 21 22 21 21 19 18 17 17 13
16 20 22 18 9 9 9 11 12 14 15 13 11 9 9 12 10 9 13 12 2 4 12 18 20 13 14 11 11 15 15 7 8 11 11 13 13 12 2 6 10 13 12 12 19 21 22 22 21 20 20 18 17 12
17 19 14 15 14 15 16 15 10 7 12 14 13 12 12 12 13 10 9 9 11 18 21 20 20 9 18 17 20 17 10 11 12 14 12 13 11 5 8 10 10 11 9 11 13 15 21 20 20 13 10 10 11 11
16 12 9 10 11 10 5 2 3 14 4 1 -0 8 12 11 13 12 17 20 21 19 12 17 19 11 14 12 8 8 12 6 0 4 1 3 6 5 5 4 4 5 6 8 10 11 12 13 12 10 9 8 7 10
14 8 12 13 12 3 -2 3 -6 -2 -6 1 3 -6 2 5 8 13 12 6 5 7 18 18 13 16 9 12 6 6 18 4 1 1 0 3 5 7 6 2 -5 -3 -1 2 3 4 3 3 5 7 7 5 3 2
9 15 15 4 7 5 1 -1 -2 -3 -5 -7 -3 -4 -3 5 10 13 8 5 10 9 9 5 4 1 1 1 1 -1 6 -5 0 16 19 21 21 20 18 14 -1 -0 -0 -1 -3 -4 -4 -4 -4 -5 -5 -4 -4 -4

GFSWCAN_sfc_dewp_051.txt.gz
Dewpoint
52 51 51 50 50 49 48 47 46 46 45 45 45 44 44 43 42 38 36 36 29 28 27 29 30 25 24 23 24 24 28 29 31 30 29 27 26 24 22 24 25 26 25 25 27 25 18 27 30 28 30 33 34 34
52 51 50 50 50 49 49 47 46 46 45 45 45 44 43 43 42 38 34 37 34 30 29 31 31 31 31 29 26 25 26 31 30 33 31 29 28 28 23 21 25 24 26 24 25 23 27 30 30 32 32 31 32 34
51 50 50 50 49 49 49 47 46 46 46 45 45 44 43 42 41 38 35 34 31 29 27 28 27 29 31 31 32 23 27 28 29 31 31 32 27 29 23 24 24 26 29 27 27 27 26 26 31 28 26 24 29 36
50 50 50 49 49 49 49 48 47 47 45 45 45 44 43 41 40 38 35 34 31 29 25 25 29 29 31 31 32 31 29 30 30 29 25 27 26 29 28 28 27 29 27 25 24 28 22 26 24 24 26 26 34 35
50 49 49 49 49 49 49 49 48 47 45 45 45 44 42 41 41 38 36 35 34 30 26 25 28 29 29 31 32 31 30 28 27 24 25 24 25 24 24 24 22 25 20 19 19 23 23 24 25 28 26 30 35 35
49 49 49 49 49 49 49 49 48 47 45 45 44 44 42 41 39 33 29 33 36 32 27 23 28 27 27 29 30 30 30 30 29 27 27 28 28 28 23 19 23 25 24 23 27 31 33 32 30 28 32 35 35 37
49 48 48 48 48 49 49 49 48 47 45 45 43 43 42 41 37 31 29 32 37 32 27 21 20 27 31 30 31 30 30 29 28 27 27 26 25 29 28 21 22 27 32 33 33 32 31 32 32 34 35 36 36 35
48 48 47 48 48 49 49 49 48 46 45 44 43 43 42 41 38 33 36 38 34 28 25 11 13 23 30 28 30 33 29 29 28 27 27 27 28 28 22 23 28 32 35 33 32 33 33 33 35 33 35 37 36 34
47 47 47 48 48 49 48 48 47 46 43 44 43 41 35 33 29 31 38 38 33 28 19 17 9 9 28 27 30 34 29 24 28 26 26 27 26 23 27 29 30 33 34 33 32 32 31 31 33 35 34 35 34 36
47 47 47 48 48 48 48 47 46 45 44 43 35 29 29 32 37 37 31 28 27 27 26 18 27 17 24 25 26 29 28 27 16 25 29 26 25 27 27 29 33 34 34 32 29 28 31 31 32 33 33 34 36 37
47 47 47 47 48 47 47 46 45 45 41 34 30 30 33 37 32 27 21 20 23 18 26 22 20 18 27 19 21 28 26 24 14 21 25 19 22 26 29 32 33 34 33 32 30 29 30 33 31 32 32 34 34 35
47 47 47 47 47 47 46 45 45 38 36 34 34 34 31 27 21 14 10 18 18 15 25 23 25 26 26 29 28 30 24 27 13 25 21 17 22 25 27 30 31 31 31 31 29 27 28 30 32 33 33 32 31 33
47 47 47 47 47 46 45 45 40 39 36 31 29 24 24 19 11 -1 4 11 12 21 25 23 16 25 27 28 26 27 25 22 29 25 16 19 23 24 25 30 30 29 30 30 29 26 29 30 31 31 32 32 30 29
47 47 47 47 46 45 45 42 40 35 31 27 23 15 17 12 12 13 15 15 20 26 25 24 20 25 27 25 26 21 23 30 25 16 13 15 20 24 26 29 29 27 27 26 26 27 26 28 30 30 30 29 27 25
47 46 46 45 45 45 43 41 37 33 29 24 24 15 17 21 21 16 17 21 26 28 25 23 19 23 19 24 25 24 20 19 21 14 15 19 23 25 26 26 25 25 25 26 27 26 24 25 29 29 30 29 28 25
46 45 43 45 45 44 41 37 34 31 25 23 20 19 21 20 16 24 24 17 26 26 24 21 15 12 19 22 20 18 9 8 15 14 20 21 23 23 23 25 25 25 25 26 26 27 28 26 27 29 30 30 29 27
43 42 45 45 44 40 38 32 30 23 23 20 19 24 22 20 21 20 23 24 25 23 17 14 7 9 21 19 18 21 16 18 19 19 20 22 22 22 23 24 24 25 25 24 24 25 26 28 29 31 29 29 30 29
41 43 44 42 38 36 33 30 25 23 20 21 21 21 24 23 23 23 24 25 24 21 19 10 15 15 12 8 11 18 18 16 22 25 25 25 24 23 23 23 23 24 23 21 20 20 23 27 27 27 28 30 29 28
41 42 42 40 36 32 29 28 27 21 22 24 25 23 23 24 24 24 25 26 25 24 20 14 13 14 15 16 14 11 13 17 18 19 21 22 22 22 22 21 21 20 19 18 20 21 23 25 27 27 28 30 28 27
43 42 40 38 34 29 25 25 27 23 20 22 22 21 18 19 19 20 22 25 23 14 17 19 17 17 18 18 19 20 20 20 20 20 20 20 21 17 19 20 21 21 21 21 21 23 23 24 26 27 29 29 27 27
40 39 38 35 31 29 27 23 25 22 22 18 15 12 9 9 13 21 14 20 21 15 16 20 21 22 22 21 21 22 22 22 20 20 20 20 21 20 22 23 21 21 21 22 21 18 20 20 23 26 28 29 29 28
38 39 34 34 29 26 25 25 24 23 17 19 12 16 4 5 5 17 18 23 24 18 19 19 19 20 21 20 20 20 21 21 21 21 24 25 23 21 19 20 18 20 20 22 20 18 18 19 23 25 26 27 28 27
37 34 30 27 22 22 24 26 20 17 17 15 8 6 2 4 2 16 17 17 18 19 19 19 16 14 18 18 15 17 17 17 19 20 21 21 22 21 21 21 20 20 20 20 19 19 20 22 22 23 25 26 27 25
33 28 24 19 21 22 23 21 20 16 14 11 13 11 5 -0 9 11 12 8 14 17 15 11 12 15 14 13 14 18 18 16 18 17 20 19 20 20 21 20 20 19 19 19 19 20 20 20 23 22 23 22 23 24
22 21 20 19 18 16 19 17 11 14 16 16 14 13 5 7 1 5 8 9 4 11 12 11 11 14 15 16 16 18 19 17 17 18 18 20 20 21 21 20 19 19 19 16 16 19 18 15 17 19 19 19 20 22
17 20 15 18 14 14 14 12 10 10 15 12 9 0 -4 -1 6 7 8 8 11 11 12 13 15 15 15 17 18 18 19 18 16 16 20 19 18 17 17 17 18 19 16 14 15 18 19 17 18 18 19 19 22 24
16 19 22 22 18 16 14 12 11 9 4 8 3 1 -1 1 1 9 12 11 12 14 14 16 16 16 17 18 19 20 19 13 17 20 20 16 18 18 18 17 17 18 17 18 18 19 20 20 20 20 20 20 18 18
17 19 17 17 15 13 9 7 6 6 7 9 8 3 5 6 8 13 14 13 14 9 9 11 12 14 15 18 19 19 19 12 6 10 12 13 11 8 7 7 9 20 20 14 15 16 17 18 19 20 21 20 21 16
17 20 20 13 11 9 7 9 10 12 14 11 9 7 8 11 10 9 13 11 2 4 11 17 17 9 9 10 12 14 14 6 8 9 8 12 9 9 -1 2 6 10 10 10 16 18 17 18 19 21 22 21 18 16
17 19 16 10 12 13 12 11 7 4 11 13 12 11 11 11 12 9 9 9 12 18 20 15 13 8 16 12 17 15 9 10 12 14 11 13 11 2 -0 2 4 4 4 5 6 9 18 16 18 20 17 11 10 10
16 12 8 7 7 4 1 -0 -0 12 1 -1 0 7 11 8 12 11 15 19 17 9 9 16 14 4 7 7 5 5 12 7 -0 4 6 3 2 2 3 3 2 -2 -2 1 3 4 3 9 10 11 11 7 6 9
13 7 13 13 9 0 -4 -0 -8 -2 -7 -0 3 -3 2 3 6 13 9 5 5 7 16 11 6 12 7 3 2 5 17 9 2 0 -1 1 1 4 8 11 10 -4 -3 -2 -4 -4 -4 -5 -2 2 5 3 2 2
13 15 10 3 7 3 1 -2 -3 -3 -5 -7 -5 -6 -7 1 8 12 5 -1 4 4 3 2 2 1 2 1 -0 -2 5 -6 2 16 18 20 21 20 21 13 10 5 4 1 -2 -3 -3 -3 -3 -3 -4 -5 -5 -5

GFSWCAN_sfc_dewp_054.txt.gz
Dewpoint
48 50 52 51 51 51 50 49 47 46 46 46 45 44 43 42 41 38 38 37 32 28 30 31 30 26 24 23 30 25 30 32 34 32 31 30 27 27 26 26 27 26 25 25 26 24 20 25 30 28 28 25 23 24
48 51 52 51 51 50 49 49 47 46 46 46 45 44 44 42 41 39 36 37 34 31 29 32 32 32 31 29 26 29 31 31 33 33 31 31 29 29 26 22 27 26 27 26 26 25 28 24 30 27 27 27 26 26
48 52 51 51 50 50 49 48 48 47 46 46 45 44 43 42 40 40 38 36 37 33 29 28 28 30 31 31 32 24 28 29 30 32 33 31 28 30 26 27 29 29 28 27 25 28 26 26 30 27 27 29 29 31
48 51 51 50 50 49 48 48 47 46 46 46 45 43 42 42 41 39 37 36 37 34 28 27 29 30 31 32 32 31 30 31 31 31 28 31 28 30 28 28 26 26 22 21 20 23 26 27 28 29 31 31 30 34
48 51 50 50 49 49 48 48 47 47 46 45 44 43 42 42 41 39 39 38 36 35 29 28 29 29 29 32 32 31 30 29 29 29 29 26 27 25 24 24 22 22 26 26 23 26 27 28 31 33 32 31 32 33
51 50 50 49 49 48 48 48 47 47 47 45 43 42 42 41 38 35 33 37 38 35 34 28 30 29 31 31 31 30 31 31 30 28 28 28 28 29 22 16 23 24 27 30 28 30 31 32 32 32 31 33 34 35
50 50 49 49 49 48 48 48 47 47 47 45 43 42 42 41 40 33 32 36 38 35 33 28 29 28 34 33 33 32 32 32 30 30 28 26 26 30 27 20 25 29 32 33 33 32 31 33 33 33 34 35 36 35
50 49 49 49 49 49 48 47 47 47 45 44 43 42 42 41 39 35 38 38 35 32 29 27 24 27 30 31 29 34 31 30 31 29 29 27 28 28 24 26 26 30 32 33 32 32 31 31 32 32 33 34 33 34
49 49 48 49 49 48 48 47 47 46 45 44 43 40 37 35 33 36 40 38 36 34 27 25 25 23 29 29 32 33 31 27 30 27 26 28 27 26 26 26 28 30 31 32 31 31 28 27 30 32 32 34 33 34
49 48 48 48 48 48 47 47 46 46 45 43 36 31 32 34 37 38 34 31 33 32 30 26 28 25 28 28 29 30 31 28 27 26 29 26 26 28 27 28 32 33 32 32 30 29 28 28 28 29 30 31 33 33
48 48 48 48 48 47 46 46 46 44 40 35 31 32 34 37 33 29 27 28 24 25 29 27 27 26 30 27 27 30 27 28 25 27 26 26 25 26 29 31 32 31 31 32 32 32 31 27 27 29 29 31 30 30
47 47 48 47 47 46 45 45 44 39 37 35 36 35 32 28 27 23 19 22 21 22 29 28 28 28 29 32 29 30 27 28 22 28 26 23 28 26 26 28 31 31 30 29 29 29 29 29 27 28 29 30 31 30
47 47 47 47 46 45 45 44 40 40 37 34 31 29 28 23 18 17 13 19 23 27 28 27 25 28 29 30 28 27 26 25 29 26 23 25 25 23 23 26 29 33 31 29 27 28 28 29 30 29 29 30 31 29
47 47 47 46 45 45 44 42 40 36 33 31 29 19 23 21 17 18 21 24 24 27 26 25 26 27 27 27 27 23 24 29 24 23 23 25 26 24 25 26 27 25 25 27 29 29 29 29 29 30 31 30 30 28
47 46 46 45 45 44 43 41 36 34 32 27 29 19 22 22 23 23 24 27 28 28 27 26 26 25 25 23 23 23 20 19 22 23 25 27 25 24 23 22 23 23 23 24 25 26 28 28 28 28 29 30 31 30
46 46 44 45 44 43 40 37 34 32 28 28 25 22 23 24 23 26 25 25 28 27 26 25 23 21 21 23 20 19 18 17 23 26 27 24 22 23 22 23 23 23 23 23 23 23 23 24 25 28 29 29 31 31
44 42 45 44 43 40 38 34 32 26 26 26 24 26 26 27 26 25 23 24 27 27 25 23 17 16 22 20 19 21 21 25 28 27 25 24 24 24 25 24 23 23 23 23 23 23 24 24 25 28 27 27 28 31
42 44 44 41 38 36 33 31 28 27 22 23 26 25 23 23 23 23 25 26 27 24 23 22 21 19 17 15 17 22 26 28 26 27 28 27 23 23 25 23 23 23 24 25 24 24 24 24 24 24 27 28 27 29
42 42 41 40 36 33 30 29 29 23 24 26 26 25 25 24 25 26 27 27 25 24 23 22 19 20 19 20 22 23 22 22 20 20 21 21 22 22 24 25 24 24 24 24 23 22 23 23 23 23 25 27 26 28
43 42 40 37 34 30 27 27 30 25 23 24 25 23 21 22 21 24 26 26 26 25 24 22 20 18 18 20 23 24 23 22 21 19 19 19 21 23 24 24 23 25 23 23 23 24 23 22 20 22 24 25 26 27
40 38 37 34 31 29 27 25 24 24 23 20 20 18 17 18 22 24 24 24 26 24 24 24 23 23 22 22 22 22 22 22 21 20 19 21 21 23 24 25 26 22 21 21 20 20 21 19 18 19 21 23 26 28
37 37 34 33 29 28 26 25 24 22 20 19 19 17 17 18 18 20 21 26 26 25 24 23 23 23 23 22 22 23 22 21 22 22 24 24 23 23 23 24 24 24 24 24 23 21 20 19 19 20 22 23 26 27
36 33 30 29 25 25 24 26 21 19 18 17 15 15 12 13 12 18 19 20 22 23 23 23 22 21 22 22 19 20 20 21 20 20 20 21 22 23 24 23 23 24 23 23 23 22 21 21 21 20 22 23 23 25
33 28 23 22 24 23 24 22 20 19 17 16 15 15 12 11 12 16 16 16 17 18 19 20 20 21 19 17 18 19 21 20 21 20 20 20 21 19 19 20 20 21 23 22 22 21 21 19 21 20 20 21 22 22
23 22 22 19 21 20 19 17 15 15 14 14 11 14 10 10 12 14 14 17 14 16 17 16 16 18 18 17 18 19 21 21 21 20 21 21 20 20 21 22 21 20 22 23 21 20 20 20 20 20 20 20 21 22
18 21 17 17 17 16 16 14 13 15 14 11 9 4 5 10 14 13 14 16 16 17 18 17 17 16 15 17 18 18 19 22 21 19 21 22 22 22 22 21 20 20 19 20 20 19 19 20 20 20 20 20 22 22
14 18 21 21 18 16 15 15 13 12 8 10 7 6 9 7 9 13 15 15 17 20 19 21 20 20 20 20 20 21 21 20 21 22 21 21 21 21 22 20 19 19 19 20 20 19 17 17 18 18 18 19 21 21
19 20 17 18 16 16 14 13 11 10 12 11 11 9 10 11 12 17 17 19 19 16 17 16 16 18 19 19 21 20 20 18 15 16 17 18 18 18 16 17 16 19 19 16 17 17 16 16 17 17 17 18 20 22
19 21 20 15 16 15 14 14 14 14 14 14 13 11 11 13 15 15 18 16 10 14 16 18 20 16 17 16 16 17 17 16 15 14 14 15 16 17 11 12 12 12 12 12 16 18 17 19 21 21 22 21 22 20
20 21 17 14 14 13 14 13 12 11 13 14 14 13 13 14 16 14 14 14 15 18 21 19 18 16 19 16 19 17 16 15 16 18 16 16 17 13 11 11 12 12 9 9 9 10 15 17 17 18 20 20 18 15
18 17 13 12 11 8 6 4 5 12 5 5 5 11 13 11 14 15 15 16 16 13 15 19 15 11 14 14 12 13 15 14 7 9 12 14 13 10 11 11 12 11 8 8 8 8 7 9 10 10 12 12 12 13
16 12 15 14 12 5 3 4 2 3 0 7 8 5 5 9 10 16 11 10 10 11 14 10 10 13 10 10 8 9 16 12 8 6 4 7 8 10 11 12 16 15 10 9 8 7 6 5 7 6 7 6 5 4
14 9 8 9 12 8 5 4 1 1 1 -2 1 -2 -2 5 10 14 7 3 8 10 9 8 7 5 3 1 2 3 7 2 3 16 18 19 20 20 22 21 18 12 11 11 9 6 4 3 4 3 3 2 2 3

GFSWCAN_sfc_dewp_057.txt.gz
Dewpoint
44 45 45 48 50 52 51 51 50 48 47 46 46 45 44 42 41 39 37 37 33 28 30 30 29 26 26 26 30 28 31 33 34 33 32 29 26 26 25 26 26 26 25 24 24 24 20 25 30 27 28 28 28 28
45 44 45 47 52 52 51 50 49 48 47 46 45 44 43 42 41 39 34 34 34 31 31 32 31 31 31 30 28 32 32 32 34 33 31 31 28 28 25 22 27 25 26 25 25 26 28 25 26 28 28 27 29 29
44 44 45 47 52 51 51 49 48 48 47 46 45 45 42 42 40 40 39 36 33 30 29 28 28 30 31 31 32 29 30 31 32 34 33 31 28 30 24 24 27 29 27 27 25 28 28 24 27 28 29 31 31 31
44 44 45 47 50 51 50 49 48 48 46 45 45 44 43 42 40 39 35 37 38 31 28 28 30 29 31 32 32 31 31 31 31 31 31 32 29 30 27 27 26 25 22 21 20 19 25 26 28 30 32 32 31 31
45 44 45 51 50 50 49 49 48 47 46 45 44 44 42 41 41 40 39 38 36 36 27 28 29 29 30 31 30 30 29 29 28 30 30 27 27 26 23 22 19 20 22 21 21 28 27 27 30 32 31 30 31 32
44 43 45 50 50 49 49 48 48 47 46 45 43 43 42 41 39 36 34 38 37 39 35 28 31 32 30 30 30 30 31 29 30 29 28 28 28 29 24 17 22 24 27 29 29 33 33 32 32 31 32 32 34 35
44 44 47 48 49 49 48 47 47 47 46 43 42 42 42 42 40 35 35 37 37 38 33 30 30 30 33 33 33 32 32 31 30 31 29 26 27 30 27 21 21 26 30 31 32 33 30 30 29 30 31 31 33 33
43 46 48 49 49 48 48 47 47 46 45 43 42 42 41 41 40 34 36 37 37 33 33 32 28 28 31 31 30 33 30 31 31 30 30 28 29 29 26 26 25 26 28 29 30 30 29 30 28 27 29 31 31 31
45 47 49 48 48 48 47 47 46 45 44 43 41 39 40 36 34 36 40 37 39 37 33 32 29 25 30 31 33 32 31 29 30 28 27 28 27 27 26 24 23 26 28 28 29 30 29 27 27 27 26 28 29 31
47 49 48 48 48 47 47 46 46 45 44 40 36 34 34 35 39 39 36 34 35 34 32 28 30 27 29 29 29 29 30 28 28 27 29 26 26 28 26 25 26 27 27 28 28 29 30 31 29 27 25 27 28 29
47 48 48 48 47 47 46 46 45 44 39 35 33 33 36 38 35 30 31 32 26 30 29 28 29 26 30 29 28 29 27 28 26 28 27 27 24 24 25 25 27 26 26 26 26 27 27 27 27 27 26 26 28 29
48 48 47 47 47 46 46 45 44 39 38 38 37 37 34 30 31 29 24 27 27 25 29 28 27 28 29 31 27 30 27 27 24 29 26 24 28 24 22 25 24 25 26 24 23 22 23 24 25 27 27 28 29 30
48 48 47 47 46 46 46 44 40 41 38 36 35 34 32 26 25 27 19 23 26 29 29 28 27 28 29 30 27 27 26 24 30 26 23 26 23 19 20 22 23 32 32 29 25 25 26 26 28 28 27 28 28 29
47 47 47 46 46 45 44 42 41 37 37 36 33 21 30 24 23 27 27 31 29 31 29 28 28 28 27 28 26 24 23 28 23 21 22 24 23 20 20 21 21 19 22 27 28 29 29 29 29 29 29 29 27 27
47 47 46 45 45 43 43 41 36 37 36 33 35 23 24 24 26 27 30 30 29 30 29 28 28 26 26 25 23 24 21 19 21 21 28 28 22 21 20 20 20 20 20 22 22 25 28 28 28 27 27 26 26 27
46 46 44 45 44 43 39 37 37 34 34 33 28 23 24 27 26 28 30 28 29 28 28 29 26 23 23 24 21 21 19 19 24 31 29 21 21 22 22 22 23 22 22 22 21 21 22 22 23 24 25 25 26 28
44 43 45 43 42 40 38 37 36 31 32 32 27 27 31 29 30 28 25 24 28 28 28 27 21 20 24 22 20 21 22 27 30 30 29 27 27 26 24 23 24 24 23 24 23 24 25 25 26 26 25 25 25 27
42 44 43 41 37 36 34 35 33 31 24 27 28 26 23 25 24 23 25 27 29 26 28 27 24 22 20 18 19 25 29 33 30 28 26 25 23 22 24 23 24 24 25 26 27 27 26 26 26 25 24 24 24 26
43 42 40 38 36 36 33 31 33 25 26 27 27 26 26 25 27 27 27 26 26 25 27 27 23 23 21 23 27 30 30 27 20 19 19 20 21 21 24 26 26 26 26 27 27 24 24 24 23 23 23 23 22 23
42 40 39 37 36 33 30 28 33 28 26 25 27 25 24 24 25 28 27 27 28 31 27 25 22 22 20 24 29 28 28 25 21 18 18 18 19 25 27 27 25 26 26 26 25 25 23 22 22 21 20 20 20 20
39 37 37 35 33 30 28 27 25 26 25 23 23 23 22 26 26 27 28 28 30 28 27 26 24 24 24 22 22 24 23 23 20 19 17 20 21 23 25 26 28 24 22 21 21 21 22 20 21 21 20 19 21 22
37 38 35 34 30 29 26 26 25 23 22 22 23 24 24 24 23 24 25 28 28 29 27 25 25 26 26 25 25 25 24 23 22 22 23 24 23 24 24 25 26 26 26 26 24 23 22 22 21 20 20 20 22 23
36 34 32 32 27 26 24 28 24 23 22 20 21 21 19 19 18 20 22 24 26 26 26 26 27 25 25 26 23 24 23 23 20 20 20 21 21 24 25 25 24 26 25 24 24 23 23 23 21 20 20 20 20 20
32 28 25 26 26 23 25 22 22 21 21 21 20 17 16 16 17 19 19 22 22 21 22 24 23 23 23 22 21 22 25 24 22 23 22 21 23 21 20 20 19 21 23 23 23 23 23 20 21 19 19 21 21 21
28 23 26 20 24 23 21 20 20 19 18 18 16 15 14 13 17 17 18 24 22 20 22 21 21 22 21 21 22 22 25 23 23 21 23 24 22 21 22 23 22 21 23 25 23 22 21 20 20 20 20 20 20 20
19 21 21 20 19 20 20 18 18 18 17 15 12 10 12 16 16 17 20 24 20 22 22 20 19 18 18 20 20 21 23 26 24 21 21 24 24 23 24 22 22 22 21 21 21 20 19 19 18 17 17 18 21 19
19 20 21 19 18 17 16 16 16 17 15 13 12 11 14 14 15 19 20 21 22 27 27 28 25 24 23 25 24 23 24 25 24 23 23 24 24 23 24 23 21 22 20 20 20 19 17 16 16 16 17 18 18 19
21 22 19 19 17 18 17 16 17 17 16 14 14 13 14 15 16 23 24 27 26 26 26 24 23 25 25 25 25 24 24 24 22 21 21 22 22 23 22 22 21 20 20 19 18 18 18 17 16 16 17 17 18 20
21 21 21 18 18 19 18 18 18 17 15 17 19 16 16 18 23 23 24 23 21 23 25 26 28 24 24 24 23 23 23 22 19 15 15 16 19 23 17 17 18 17 17 16 18 19 18 18 19 20 20 21 23 24
21 23 19 18 19 19 17 14 17 17 16 17 16 17 17 19 23 23 22 22 22 24 27 27 27 24 24 23 23 21 23 22 20 19 18 18 19 19 17 16 16 17 16 15 14 14 17 16 16 14 14 16 18 18
20 21 19 18 15 13 11 8 12 13 13 15 13 18 19 16 19 22 19 20 21 23 23 24 23 21 20 20 20 18 17 18 10 11 13 14 14 15 15 15 15 16 16 14 13 12 11 10 11 11 10 8 8 11
19 18 19 16 14 11 10 12 13 14 13 16 16 12 15 17 17 23 16 17 21 22 20 19 19 19 16 14 13 12 14 12 10 10 8 11 13 15 16 16 18 19 17 14 13 12 10 7 8 8 8 6 5 4
18 17 16 15 15 14 13 13 13 13 12 13 12 8 9 11 14 19 13 11 15 18 17 16 15 12 9 5 7 7 9 7 6 16 18 19 20 21 22 22 21 18 15 14 13 11 6 4 4 3 3 2 2 2

GFSWCAN_sfc_dewp_060.txt.gz
Dewpoint
43 41 42 43 45 46 46 51 51 50 49 48 46 44 44 43 42 41 38 38 36 30 30 31 30 28 29 29 30 29 32 33 34 32 31 29 27 26 26 28 26 26 24 24 26 25 19 26 29 26 27 28 28 29
42 41 42 44 45 45 46 48 51 49 49 48 46 44 44 43 42 42 35 36 36 33 31 31 30 31 31 31 30 33 32 33 34 32 31 31 28 28 26 23 28 25 28 27 26 27 27 26 25 28 29 30 31 31
42 41 42 45 45 45 46 52 50 49 48 47 45 45 43 43 42 40 37 37 36 31 30 29 28 31 32 32 32 30 31 32 32 33 33 31 29 30 25 26 26 29 26 27 24 28 26 25 29 30 31 31 31 32
42 41 42 44 45 46 51 50 49 48 47 46 44 43 42 42 41 40 38 39 39 34 28 28 30 29 31 33 32 32 32 32 32 32 31 31 28 30 27 27 27 25 23 22 21 27 27 28 29 31 31 31 31 33
41 41 43 44 45 46 46 50 48 48 47 46 45 43 43 43 41 40 39 38 38 36 29 28 30 31 31 31 30 30 30 30 30 30 29 27 27 26 23 22 20 21 22 21 25 30 30 29 31 31 30 30 31 31
41 42 44 44 44 45 49 49 49 48 47 46 45 43 43 43 42 40 36 39 38 40 33 28 32 31 31 31 31 30 31 30 30 30 28 27 28 29 23 19 22 26 27 29 28 31 33 32 31 30 29 30 31 32
41 42 44 44 46 50 49 49 48 47 46 45 44 44 42 42 40 37 35 37 37 39 32 28 27 31 33 33 33 32 32 31 31 30 28 27 27 29 27 23 23 25 30 30 32 31 29 29 29 29 28 29 31 31
42 43 43 44 49 49 48 48 47 46 45 43 43 43 41 41 40 35 36 37 38 35 36 26 23 27 31 29 29 33 30 31 31 29 29 27 28 28 25 26 26 27 28 29 29 29 29 29 28 27 27 27 27 28
42 44 43 46 49 48 48 47 45 45 44 44 44 42 40 37 35 35 39 39 40 37 28 30 24 20 30 30 32 31 31 28 30 28 27 28 27 23 28 27 24 27 27 28 29 29 28 28 29 29 27 26 25 26
43 43 45 47 48 48 48 46 45 44 44 43 39 36 34 35 40 40 37 34 33 33 33 25 29 22 29 29 28 29 30 28 26 28 29 26 26 29 25 26 27 27 27 27 25 25 26 25 27 26 26 26 26 26
43 43 47 47 47 47 46 46 45 44 42 37 34 33 37 38 36 33 30 27 29 27 29 28 28 24 30 27 26 30 26 27 24 28 25 26 24 26 26 26 26 26 25 25 24 24 24 24 24 25 25 26 27 28
43 45 47 47 47 46 46 45 44 39 38 38 37 37 35 32 32 25 24 26 26 22 28 27 27 28 29 31 28 29 24 27 23 29 25 22 28 23 24 24 24 26 26 26 25 24 23 23 25 26 27 27 28 28
44 48 47 47 47 46 45 44 42 41 38 37 34 29 30 27 24 19 14 20 22 27 27 26 24 28 29 29 27 26 21 22 28 25 22 26 24 20 20 21 21 25 27 28 26 26 26 26 28 28 27 26 26 26
46 47 47 46 46 45 45 42 42 39 37 33 27 14 23 21 26 29 28 28 29 29 30 28 25 26 28 27 25 17 25 26 21 15 15 21 22 19 19 20 20 19 20 22 23 25 25 26 26 27 27 27 27 27
47 46 46 46 45 45 43 43 41 36 35 28 30 17 25 26 27 29 27 28 30 30 28 27 26 26 23 22 24 22 16 12 17 17 22 23 23 21 20 21 21 21 21 21 22 21 21 23 23 24 25 25 25 24
46 46 44 46 45 43 42 38 36 34 32 29 26 22 25 25 26 27 27 27 30 29 28 28 22 17 19 21 16 13 14 12 16 22 25 21 20 24 24 24 22 22 23 23 22 22 22 22 22 22 24 24 24 24
45 43 45 45 43 42 39 36 34 28 27 27 25 27 29 28 28 29 26 26 29 28 24 24 12 15 21 16 16 20 15 20 24 24 25 25 24 24 24 23 23 24 24 24 24 24 24 25 24 23 22 22 24 25
42 45 44 43 38 36 34 34 30 26 23 26 26 27 25 26 25 25 27 28 29 27 27 20 22 15 14 11 16 21 23 23 25 25 24 24 23 21 22 22 23 23 23 22 22 22 22 22 22 23 23 23 22 23
43 43 42 39 36 35 30 29 31 23 26 27 28 28 27 27 28 27 26 25 26 26 25 22 15 15 19 21 21 21 22 23 22 20 20 20 21 21 22 22 22 22 22 20 23 24 24 24 24 24 24 24 23 21
43 41 39 38 37 32 27 27 32 27 25 25 27 24 24 25 27 27 27 27 28 25 19 16 20 23 22 24 25 24 24 25 23 20 19 20 20 18 21 22 24 23 23 22 22 24 22 21 21 21 22 21 20 19
39 37 36 35 33 30 28 27 24 26 25 22 24 24 24 27 27 27 24 25 22 18 19 24 23 23 22 22 24 23 23 23 21 20 18 18 21 21 21 22 22 24 23 22 21 21 23 21 21 22 21 20 20 20
36 37 34 34 30 28 25 26 24 24 23 23 23 23 20 18 19 20 24 20 18 22 24 24 24 25 24 22 23 23 23 22 22 22 24 24 22 20 22 23 20 21 20 21 23 23 23 22 22 21 21 20 21 20
35 33 32 31 27 25 23 28 22 23 22 20 21 16 13 11 13 18 15 18 20 23 24 23 21 20 22 21 19 20 20 20 20 20 20 21 21 22 23 23 22 21 22 22 22 21 20 23 22 21 19 19 19 19
33 28 26 26 25 23 25 21 23 23 24 22 18 10 9 9 14 11 13 17 21 21 20 17 19 20 20 19 18 20 20 19 18 20 21 21 20 20 21 21 20 20 21 21 19 19 19 22 22 19 18 18 19 18
28 24 25 20 25 21 20 20 20 21 18 18 13 9 7 10 8 8 12 18 17 17 18 19 19 20 20 19 19 20 21 21 19 20 20 22 21 21 21 20 22 22 21 15 17 15 14 15 15 16 16 16 15 17
21 22 22 20 19 20 20 19 19 18 18 15 8 8 8 9 7 9 16 16 17 18 20 19 19 18 18 20 19 19 20 20 18 17 18 20 20 19 16 17 19 19 17 15 13 12 13 14 15 13 14 14 19 17
19 20 20 19 20 19 18 18 18 19 16 11 11 10 9 6 8 15 17 17 17 19 21 22 21 20 19 20 21 21 20 16 17 19 18 18 19 20 18 19 17 18 16 15 13 13 14 14 14 14 14 14 14 15
21 21 18 20 19 20 18 18 17 17 17 16 15 9 10 11 13 16 17 19 19 17 17 17 18 18 17 17 17 18 15 14 13 14 15 17 17 12 11 11 11 20 15 12 12 10 12 13 14 15 14 16 17 18
21 21 22 19 19 19 18 18 18 17 16 18 15 13 13 16 17 16 17 16 14 15 16 16 16 12 13 14 13 12 12 11 10 8 6 11 10 10 7 7 9 11 9 8 18 19 16 17 19 19 15 13 14 17
21 23 19 19 19 17 15 14 17 17 16 15 15 15 15 15 15 15 14 13 12 13 13 13 12 11 10 10 9 10 10 9 9 10 7 11 9 10 11 9 9 6 5 8 8 8 16 9 9 4 5 4 6 9
22 22 18 16 13 12 11 11 13 14 13 11 9 11 11 9 13 13 11 11 10 9 10 9 8 6 7 7 6 5 7 4 2 3 3 5 7 8 9 9 9 11 14 11 10 9 7 4 -1 2 2 0 -0 5
19 18 18 15 14 13 13 14 14 13 9 8 6 4 8 11 10 14 10 8 8 9 14 9 7 8 5 4 3 3 13 3 1 1 -0 5 7 10 12 14 15 16 14 10 8 8 6 2 -0 -1 1 -1 -1 -1
18 17 17 15 14 12 13 13 10 7 5 4 4 2 2 5 8 12 7 4 7 7 6 5 4 3 3 0 0 0 6 -1 3 15 17 18 20 20 21 17 15 15 11 9 7 5 1 -3 -4 -3 -1 -1 -1 -1

GFSWCAN_sfc_dewp_063.txt.gz
Dewpoint
45 44 44 43 43 42 44 47 47 51 50 49 49 48 46 49 49 37 35 37 33 29 29 31 31 29 29 30 30 29 31 32 34 30 29 27 26 25 25 28 26 25 22 24 25 26 21 26 27 26 27 29 31 31
45 44 44 43 43 42 45 46 47 47 50 49 48 45 45 49 44 39 33 34 34 31 29 31 31 31 31 31 31 32 31 32 33 32 30 29 27 27 25 23 27 24 26 26 25 25 26 27 30 31 31 31 31 31
44 43 44 43 42 42 46 45 47 49 49 48 47 45 45 44 42 39 35 35 33 29 28 28 28 30 31 32 32 30 31 32 32 33 32 31 28 29 24 25 25 27 26 27 25 25 25 30 31 31 31 31 31 31
44 44 44 43 42 44 44 46 50 49 48 48 47 45 44 44 42 39 35 38 34 31 25 26 30 29 31 32 31 31 31 31 32 32 31 29 28 30 27 27 27 28 23 22 22 28 28 30 31 31 31 31 31 31
44 44 43 42 42 44 45 50 49 48 48 47 47 45 44 43 42 39 38 37 37 30 27 27 30 31 31 31 31 31 31 30 30 28 26 26 26 25 23 21 21 23 22 20 19 29 28 29 31 30 29 29 31 31
44 43 42 42 44 44 45 46 49 48 48 47 45 44 44 43 41 36 29 34 37 35 29 25 32 32 33 32 32 31 31 31 30 28 26 26 28 27 20 19 21 27 29 29 29 31 32 32 31 30 29 29 30 31
44 43 42 42 44 44 45 45 49 47 47 46 44 45 45 42 38 34 29 33 38 37 29 25 24 30 32 33 33 32 31 31 30 28 27 26 27 28 26 22 23 26 29 31 32 29 28 29 27 29 27 27 29 29
43 42 42 44 44 43 46 48 48 48 47 45 44 44 42 41 38 31 34 38 38 34 30 18 19 25 30 29 28 32 29 30 29 28 28 26 27 27 23 26 26 28 29 30 29 29 29 29 28 28 29 27 26 25
44 43 44 43 45 49 48 48 47 46 46 45 44 43 38 36 30 30 37 39 38 29 25 22 19 16 29 30 31 30 30 26 29 27 27 28 26 21 25 27 26 27 27 27 28 28 28 27 27 28 27 26 25 26
44 44 43 44 48 48 47 47 46 46 45 45 40 34 31 34 39 40 34 28 30 30 27 21 22 18 27 29 28 29 29 29 19 27 28 26 25 28 26 27 28 27 27 26 23 22 23 23 24 24 24 25 26 26
44 44 43 45 47 47 46 46 45 44 44 36 33 32 36 38 35 31 27 24 26 21 26 25 22 22 29 23 25 29 26 27 23 25 24 24 24 25 26 26 26 25 25 25 24 24 23 23 23 23 24 25 26 26
44 44 44 44 47 46 46 45 43 38 36 36 35 36 34 30 29 20 21 23 22 20 25 24 26 27 28 29 26 28 22 25 22 29 25 22 27 24 23 23 24 25 26 24 25 25 24 24 24 25 26 26 26 26
44 44 45 47 46 46 45 43 41 43 38 37 30 25 22 20 14 3 13 17 17 24 24 24 22 27 28 28 26 22 17 18 27 25 19 22 25 21 20 21 21 22 22 24 23 23 24 24 25 26 26 26 26 25
44 45 47 46 46 45 43 43 43 38 36 28 20 11 12 10 19 25 21 20 24 24 26 26 25 26 27 24 24 13 25 24 13 9 14 19 21 19 19 20 20 19 20 21 20 22 23 23 23 24 26 26 25 24
44 47 46 46 45 43 42 44 39 34 31 23 19 4 17 25 27 24 21 25 25 28 27 25 25 24 21 20 23 19 14 7 14 15 18 20 22 21 20 20 20 21 21 22 22 21 19 20 21 22 23 23 23 23
47 46 44 46 45 43 43 39 34 33 29 23 19 17 25 25 25 22 22 25 25 28 26 25 20 16 18 19 13 10 11 9 14 17 22 22 20 22 24 24 23 22 22 23 23 23 23 23 22 22 23 23 23 23
45 43 45 45 43 43 40 34 31 25 21 17 19 27 27 27 26 25 26 26 28 27 20 19 10 12 20 13 14 17 12 16 20 21 22 23 23 23 23 22 21 21 22 22 22 22 22 23 22 19 20 22 23 23
42 45 45 44 39 36 32 30 25 20 19 22 22 22 26 26 25 25 26 27 27 25 23 15 19 11 10 7 12 19 19 18 21 23 23 24 23 21 21 20 20 21 22 19 18 17 16 19 20 22 22 23 23 23
43 44 43 40 35 31 25 24 26 21 24 23 25 27 27 27 26 26 25 25 26 26 24 17 12 11 16 18 17 14 15 21 21 19 21 21 20 20 21 20 21 19 19 18 20 22 23 23 23 23 23 23 22 21
44 43 39 39 36 29 22 23 28 23 18 24 24 23 25 26 25 23 23 26 26 19 15 12 13 17 20 21 22 22 22 24 21 18 18 18 19 17 19 20 21 21 21 19 21 25 23 21 21 21 21 22 22 20
42 39 36 33 29 27 24 19 21 21 23 21 24 24 24 23 20 17 16 24 19 14 14 21 21 22 22 23 25 24 24 23 21 19 15 17 18 19 20 20 19 22 21 23 23 22 23 22 22 22 22 21 21 20
37 36 33 33 27 24 22 25 22 24 22 22 22 23 19 14 17 19 20 15 12 19 20 20 20 22 21 20 21 21 22 22 22 22 24 24 22 19 19 21 18 20 19 20 21 21 22 23 23 22 21 20 20 18
35 33 32 30 24 21 20 26 21 20 20 18 20 18 14 7 10 14 11 12 16 18 21 20 17 16 19 18 17 18 18 19 20 19 19 20 20 21 20 21 20 19 20 21 20 21 20 23 23 22 19 18 17 17
33 29 26 25 23 20 21 15 21 21 23 22 18 14 14 8 9 8 9 13 18 19 18 14 16 18 18 17 16 18 19 18 16 16 19 18 16 18 19 20 20 20 20 21 20 18 16 20 21 18 17 15 15 14
30 25 24 18 20 16 15 13 16 19 18 19 16 14 12 8 6 5 9 14 11 14 15 15 15 17 17 16 16 18 18 18 16 17 17 17 18 19 20 19 20 21 19 13 16 13 12 12 13 13 13 12 12 14
21 21 19 16 14 14 15 15 17 18 18 16 13 11 8 8 7 5 11 13 15 15 15 19 19 17 17 19 18 17 18 17 16 14 17 17 16 14 15 16 17 17 13 12 11 13 14 13 12 10 11 12 17 13
19 16 18 20 19 18 18 19 21 20 17 14 12 11 12 7 3 9 15 14 14 13 15 18 18 17 15 16 19 19 17 12 15 17 17 16 16 16 15 16 15 15 15 13 11 11 13 14 13 12 13 12 11 12
20 17 13 15 19 20 18 19 19 19 18 15 14 11 9 8 10 14 15 14 12 12 11 11 13 13 14 13 12 14 10 7 8 7 8 11 9 4 5 7 9 18 16 13 13 8 12 13 14 14 14 14 13 11
18 20 22 18 18 17 18 20 19 17 17 17 14 11 11 14 11 11 15 14 9 13 12 12 13 7 8 8 7 6 5 8 8 5 4 10 8 7 8 9 8 8 7 7 18 20 19 19 20 18 12 8 7 7
20 23 20 18 18 15 14 14 16 17 16 15 15 15 14 14 14 11 12 11 12 9 7 7 6 6 7 6 5 6 3 2 5 8 4 7 5 4 6 6 6 9 10 9 10 8 15 11 7 -1 0 0 1 3
23 22 17 15 13 12 12 12 14 15 13 11 8 11 13 10 12 10 9 7 4 2 7 6 4 -2 4 3 2 3 7 2 -2 -1 -2 0 1 3 6 7 11 10 8 9 9 8 5 2 -2 -2 -2 -4 -3 2
19 18 17 15 14 14 14 15 14 13 10 11 9 8 10 9 9 12 9 5 5 8 12 5 4 7 3 0 -1 -0 12 1 -2 -2 -3 3 6 10 11 13 10 6 8 6 5 4 2 -1 -1 -1 -1 -3 -3 -3
18 18 16 15 14 14 15 15 11 11 12 11 6 1 -1 5 8 11 6 1 6 6 7 5 1 -0 1 0 -1 -1 6 -4 2 15 17 18 19 20 16 9 8 6 5 3 2 -1 -2 -5 -6 -5 -2 -3 -2 -1

GFSWCAN_sfc_dewp_066.txt.gz
Dewpoint
44 45 46 45 45 45 44 43 44 46 47 49 50 49 48 49 46 36 35 36 32 29 29 30 30 29 30 31 30 30 31 33 33 29 29 27 25 25 25 26 25 25 23 23 24 22 22 25 27 26 27 30 30 30
44 45 45 45 43 44 44 42 46 46 48 50 49 48 48 48 44 38 33 34 33 30 29 31 31 31 31 30 31 32 30 32 33 30 30 28 27 26 25 23 26 25 25 25 25 25 27 30 29 31 31 30 30 30
44 45 45 44 43 44 43 42 45 46 47 49 48 47 46 48 44 38 34 33 33 29 28 28 28 30 31 32 32 31 31 32 32 33 31 30 27 28 23 24 23 26 27 26 26 26 28 30 31 31 30 30 31 31
44 45 45 44 44 44 42 45 45 45 49 48 47 46 47 46 43 38 34 37 33 29 26 27 30 29 31 31 31 32 32 32 32 32 30 28 28 29 26 26 26 28 25 23 24 27 29 30 30 30 30 30 30 31
44 45 44 44 43 42 44 45 46 49 48 47 46 45 46 44 42 39 37 37 36 30 26 27 29 32 33 31 31 31 31 30 30 28 27 26 27 24 22 22 22 24 23 21 21 27 26 28 31 30 28 28 30 30
44 44 44 44 42 43 45 50 50 49 48 47 46 46 45 44 41 33 29 34 37 34 29 26 31 31 33 33 32 31 31 31 30 27 26 26 27 25 19 17 21 26 28 28 28 30 30 32 30 29 28 28 29 30
44 44 44 43 42 44 44 45 48 48 47 46 45 45 45 42 38 32 29 33 39 35 29 25 23 29 31 31 32 31 31 30 28 27 26 25 26 27 25 20 23 27 31 31 30 29 28 28 27 28 26 27 28 28
44 44 44 44 43 45 43 45 49 47 46 46 44 45 43 41 38 31 34 40 37 31 28 18 25 25 30 28 27 31 28 29 28 27 27 26 26 26 23 25 27 30 30 29 28 28 27 28 27 27 28 28 26 25
45 45 45 43 44 45 44 48 47 46 45 46 45 43 37 35 29 29 39 39 35 29 23 18 18 19 29 29 29 29 29 26 28 26 26 27 25 21 23 25 27 28 27 27 28 27 26 25 25 25 25 25 24 24
45 45 44 45 44 43 44 48 48 47 45 45 40 33 30 34 40 38 33 26 30 28 26 22 20 23 27 28 27 25 28 25 14 26 27 25 24 27 26 28 28 28 27 26 20 20 21 21 21 21 22 23 24 25
45 45 44 43 43 45 48 47 46 45 44 36 33 32 36 38 33 29 26 22 25 20 25 23 22 25 28 22 26 27 27 28 20 21 22 20 22 25 26 26 26 25 25 25 25 23 23 22 22 22 22 23 25 25
45 45 42 43 48 47 47 46 44 39 36 36 35 36 34 30 26 19 17 23 21 18 25 24 24 27 28 29 26 26 20 26 14 29 24 19 24 25 25 24 25 25 24 24 24 23 23 23 23 23 24 24 25 25
45 45 42 47 47 47 46 45 41 41 38 35 30 27 26 20 12 5 11 19 23 25 25 26 23 27 27 27 25 22 17 16 27 23 16 20 24 24 22 22 23 22 21 21 21 21 22 22 24 23 23 24 24 25
45 45 44 46 47 46 45 43 43 40 34 28 24 15 17 15 17 20 22 20 23 24 24 25 24 25 27 24 23 15 25 23 15 7 14 17 23 20 20 20 19 20 20 20 20 22 22 22 21 22 23 23 24 23
44 44 45 47 46 45 43 44 39 34 30 23 23 5 13 24 26 25 17 23 26 27 25 23 23 23 21 20 22 22 21 8 13 13 17 19 22 20 19 20 20 20 21 21 21 19 18 18 19 21 22 22 22 22
44 45 45 46 45 43 42 37 35 32 29 24 20 20 25 22 22 18 23 25 25 26 24 23 18 15 18 19 12 9 9 8 13 16 22 22 21 20 20 23 23 22 21 21 21 21 21 21 21 21 22 21 21 22
44 44 46 45 44 41 38 34 31 25 23 23 22 27 23 23 20 22 25 25 27 23 17 17 6 9 19 12 13 16 11 16 17 20 21 22 20 22 23 22 22 20 20 20 20 20 20 21 17 15 17 20 21 23
43 45 45 44 41 35 32 31 27 23 22 22 22 24 26 26 24 25 26 27 25 24 20 12 18 9 9 6 10 18 19 15 20 22 24 24 23 22 22 20 19 19 20 17 16 15 13 16 18 21 20 22 21 21
44 44 44 42 36 30 28 28 27 23 24 23 25 25 25 25 25 25 25 25 26 26 21 16 9 10 15 17 15 12 12 19 21 21 21 21 21 20 20 19 19 18 18 16 18 21 22 22 22 23 22 21 21 21
45 44 42 39 34 29 25 23 27 24 20 21 21 21 26 24 23 22 23 25 24 15 14 11 11 12 15 19 21 21 21 24 20 18 17 17 17 15 18 19 20 19 19 18 19 24 23 22 22 22 21 21 22 21
42 40 36 32 29 28 25 22 23 23 22 20 20 23 19 19 19 17 14 21 14 12 14 19 16 21 22 23 24 24 25 22 20 17 15 15 17 18 18 18 16 20 19 20 21 21 22 21 21 21 22 22 21 21
40 37 33 32 26 23 23 25 23 23 21 19 21 22 20 15 12 14 18 10 9 16 20 21 21 22 20 20 21 21 22 22 21 21 23 23 21 18 18 18 16 16 18 18 19 20 20 21 22 22 21 21 20 17
36 34 31 29 22 20 22 25 21 20 19 18 19 18 14 10 11 12 10 8 14 17 20 19 16 14 18 17 16 17 17 19 20 20 19 19 19 19 18 19 18 15 18 19 18 19 18 22 22 22 19 17 16 15
34 29 26 24 22 20 21 16 20 19 19 19 17 14 14 13 13 8 8 9 16 19 18 14 15 18 17 17 16 17 17 16 15 15 18 17 14 16 17 18 19 18 18 20 17 14 14 17 20 16 15 13 12 12
30 25 24 17 17 17 15 11 12 17 16 17 16 14 14 15 13 7 8 12 9 13 13 13 14 16 16 15 15 17 17 16 15 15 15 17 16 16 17 17 18 18 15 10 14 15 15 14 13 12 12 10 11 14
22 21 17 12 13 13 15 14 14 16 18 15 13 12 14 15 10 7 12 11 15 14 14 19 19 17 16 17 17 16 17 15 14 14 16 14 13 12 8 12 13 14 12 13 10 13 13 13 11 10 10 11 16 12
19 13 17 20 19 18 18 20 20 19 19 18 14 14 17 13 8 11 14 13 14 12 13 18 19 15 15 16 17 17 15 9 13 14 13 12 12 12 9 12 12 13 14 10 9 10 12 12 12 11 11 11 8 11
21 17 15 16 19 20 19 19 19 19 18 16 16 15 15 12 11 14 16 15 10 7 8 7 10 10 11 11 11 13 8 5 4 3 7 9 5 2 2 4 5 18 14 10 12 12 13 13 13 14 12 11 9 7
16 19 21 17 18 17 17 19 19 19 19 19 16 12 11 14 14 13 15 11 6 14 15 15 12 3 7 4 4 1 2 6 8 6 4 8 5 6 4 5 4 5 5 4 17 19 18 18 17 15 9 8 6 2
18 21 18 15 16 15 13 15 17 18 17 16 16 15 16 15 13 10 11 10 12 10 7 6 5 8 6 7 5 4 -0 -1 4 8 4 5 4 2 1 2 4 6 4 8 9 6 14 9 4 -4 -4 -4 -3 0
23 21 16 14 12 13 13 14 17 16 14 12 9 12 13 12 13 12 9 5 4 8 12 9 6 -3 6 2 3 4 7 1 -3 -2 -4 -3 -2 -0 2 4 8 8 7 4 3 1 -1 -2 -5 -6 -4 -6 -5 1
20 18 18 15 14 15 15 17 16 12 9 8 7 7 9 12 12 14 9 6 8 10 13 8 6 8 3 -1 -2 -1 13 0 -3 -4 -4 -1 1 6 9 12 10 7 6 1 -1 -2 -4 -7 -5 -4 -2 -3 -3 -3
20 19 18 17 15 14 15 15 12 11 9 8 7 5 7 9 11 13 7 4 10 9 10 6 -1 -2 2 0 -1 -1 6 -5 1 15 16 18 18 20 15 6 3 4 4 1 -2 -4 -4 -8 -6 -5 -1 -2 -1 -1

GFSWCAN_sfc_dewp_069.txt.gz
Dewpoint
43 43 44 44 45 46 45 44 44 44 47 47 50 50 49 49 49 38 34 35 32 28 28 30 30 30 31 31 30 31 31 32 33 28 28 27 24 26 23 24 24 24 22 22 23 20 18 25 27 25 27 29 30 30
42 43 44 44 44 45 43 44 44 45 46 49 50 49 49 48 45 38 32 34 33 30 29 30 30 31 31 31 31 31 30 31 33 30 29 28 27 25 24 23 25 24 24 24 25 24 27 29 28 30 30 29 29 28
43 44 44 44 45 45 45 44 42 44 46 50 50 49 47 48 42 37 33 33 32 29 28 29 28 30 31 31 32 31 31 33 32 32 31 29 27 27 23 24 22 25 27 26 25 26 27 28 29 30 29 29 30 31
44 44 43 45 45 45 45 43 43 44 45 49 49 47 47 48 42 37 33 35 32 29 27 27 30 30 32 32 31 32 32 32 32 32 29 28 27 28 25 25 25 27 26 24 24 25 26 29 29 29 30 30 29 30
44 43 44 45 45 45 43 44 44 45 45 48 47 46 47 46 42 38 37 36 34 31 26 27 29 32 34 32 32 31 31 30 29 27 26 26 27 25 22 23 23 24 24 23 24 26 26 27 30 30 28 28 29 28
44 44 44 45 45 43 45 46 49 48 49 46 46 47 46 43 41 33 30 34 35 34 29 25 31 30 32 33 32 31 31 30 28 27 25 26 27 24 20 18 19 25 27 26 26 29 28 30 30 28 27 28 28 28
44 44 44 45 44 43 44 47 49 48 46 46 47 47 46 43 38 30 29 33 37 34 29 25 24 29 29 30 31 30 31 29 28 28 26 24 25 26 24 19 22 27 29 29 29 29 27 26 27 28 26 27 28 27
44 44 45 45 44 45 44 45 47 47 46 46 46 44 42 41 37 32 36 40 35 29 28 21 26 25 29 28 27 31 28 28 28 27 27 25 26 26 22 24 25 29 29 27 27 26 25 28 27 25 26 26 25 25
44 44 45 45 44 45 44 48 47 47 45 46 44 42 37 34 29 30 40 37 35 29 22 21 20 21 29 28 29 28 29 24 28 26 26 26 25 20 21 24 28 29 27 27 27 26 25 24 23 22 22 22 22 22
44 45 45 46 45 46 46 47 46 46 46 45 39 34 30 33 39 39 31 26 29 29 28 23 22 26 26 27 26 24 27 24 13 26 27 25 24 27 26 27 28 29 28 27 22 21 22 21 19 19 19 21 22 23
44 45 46 45 46 46 45 47 46 46 43 36 32 30 35 39 33 28 24 20 23 21 26 24 25 26 28 22 23 27 19 22 13 19 22 18 22 24 26 27 28 27 25 23 21 22 22 22 21 21 21 21 23 24
45 46 46 45 46 46 45 46 46 41 38 36 35 36 34 29 27 16 12 20 19 19 26 25 25 27 28 28 26 25 20 20 13 27 23 16 21 25 25 25 25 25 24 22 23 23 22 22 22 22 22 22 23 24
46 46 45 45 42 42 46 45 44 41 38 35 31 25 25 21 5 4 8 13 16 26 26 26 23 26 27 27 25 22 18 17 26 23 15 18 23 25 25 24 24 23 21 20 19 20 21 21 22 22 21 22 22 22
45 45 42 41 44 47 47 45 43 39 34 28 24 14 14 6 13 14 18 24 26 26 25 25 25 25 26 22 23 13 24 23 16 11 12 16 23 24 23 21 19 19 19 20 20 21 22 21 20 22 22 22 22 22
45 42 43 45 47 46 45 43 39 34 30 24 22 12 12 20 27 25 24 24 25 28 25 23 23 23 21 20 22 23 20 8 12 12 16 19 22 22 20 19 19 19 20 20 19 18 16 16 18 19 20 21 22 22
44 43 41 46 46 45 43 38 34 31 28 22 19 19 25 24 22 18 17 21 24 25 24 23 19 17 18 19 14 10 8 6 11 15 21 21 22 20 19 20 21 22 21 20 20 20 20 20 20 19 20 19 19 20
43 40 41 46 45 42 38 33 32 26 23 20 22 27 24 23 23 24 24 24 26 22 17 18 8 11 19 12 12 15 12 15 17 18 21 22 21 20 20 22 22 22 20 19 19 19 19 20 15 14 16 19 19 21
39 43 46 45 41 36 33 32 27 23 20 24 24 23 25 24 22 24 25 26 24 23 20 13 19 12 9 5 10 18 20 15 18 21 22 22 21 21 23 21 20 19 19 17 15 14 12 14 17 20 20 21 20 18
43 45 45 42 37 32 31 29 27 23 23 25 26 25 25 25 25 24 25 25 25 24 20 15 10 10 13 16 16 14 14 19 22 23 22 21 21 21 20 18 18 16 16 15 17 19 20 21 21 22 22 21 20 21
46 44 42 40 34 29 27 25 27 24 22 24 23 24 24 23 23 22 23 24 23 15 14 11 9 11 13 18 21 21 21 23 20 18 17 17 16 14 17 17 19 18 17 15 18 22 21 21 22 22 20 20 21 21
44 42 41 34 30 29 26 22 21 23 23 23 20 21 18 17 18 18 14 20 14 9 12 17 13 20 22 22 22 24 24 22 20 17 15 15 16 17 17 16 14 19 18 19 19 19 21 20 20 21 21 21 20 21
41 40 33 32 27 25 23 25 23 24 22 21 19 18 13 13 12 9 15 11 8 15 18 19 19 21 21 21 21 21 23 21 20 21 22 22 18 17 17 17 16 14 15 13 16 18 19 20 21 21 20 20 19 16
38 35 31 29 24 22 22 25 22 22 21 19 14 12 8 8 10 11 11 10 14 17 19 18 15 13 17 15 16 17 17 18 20 20 19 19 18 18 16 16 16 10 13 16 16 16 14 21 20 19 17 15 15 14
36 30 27 24 22 19 21 19 22 21 19 15 9 9 9 9 11 9 9 12 16 19 19 14 15 18 17 16 16 17 16 15 15 15 18 16 13 15 17 17 17 16 15 17 13 12 13 15 17 14 13 11 10 10
30 25 24 18 18 15 14 12 11 15 12 11 11 13 14 15 10 8 9 14 12 16 17 13 14 16 17 15 14 16 15 16 16 16 13 15 15 14 14 14 15 15 13 11 12 13 13 12 11 10 10 9 10 14
23 21 18 15 13 13 14 12 12 13 16 14 14 14 14 14 10 9 13 14 17 17 16 20 20 17 17 17 16 16 17 15 14 14 12 13 12 10 4 7 8 11 11 9 8 9 10 11 11 9 9 10 16 11
20 18 18 20 19 18 18 19 19 22 21 18 14 13 15 9 8 13 14 15 16 15 15 19 20 19 19 17 17 16 13 8 11 11 11 9 10 10 8 8 5 10 13 10 11 11 11 12 12 11 12 10 7 8
20 17 16 17 18 18 18 18 19 18 18 18 20 20 21 20 19 16 15 12 8 7 11 12 10 10 13 11 10 14 8 2 2 4 6 7 3 -1 -0 1 2 17 12 9 16 13 15 13 12 13 10 8 6 4
17 19 21 17 18 17 16 19 20 20 19 20 18 16 15 15 15 17 16 10 4 16 17 15 9 4 8 6 4 -0 1 6 8 5 4 5 2 5 -2 -1 -1 0 -0 1 16 17 15 16 15 14 4 2 2 -1
18 21 17 15 17 14 13 15 17 18 19 17 17 16 16 16 14 10 10 8 13 14 10 10 10 10 9 10 6 5 -1 -2 4 9 5 4 4 -0 -4 -3 1 3 1 2 3 2 14 8 4 -4 -4 -4 -4 -1
21 18 15 14 12 13 14 15 18 18 17 16 16 17 13 10 14 9 7 3 4 8 11 8 3 -1 8 4 4 5 7 1 -4 -2 -3 -3 -5 -4 -2 -0 4 3 0 -1 -1 -2 -4 -3 -6 -6 -4 -5 -4 1
19 17 16 14 13 15 17 18 17 16 15 16 12 10 9 11 10 11 7 5 5 7 13 14 13 11 3 -2 -2 1 15 3 -2 -3 -4 -2 -1 2 3 7 2 0 2 1 -2 -4 -5 -8 -4 -4 -3 -3 -3 -1
19 19 18 17 16 16 17 19 17 15 13 9 6 4 4 9 10 13 5 1 10 15 16 12 3 2 6 4 2 2 7 -4 2 14 16 17 18 16 16 5 1 1 2 1 -2 -4 -6 -9 -8 -7 -3 -3 -2 1

GFSWCAN_sfc_dewp_072.txt.gz
Dewpoint
41 42 43 44 44 44 46 45 45 45 44 46 49 50 51 49 46 39 33 34 31 28 28 30 30 30 31 31 30 31 31 32 32 28 27 26 24 24 22 22 22 24 21 22 22 19 15 26 28 23 25 28 29 29
41 43 44 44 44 44 46 45 46 45 45 47 50 50 50 49 46 38 32 34 33 30 28 31 30 31 31 30 32 30 29 31 32 30 28 27 25 24 23 21 24 22 24 23 24 23 26 28 27 28 29 29 27 28
41 43 44 44 43 45 45 46 45 44 45 46 50 49 49 49 44 37 33 32 32 29 29 29 28 30 31 31 32 31 31 32 31 31 30 28 26 26 23 23 21 24 26 26 25 25 26 27 28 29 28 28 29 30
41 43 44 44 45 45 45 45 44 44 45 49 50 49 49 44 41 37 33 34 32 30 29 28 31 31 33 32 32 32 33 32 32 31 29 28 27 27 24 24 25 27 26 24 24 25 26 28 29 29 29 29 29 29
42 43 44 44 45 46 45 44 44 44 45 49 49 48 49 43 42 38 36 36 33 31 27 27 29 32 33 32 32 32 31 30 29 27 26 26 27 25 22 24 23 25 25 25 24 26 26 26 29 30 28 27 28 26
43 44 44 44 45 46 45 44 44 45 45 48 47 48 47 44 40 33 30 34 34 33 29 28 31 30 32 31 31 31 31 29 28 27 25 26 27 24 21 20 20 22 26 24 24 26 27 28 29 28 26 26 26 26
43 44 44 44 46 45 45 47 50 49 47 47 48 46 43 41 37 30 29 33 36 34 28 24 24 29 30 30 30 30 30 29 28 27 25 24 25 25 22 17 19 26 28 27 28 29 27 27 27 28 26 26 27 26
42 44 44 44 45 45 44 48 48 48 47 47 45 44 42 41 38 33 35 38 33 29 28 21 25 25 29 28 26 30 27 27 28 26 26 24 25 25 21 23 24 28 28 27 28 25 24 27 26 25 25 25 23 23
43 44 44 45 45 45 44 47 47 48 46 45 44 42 37 34 30 32 38 36 34 28 22 21 21 20 29 29 29 28 28 23 28 26 26 26 23 19 20 21 26 29 27 27 26 24 24 22 22 21 20 20 20 19
43 45 44 45 45 44 45 47 47 46 45 43 37 32 29 32 40 38 30 25 28 28 27 19 23 24 27 27 26 24 26 24 15 25 26 25 24 26 27 26 27 30 28 27 23 22 23 20 19 17 18 19 20 21
44 45 45 46 46 45 48 46 46 45 40 36 32 30 34 38 31 26 22 21 24 21 26 24 26 26 28 23 24 27 17 21 14 18 22 18 21 24 25 26 28 28 28 25 20 19 20 19 19 19 19 20 21 22
44 45 46 46 46 47 47 47 45 39 37 35 35 35 32 27 23 12 10 22 19 18 25 26 25 27 27 28 26 25 19 17 12 23 21 15 20 24 25 25 25 25 24 23 22 21 21 21 21 21 21 21 21 22
45 46 46 46 46 45 47 47 43 41 37 35 30 23 23 18 7 4 1 9 15 25 26 27 24 26 27 27 25 21 15 14 24 22 14 18 22 24 25 24 24 22 22 21 20 20 20 21 22 21 21 21 20 20
45 46 46 46 46 45 47 46 43 39 34 29 23 14 17 9 13 15 15 18 25 25 26 25 26 25 25 23 23 13 23 22 16 14 11 16 20 23 24 23 23 21 19 18 19 21 21 22 20 21 21 21 21 21
46 46 46 45 45 45 46 46 42 33 30 24 21 13 15 20 25 24 17 22 24 28 25 24 24 22 20 20 23 23 20 14 12 10 15 17 20 23 23 21 19 18 18 19 19 17 16 15 17 18 19 20 21 21
46 45 44 45 44 44 45 45 35 32 27 22 15 14 23 22 23 20 15 20 23 25 25 22 18 17 20 20 15 9 8 7 12 15 19 20 23 22 21 20 19 19 20 20 19 19 19 19 19 18 18 19 19 19
45 39 43 43 44 45 44 35 33 27 26 16 16 25 22 19 20 21 23 24 26 21 15 16 6 8 18 11 11 15 12 16 17 17 19 22 22 21 19 20 22 22 21 19 18 18 18 19 13 13 16 19 19 20
39 41 43 47 45 41 34 33 28 24 17 17 19 19 25 24 22 23 24 25 24 22 19 11 17 10 11 5 10 17 20 15 17 21 22 22 20 20 21 21 21 19 19 15 13 12 11 14 16 19 19 20 20 19
40 41 45 43 39 36 34 31 29 17 20 20 24 23 24 25 24 25 25 25 25 23 18 13 9 10 12 15 15 11 13 18 22 24 22 21 21 21 20 17 17 16 15 13 16 18 19 19 20 21 21 20 19 20
43 45 43 41 37 31 29 27 28 20 19 21 24 22 24 22 21 21 22 23 22 15 11 8 8 10 12 16 20 19 20 22 20 19 18 18 17 13 16 17 18 17 15 13 15 21 19 20 20 20 19 20 21 20
43 43 41 36 32 30 28 23 21 21 21 23 23 22 20 15 14 12 14 19 15 11 11 16 11 19 21 20 22 23 24 21 19 18 16 15 15 16 16 15 12 18 17 17 17 18 19 18 19 20 20 20 19 19
41 41 33 34 29 27 24 25 24 24 22 22 21 20 17 14 14 11 14 12 10 16 16 18 19 21 21 21 21 22 23 20 19 21 23 22 15 16 16 16 15 11 10 10 14 16 17 18 19 19 18 17 17 15
38 36 32 30 25 24 22 25 22 21 21 20 18 16 12 9 9 11 13 13 15 16 19 18 15 14 18 15 15 17 17 18 19 19 20 18 17 17 15 15 14 8 10 14 14 13 11 18 16 16 14 14 13 12
36 31 28 25 24 20 23 21 22 21 21 18 14 11 9 9 11 10 11 13 16 18 18 14 18 19 18 16 16 17 16 14 15 14 17 15 12 15 16 16 16 13 13 15 11 11 11 13 16 13 11 10 9 9
30 26 26 18 22 18 18 18 17 18 16 15 12 11 11 8 8 8 10 13 12 18 18 16 16 17 19 15 13 15 14 16 16 16 12 13 14 13 11 12 14 14 12 5 8 9 8 8 9 9 9 9 11 13
22 22 23 20 17 17 17 15 15 15 17 15 14 13 13 12 6 6 12 15 16 19 21 20 20 17 16 16 16 15 17 14 14 13 12 11 11 8 3 7 6 9 9 8 7 5 8 9 9 8 10 10 15 10
19 18 18 20 18 18 18 19 19 22 19 14 12 12 14 6 5 15 16 16 18 18 22 22 21 20 18 17 16 15 13 9 9 11 11 9 9 9 7 6 4 9 11 9 8 10 10 12 11 11 11 10 6 4
20 15 14 16 17 19 19 20 21 22 21 17 17 14 17 18 19 20 20 16 13 14 15 11 10 11 17 13 17 14 6 2 5 6 8 6 2 -3 -2 -0 1 16 11 5 15 15 13 12 12 11 8 5 4 3
15 19 21 18 18 17 17 21 20 19 19 20 20 19 19 17 17 18 16 13 9 18 17 14 8 8 11 8 5 2 8 11 8 4 4 4 1 4 -5 -4 -4 -3 -2 -1 15 15 12 14 8 7 -0 -1 -1 -2
18 22 18 17 19 16 14 15 17 19 19 19 19 18 18 18 16 12 11 12 16 18 15 17 14 16 14 14 9 6 -1 -3 3 10 6 5 5 0 -6 -4 -3 -3 -3 -2 -2 -3 14 5 3 -4 -1 -1 -0 3
20 19 15 15 13 13 15 16 19 18 18 18 17 18 16 15 15 11 9 4 8 12 15 12 5 5 10 9 9 8 8 1 -4 -2 -2 -2 -5 -4 -4 -3 -2 -2 -2 -2 -3 -4 -5 -4 -7 -7 -3 -3 -2 3
19 17 16 14 14 16 17 18 17 17 17 18 15 14 13 15 14 13 8 6 10 12 14 17 15 12 5 2 2 3 16 9 4 -0 -1 -1 -1 -1 1 2 -2 -2 -1 -1 -4 -5 -6 -9 -7 -6 -2 -3 -2 -1
19 18 17 16 16 16 17 20 19 18 17 14 10 9 10 13 12 13 5 3 10 14 16 15 9 12 9 9 7 8 9 0 4 14 16 17 19 15 10 6 -0 0 1 -0 -3 -5 -6 -9 -8 -8 -3 -2 -2 -0

GFSWCAN_sfc_dewp_075.txt.gz
Dewpoint
39 40 41 43 45 44 45 46 46 46 45 47 51 50 49 47 44 38 33 33 32 28 29 30 30 30 30 31 30 31 31 32 31 28 27 26 24 24 22 22 22 24 22 22 22 20 13 26 28 23 25 29 29 29
40 40 42 43 45 45 46 46 46 47 45 47 51 50 49 48 44 39 33 33 33 30 28 30 30 31 30 30 32 30 29 30 32 29 28 27 24 23 22 20 23 22 24 23 23 22 25 28 28 29 29 29 29 29
40 40 42 43 45 45 46 46 46 45 45 48 50 50 49 47 44 38 32 32 32 29 30 30 29 30 33 32 31 31 31 32 31 31 29 28 26 26 23 23 21 24 26 26 25 25 27 28 29 30 29 29 30 30
40 41 42 44 45 45 46 46 45 45 45 48 50 50 50 46 42 38 33 33 32 31 30 28 31 31 33 32 32 32 33 32 32 31 29 28 26 27 24 24 25 27 27 25 25 25 26 28 29 29 30 30 30 30
40 41 43 44 45 45 46 45 45 45 45 47 49 48 45 43 41 37 35 35 33 31 27 27 29 32 32 32 31 31 31 30 29 27 26 26 27 25 22 24 23 26 26 25 25 26 26 26 29 30 29 28 28 27
40 42 43 44 45 46 46 45 44 44 44 46 49 49 46 42 38 33 29 34 34 33 29 29 30 30 31 31 30 30 30 28 28 27 25 26 26 25 22 21 23 25 25 25 24 26 27 28 29 29 27 26 27 27
40 41 43 44 45 46 45 45 49 50 47 48 48 47 45 42 38 30 28 33 36 33 28 24 23 29 30 30 30 29 29 28 27 26 25 24 25 25 22 17 17 22 25 26 26 29 27 28 28 29 27 26 27 27
41 42 44 45 45 46 44 49 49 48 48 47 45 45 44 43 39 33 35 38 33 29 28 21 22 25 29 27 25 29 26 27 27 26 26 23 25 25 21 23 22 27 28 27 28 25 24 27 27 27 26 25 23 21
42 43 44 45 45 43 48 48 48 48 47 46 44 42 36 33 30 33 38 35 33 27 22 21 20 18 29 28 28 28 27 23 28 25 25 25 22 18 19 18 24 27 27 27 26 25 25 24 24 23 20 18 17 17
42 43 44 44 45 44 47 48 47 46 45 44 35 31 28 31 40 35 30 25 27 28 27 20 23 21 27 26 26 24 25 23 14 24 26 25 23 25 25 23 25 28 28 26 23 22 23 20 19 16 16 17 19 19
42 43 45 45 46 45 48 47 46 44 40 34 30 28 33 38 29 25 23 20 23 20 25 24 23 25 28 22 24 27 17 19 12 17 22 18 20 23 24 25 26 28 28 25 20 18 20 18 17 17 18 19 21 21
42 43 45 46 46 47 48 47 46 39 36 34 33 34 31 26 22 13 11 20 20 15 24 25 25 27 26 28 26 25 18 18 11 20 21 15 20 23 24 24 25 27 26 23 21 19 21 20 20 21 21 21 21 21
42 44 46 46 46 47 47 46 43 41 37 34 29 23 24 19 9 6 4 10 16 24 26 27 25 26 27 27 24 20 15 15 22 18 13 16 20 23 24 24 23 22 23 22 21 19 19 19 21 21 20 20 20 19
42 44 46 46 46 47 47 46 44 38 33 28 20 13 17 10 15 16 15 17 21 23 26 25 26 25 25 23 23 12 22 21 14 10 9 15 18 21 24 24 23 22 20 18 18 20 21 21 19 20 21 20 20 20
42 44 46 46 46 47 47 45 41 34 31 27 22 15 16 21 18 21 17 19 22 27 25 23 25 23 22 20 23 22 18 12 10 9 15 17 20 22 23 23 22 21 19 18 18 17 15 14 15 17 19 19 20 20
43 44 45 46 46 46 46 43 37 34 29 19 13 11 19 17 15 23 22 23 24 26 23 23 20 15 16 19 15 11 7 5 10 15 19 18 22 22 22 22 20 18 19 20 20 19 18 18 18 17 17 18 18 19
43 42 45 45 46 45 44 37 36 34 32 21 15 22 21 17 19 22 23 24 26 22 17 18 8 10 17 8 9 13 10 14 16 16 18 21 22 21 21 20 20 21 21 19 18 17 17 18 12 10 14 18 19 20
41 43 45 45 45 42 36 35 33 31 25 18 18 19 25 24 22 23 24 25 23 21 19 12 17 11 9 5 9 15 17 12 17 19 21 22 20 20 20 21 22 20 18 13 12 10 10 11 14 18 17 18 19 18
41 43 45 45 42 36 33 31 31 25 20 17 23 22 23 24 24 25 25 25 24 22 19 14 6 9 12 14 14 12 13 19 23 22 21 20 20 21 20 17 16 15 14 12 15 17 17 18 18 19 18 18 18 20
43 43 44 44 40 33 30 28 29 19 20 21 21 22 21 22 22 23 23 23 22 16 12 9 9 9 11 14 19 20 21 22 23 21 20 19 18 12 16 16 17 16 14 12 13 19 18 18 18 18 18 19 19 17
43 42 42 42 33 32 31 26 23 20 20 21 20 22 20 17 17 16 17 19 15 13 14 15 10 16 20 19 21 22 23 21 19 19 18 16 15 16 14 13 11 16 16 16 16 17 18 17 17 18 18 18 17 16
42 41 34 34 29 28 26 26 21 22 21 21 21 22 19 18 17 15 13 12 14 19 17 17 19 21 21 20 21 22 21 19 19 21 22 20 16 15 15 16 13 9 8 8 13 15 16 16 17 17 16 15 15 13
40 36 32 31 26 26 22 26 19 20 19 18 19 18 18 16 15 14 12 15 17 17 19 19 16 15 18 15 18 18 17 19 19 19 19 16 17 16 15 15 12 7 7 11 13 12 9 17 15 15 13 12 11 11
38 32 27 26 26 20 24 22 23 22 21 19 18 17 15 14 15 13 14 16 18 19 20 16 19 19 18 18 18 18 16 17 17 16 16 15 13 15 16 15 14 11 13 13 10 9 8 11 14 11 10 8 8 9
29 25 26 20 23 20 18 18 19 20 18 19 16 15 15 14 11 9 13 17 17 20 20 18 18 18 19 16 15 16 14 18 18 17 11 12 14 12 10 11 13 12 10 4 9 7 6 7 7 7 7 7 12 11
24 23 24 21 20 16 14 13 15 16 17 15 17 15 15 14 8 10 15 18 17 22 21 20 20 17 17 18 19 17 19 15 16 15 11 12 12 9 4 6 6 8 8 7 5 3 5 8 7 7 8 8 13 6
19 19 22 24 18 16 16 17 19 20 17 16 15 14 16 14 12 13 17 17 19 21 24 23 22 21 20 17 16 15 14 9 11 13 13 10 9 8 8 7 5 9 9 8 6 7 9 10 10 9 8 5 2 3
23 20 13 15 14 13 14 19 21 24 22 19 17 15 17 16 18 19 19 17 15 21 20 16 15 20 20 19 17 12 8 7 8 9 9 6 2 -5 -3 -1 1 16 8 3 11 12 8 10 8 6 3 1 1 -0
15 18 17 8 9 11 14 22 22 20 20 18 22 22 22 18 17 17 17 15 14 21 19 16 11 14 13 9 6 6 12 14 10 5 4 5 1 4 -6 -5 -4 -4 -4 -2 14 15 15 11 5 4 -1 -0 -1 -4
12 13 12 9 10 12 14 15 16 18 20 21 20 19 19 19 16 14 14 16 16 21 21 19 16 18 16 15 9 8 4 -2 3 11 8 6 7 2 -3 -3 -2 -4 -5 -3 -2 -4 12 1 0 -7 -6 -5 -3 0
14 9 7 8 7 11 14 16 19 19 18 18 19 21 19 18 17 13 14 11 13 17 17 15 11 16 16 15 15 13 9 3 -5 -1 4 4 3 2 -0 -3 -3 -4 -4 -4 -4 -5 -5 -6 -8 -9 -7 -6 -4 0
14 11 9 9 11 15 17 17 18 18 17 18 16 16 15 17 16 16 11 12 15 17 19 18 16 14 8 12 10 9 19 13 6 4 6 3 2 1 1 -2 -5 -3 -2 -3 -5 -5 -7 -9 -8 -8 -7 -9 -7 -5
12 10 10 14 15 16 17 20 19 17 18 17 14 13 14 15 14 15 9 8 15 17 19 16 13 13 11 13 12 14 14 8 9 16 17 17 17 14 6 4 1 2 1 -1 -5 -6 -8 -9 -8 -10 -10 -9 -9 -6

GFSWCAN_sfc_dewp_078.txt.gz
Dewpoint
39 40 41 42 43 45 45 46 46 47 46 49 50 49 49 45 42 37 34 35 35 31 30 30 30 31 33 33 32 34 33 33 33 29 28 28 25 26 25 25 26 25 25 24 24 23 16 27 28 24 26 28 29 29
38 40 41 42 43 45 45 46 46 46 46 50 50 49 47 44 42 38 34 34 33 33 30 31 31 32 32 31 34 33 32 33 33 30 30 28 25 26 25 20 27 24 25 23 24 22 26 28 29 30 29 29 30 31
38 40 41 42 44 45 45 46 46 45 46 50 50 49 49 46 42 39 35 35 35 32 31 31 30 31 33 33 32 33 34 35 33 34 32 30 27 27 24 25 26 27 28 26 26 26 27 28 29 30 30 30 31 31
38 40 41 42 45 45 45 46 45 45 46 50 51 50 49 46 43 39 36 36 36 34 32 29 31 31 33 33 32 33 34 34 34 33 32 31 28 29 26 26 26 27 28 27 27 27 27 28 29 30 30 30 30 30
39 40 41 43 45 45 46 46 45 45 45 49 50 50 48 44 41 39 37 36 35 35 30 29 30 31 32 32 32 32 32 32 33 34 34 30 29 28 25 26 26 27 27 26 23 27 27 27 28 30 30 30 29 28
39 40 41 43 45 45 46 46 45 45 44 47 49 47 44 41 38 35 33 36 37 35 36 31 31 30 31 31 31 30 31 30 31 31 29 28 28 28 27 23 25 27 27 27 25 27 28 30 30 30 30 29 27 27
40 40 41 43 45 45 46 45 47 49 47 48 49 47 45 42 40 33 31 36 37 36 33 31 30 29 30 30 31 30 30 30 30 29 28 27 29 30 26 22 21 21 26 27 27 29 29 30 29 29 28 27 27 27
40 40 41 44 45 46 47 49 50 49 48 49 48 46 44 42 39 35 37 39 35 31 32 30 30 28 30 28 28 31 27 28 29 28 27 25 26 27 24 24 23 26 29 30 29 26 26 28 29 29 28 26 22 19
40 42 43 44 45 45 48 49 49 49 48 47 45 41 39 35 33 34 38 38 35 32 33 30 31 29 30 30 30 30 28 27 29 26 26 27 23 24 22 20 23 28 29 29 30 27 27 26 26 25 22 18 15 16
41 42 43 45 45 45 48 49 48 47 46 41 37 33 33 33 40 35 33 30 32 31 30 30 28 29 29 28 28 28 28 26 28 25 28 26 24 26 24 23 23 28 29 29 26 24 24 23 21 17 15 17 18 19
41 42 43 45 45 45 48 48 46 43 40 37 33 32 35 37 32 27 29 28 24 24 26 27 28 28 29 28 27 28 28 26 25 26 26 25 23 25 25 26 27 29 28 26 21 19 21 20 18 17 18 19 20 20
42 42 43 45 46 46 48 47 44 40 38 37 36 35 33 28 27 24 22 20 21 22 25 27 27 28 28 29 28 27 26 25 22 26 25 21 25 24 26 27 28 30 28 25 20 19 19 19 19 20 20 20 21 21
42 42 43 45 46 46 48 47 43 41 38 36 31 30 26 25 18 18 15 20 20 25 27 28 28 27 28 28 26 24 23 23 25 23 21 22 22 24 26 27 27 29 29 24 21 21 19 19 21 21 21 22 21 20
42 43 44 46 47 47 48 46 42 38 36 32 27 18 23 20 21 23 23 26 24 28 28 28 27 27 26 26 24 22 22 22 19 16 19 25 23 23 26 26 25 24 24 25 25 22 22 23 22 22 22 21 19 19
42 44 45 46 46 47 47 45 39 35 33 31 26 21 22 23 24 23 24 27 27 29 27 26 26 24 26 24 23 23 19 18 18 19 25 25 22 24 25 25 24 23 21 20 20 22 22 21 21 21 21 20 19 19
42 43 44 46 46 47 47 42 38 37 32 26 21 20 20 22 23 24 25 26 28 28 26 26 24 22 23 23 21 20 17 16 24 24 25 22 22 24 25 24 23 21 20 18 20 20 19 18 19 20 19 20 21 21
42 42 45 46 46 46 43 38 37 34 33 29 24 22 24 24 24 23 23 24 27 25 26 23 17 18 21 19 18 19 20 26 26 23 23 25 25 25 25 23 21 20 21 22 19 18 19 19 18 20 20 20 21 21
39 42 46 46 45 41 36 36 34 32 29 27 25 25 25 24 24 24 25 26 27 24 22 21 22 20 19 16 17 23 24 22 22 23 24 24 23 23 23 21 22 23 21 21 20 19 19 20 20 19 21 21 21 21
39 42 45 46 43 37 34 33 33 28 28 23 24 25 26 25 25 25 25 26 25 23 22 21 17 20 18 20 24 23 24 25 24 23 22 21 21 21 23 23 22 21 21 21 20 18 19 20 19 19 20 20 19 18
42 44 45 45 41 35 32 32 32 28 23 24 25 25 25 25 24 25 26 25 24 23 20 18 14 13 13 17 23 23 24 24 23 21 20 20 20 20 22 21 20 21 19 18 18 19 20 18 18 18 18 19 16 15
41 43 43 43 36 35 34 28 25 24 23 24 23 24 23 22 23 24 24 23 22 20 21 19 14 13 20 19 20 22 24 24 22 21 21 21 17 19 18 19 20 17 17 16 15 17 18 17 17 17 16 14 15 14
40 42 37 35 30 29 30 29 25 24 22 22 23 23 22 22 22 21 22 22 21 23 20 18 19 21 21 21 23 24 23 20 19 22 22 20 17 19 19 20 19 20 19 19 17 17 17 14 16 16 14 13 14 12
41 37 32 31 27 26 25 27 24 21 19 21 19 18 18 21 21 18 22 23 24 22 20 21 21 21 22 20 22 21 21 21 18 18 18 16 18 20 21 19 19 19 18 18 18 16 15 16 14 13 11 11 10 11
38 33 31 27 27 22 24 22 25 23 20 18 18 17 16 19 16 19 19 21 20 19 21 21 21 20 21 22 21 20 20 21 19 18 17 17 18 16 17 16 16 17 18 17 15 14 13 11 13 10 10 10 11 12
30 26 27 22 25 21 20 20 20 20 16 18 16 14 15 17 20 18 17 22 20 20 22 20 21 21 20 21 21 20 18 20 19 17 17 17 16 15 15 15 15 15 14 16 14 13 12 11 11 11 10 11 12 13
27 26 23 21 20 21 19 18 18 16 15 13 15 15 16 19 17 18 17 22 19 21 22 20 20 19 20 21 21 20 20 19 20 18 18 18 17 17 18 16 15 15 13 14 13 12 11 11 11 11 11 11 12 9
20 20 24 26 23 21 18 17 17 16 13 11 14 14 17 16 17 18 18 20 22 25 24 23 22 21 20 20 20 20 19 19 20 20 18 16 15 14 17 17 14 14 13 13 12 12 12 12 12 12 11 10 8 7
25 22 19 19 15 16 14 15 15 15 18 18 18 16 19 19 19 21 20 18 19 25 26 24 25 25 23 22 19 15 13 13 13 13 13 11 8 9 10 12 15 19 14 13 13 14 14 14 13 12 10 8 7 7
20 19 20 12 9 15 17 18 19 22 21 19 22 19 20 23 20 19 18 17 20 22 22 20 18 18 16 15 15 16 16 17 16 15 14 13 12 13 8 9 10 10 10 12 16 16 14 15 13 12 9 7 7 5
18 15 12 11 13 16 16 14 14 14 19 20 21 19 19 19 17 16 16 17 20 23 24 23 19 20 18 18 14 13 13 15 16 17 14 13 15 12 8 8 8 8 7 10 10 9 15 9 8 5 5 5 6 7
16 13 9 9 9 7 9 15 17 19 17 16 19 22 20 19 17 15 17 19 19 21 20 20 21 21 20 17 17 15 14 13 8 8 10 12 10 10 9 9 9 8 8 8 8 7 7 6 4 3 4 2 2 5
16 12 10 5 7 15 15 16 15 12 13 18 16 17 16 19 19 18 15 17 19 20 21 21 20 20 21 21 20 21 19 15 10 12 11 10 11 11 10 8 6 7 7 7 6 5 3 3 4 4 4 2 1 1
10 6 6 10 12 11 14 17 16 10 12 15 15 15 17 18 19 18 13 16 20 21 21 21 21 17 18 18 18 19 18 14 14 17 18 18 18 14 9 8 8 8 7 7 5 4 2 0 2 1 0 -1 -1 -0

GFSWCAN_sfc_dewp_084.txt.gz
Dewpoint
50 48 43 40 43 44 46 46 47 47 49 50 49 48 48 47 44 43 39 39 40 34 32 33 33 33 34 35 32 35 34 35 34 28 26 24 24 24 24 25 24 24 24 22 23 20 17 28 28 25 27 29 30 30
50 48 42 40 42 44 45 46 47 46 48 50 49 49 49 48 47 44 39 39 38 36 33 33 33 33 33 33 33 35 33 33 35 31 29 27 24 24 24 19 27 22 26 24 23 24 27 28 30 31 30 30 31 32
50 48 42 40 42 44 45 46 47 46 48 51 49 50 49 48 47 44 40 40 42 36 33 33 32 32 34 33 34 34 36 36 35 36 34 31 27 27 21 22 24 28 28 26 25 27 27 27 29 30 31 31 31 31
50 47 41 40 42 44 45 45 47 46 47 51 50 50 48 46 46 44 39 39 40 39 34 32 32 32 33 34 34 34 34 36 35 35 34 31 27 30 26 26 26 28 28 26 25 26 28 28 30 30 30 30 30 31
50 47 42 41 41 43 45 45 47 46 46 50 50 49 46 44 43 44 41 40 38 38 33 31 31 32 32 33 34 35 36 34 35 35 33 31 30 29 28 27 27 28 27 26 23 27 27 28 29 30 30 30 30 30
50 47 43 41 42 43 45 45 47 47 46 47 49 47 43 43 43 42 39 40 39 39 38 32 33 31 31 32 32 32 33 33 34 34 32 31 30 29 27 25 25 27 27 28 26 28 29 29 30 32 30 30 29 27
49 46 43 41 42 43 45 46 47 47 47 47 47 45 45 43 42 37 36 39 39 38 36 32 32 31 31 31 33 32 32 32 32 32 31 29 30 30 29 26 25 27 28 27 28 29 29 30 29 30 29 28 28 25
49 46 43 41 42 44 46 46 48 49 49 48 46 45 43 42 41 38 38 40 41 36 36 31 32 29 31 31 31 32 31 31 31 31 28 27 28 28 26 29 21 22 27 27 28 28 28 29 30 29 28 27 25 20
49 45 43 42 43 45 46 48 50 50 49 49 47 45 41 39 36 37 41 42 40 34 32 32 30 27 31 31 32 31 30 29 31 29 27 27 27 24 26 27 25 25 26 27 29 27 27 28 28 29 27 21 16 15
48 45 42 42 44 45 46 49 49 49 48 47 41 36 35 36 40 40 38 33 34 34 33 30 32 27 30 30 30 30 30 29 23 28 29 26 26 28 28 25 25 27 29 30 27 25 25 23 25 23 19 16 17 17
48 45 43 43 44 45 48 49 48 46 43 39 36 34 37 39 36 30 31 29 31 28 31 29 29 26 30 28 30 30 29 27 20 25 24 25 25 26 27 22 23 28 30 30 26 28 27 25 23 17 16 18 19 19
47 45 43 44 45 46 48 47 44 41 40 39 38 38 36 33 31 23 24 27 24 25 26 27 27 29 29 31 30 28 26 24 19 28 24 22 27 26 26 26 25 28 29 22 21 19 18 19 19 19 19 19 20 20
46 45 44 44 45 46 48 46 43 42 40 37 34 30 32 28 21 19 15 21 22 27 27 27 25 28 28 30 28 26 21 21 25 18 21 25 27 27 27 28 28 29 26 22 20 20 20 20 21 21 20 21 21 19
46 44 44 45 46 46 48 46 43 39 38 34 27 18 23 20 24 27 26 28 28 28 28 29 26 27 27 26 26 20 24 22 14 13 18 25 25 25 28 29 30 29 25 24 23 22 23 24 22 22 21 21 20 19
46 44 44 45 46 46 48 45 42 38 36 30 28 20 24 28 26 25 25 26 27 30 30 27 26 26 25 23 24 22 15 10 18 18 24 27 25 27 27 28 29 29 27 25 23 22 20 21 20 20 21 21 20 20
46 44 43 45 46 47 47 43 39 38 35 30 27 23 25 24 23 23 23 25 28 30 27 28 23 20 21 23 17 15 15 15 22 27 27 23 25 27 27 27 27 26 24 22 21 22 22 20 20 19 19 19 19 20
45 40 43 45 46 46 43 39 38 34 33 31 28 30 27 25 27 26 28 26 30 27 24 25 17 16 21 17 17 22 20 25 30 28 26 25 26 26 27 26 25 23 22 21 21 19 19 20 17 16 15 18 19 20
40 42 44 46 46 43 39 37 35 33 31 32 29 27 26 24 26 24 24 28 29 27 25 21 22 14 16 13 18 25 27 26 25 26 27 26 26 27 26 24 23 23 24 24 23 20 15 15 18 19 17 18 17 17
40 42 44 46 43 38 35 34 34 31 31 32 30 27 27 26 26 26 26 27 27 26 25 21 18 17 21 23 25 30 27 25 22 24 25 24 26 26 25 24 24 24 23 21 21 20 20 19 18 19 19 18 17 17
43 44 43 45 42 36 33 33 34 32 29 28 27 27 27 26 26 25 26 27 25 23 20 19 20 23 23 23 29 27 28 27 24 22 22 22 23 24 24 23 23 23 22 21 21 21 20 18 18 18 18 17 16 14
42 42 44 43 37 36 35 32 30 31 31 26 27 28 25 24 23 23 22 26 21 22 22 26 23 20 20 16 18 20 22 26 23 22 21 23 22 24 23 24 24 21 19 19 17 17 19 17 17 17 16 15 14 15
37 42 41 39 33 33 33 33 28 29 25 25 27 25 22 21 23 25 28 26 23 25 27 24 24 23 21 20 19 22 22 26 24 24 26 25 21 21 22 23 21 21 21 21 16 16 17 15 16 16 14 12 14 12
41 37 32 32 30 29 30 31 23 25 21 23 24 19 21 24 26 28 23 23 24 28 26 26 26 23 23 21 20 22 25 26 23 23 24 21 21 22 23 23 24 23 21 20 21 19 16 17 14 13 12 11 11 11
38 32 31 30 32 27 27 23 29 26 25 21 21 16 19 23 21 20 20 20 25 26 27 27 25 20 19 20 21 21 23 25 24 23 21 20 21 21 22 19 22 22 22 20 19 16 13 12 14 11 11 9 9 9
29 29 30 27 29 21 19 20 20 22 17 20 17 17 18 19 18 18 14 19 25 24 25 25 25 23 22 21 20 21 24 24 23 22 21 21 20 18 18 17 17 19 20 19 17 15 13 13 12 10 9 7 7 6
26 28 27 26 21 16 18 15 19 19 17 15 17 16 18 19 16 14 17 23 23 25 25 24 22 22 21 22 21 22 23 24 23 21 21 21 20 20 19 16 16 17 18 18 16 14 13 13 12 9 8 8 13 5
26 26 29 26 23 21 19 19 20 18 14 16 18 17 18 16 12 17 23 24 24 27 28 27 25 23 22 22 22 24 24 24 22 22 22 22 22 22 22 19 18 20 18 18 16 14 13 12 11 10 8 6 5 4
29 24 18 22 19 19 15 16 15 15 17 20 19 17 17 14 15 23 25 21 18 17 20 21 25 25 23 22 25 23 20 18 18 18 17 16 16 18 19 20 21 22 18 16 15 13 14 13 11 10 7 4 3 4
22 24 23 20 14 14 16 16 18 21 23 21 19 18 16 20 21 19 17 14 14 19 18 17 18 24 24 24 24 23 20 19 17 16 16 15 15 15 18 20 20 17 17 18 19 16 13 11 10 10 5 4 3 -0
22 24 19 15 14 15 18 21 24 25 24 24 22 19 20 19 15 13 13 13 15 16 18 20 22 23 23 23 21 20 21 22 22 18 17 17 18 17 18 17 15 15 16 16 15 14 21 13 12 2 -0 -1 -0 -0
24 18 16 17 16 16 18 19 20 20 15 12 13 15 17 14 16 12 12 13 15 16 20 18 21 22 24 24 21 19 19 20 19 24 24 22 18 17 17 16 15 14 15 14 12 10 12 4 1 -2 -3 -4 -5 -0
21 19 18 16 15 15 16 17 12 11 9 9 10 9 10 12 13 17 12 16 18 20 24 23 22 24 25 25 23 23 23 20 19 22 20 18 17 17 16 15 14 14 13 11 10 7 4 3 2 -2 -3 -6 -8 -9
14 11 8 9 10 8 14 12 12 7 7 7 9 10 11 14 15 16 10 13 17 20 22 24 25 27 27 25 24 25 23 22 22 23 22 21 20 18 15 14 13 13 11 10 8 5 2 -1 -4 -6 -8 -8 -10 -10

GFSWCAN_sfc_dewp_087.txt.gz
Dewpoint
49 49 47 43 41 43 45 46 47 47 50 49 49 50 50 49 48 39 36 37 37 31 30 32 33 32 33 34 31 33 33 33 33 27 26 24 23 24 22 24 22 23 21 22 22 19 12 28 28 24 25 29 29 31
49 49 48 43 40 42 44 45 47 47 48 50 50 51 50 49 48 44 36 39 38 34 31 32 32 32 33 32 33 34 33 33 34 31 28 26 24 24 22 17 25 18 23 23 21 22 26 28 30 31 30 29 31 31
50 49 49 44 41 42 44 45 46 47 47 50 50 50 49 48 47 42 37 37 39 33 32 33 31 32 33 33 34 34 35 35 35 34 33 30 26 26 21 21 22 25 27 24 23 24 26 27 31 30 31 31 31 31
50 50 49 44 41 42 43 45 45 47 47 50 50 49 47 46 46 42 36 38 38 37 31 31 32 32 33 33 34 34 33 35 35 35 33 30 28 28 25 25 25 25 27 25 25 26 27 29 29 29 30 30 31 30
50 50 49 44 41 42 43 45 46 47 47 47 50 49 46 44 44 40 38 38 36 37 31 30 31 31 32 32 33 35 34 34 34 33 30 29 30 28 28 26 25 28 27 25 22 26 26 28 29 30 30 30 30 29
50 50 49 45 42 42 43 44 46 46 47 47 48 47 44 43 43 39 35 39 38 37 33 29 33 31 31 31 31 31 32 32 33 32 31 30 29 28 25 24 26 27 28 28 26 29 29 29 30 30 30 30 29 27
50 50 49 45 42 42 43 45 46 46 47 47 47 44 44 43 38 33 31 35 39 37 34 30 30 31 30 30 32 32 31 32 32 31 29 29 29 28 27 25 26 27 28 27 28 28 28 29 29 30 29 28 28 25
50 50 49 45 42 42 43 45 46 47 48 48 47 45 43 43 40 36 37 40 39 34 35 30 26 28 31 30 29 31 30 30 30 30 28 26 27 26 25 27 26 26 27 27 28 28 29 30 29 28 27 26 24 22
49 50 49 46 42 42 44 46 47 49 49 49 46 45 40 37 34 35 41 41 37 31 26 28 18 19 31 29 30 30 29 26 30 27 27 27 25 23 25 25 27 24 27 27 28 27 29 29 29 28 27 25 18 15
49 50 48 45 43 43 45 47 50 50 49 48 40 35 32 35 39 38 35 29 30 30 29 25 26 23 28 28 28 28 28 26 19 26 28 25 25 27 27 28 27 26 27 29 26 25 26 25 28 28 24 19 16 16
49 49 48 45 44 45 45 49 49 48 44 38 34 31 36 39 34 29 26 24 26 23 28 26 26 23 29 25 27 29 26 22 15 22 23 23 26 26 26 27 25 28 29 29 28 28 27 26 26 23 17 17 19 19
49 49 47 45 45 45 48 49 47 41 38 37 36 36 35 31 27 18 16 23 22 21 25 24 25 28 27 29 28 27 22 21 14 25 21 20 26 27 25 23 27 30 30 26 25 27 25 23 20 18 18 19 19 20
49 48 46 45 45 45 48 48 44 43 39 35 31 25 26 23 16 14 12 14 17 24 24 24 22 26 26 29 26 24 19 20 24 15 17 21 25 26 26 26 26 27 24 21 19 20 20 20 21 20 20 21 20 19
48 48 47 45 45 46 48 46 44 41 36 29 21 15 19 14 18 20 20 20 24 25 26 27 24 25 27 24 25 15 23 21 10 8 14 21 24 25 27 28 28 26 22 21 22 22 23 23 22 22 20 20 19 19
48 48 46 45 46 46 48 45 42 38 34 24 23 16 19 23 19 18 17 20 23 27 27 25 24 24 22 21 23 20 14 9 13 12 19 22 25 25 27 28 28 26 23 22 22 23 24 23 21 22 22 21 20 20
48 47 45 45 46 46 47 42 39 38 34 25 25 20 24 20 17 18 15 19 24 28 24 26 20 17 19 20 15 13 10 9 13 19 24 22 24 26 27 28 29 29 25 23 21 21 22 20 20 20 20 19 20 20
48 42 45 45 46 47 44 39 38 34 34 31 28 28 24 20 22 23 23 24 27 26 20 21 13 15 18 12 14 18 15 19 23 25 22 24 24 25 27 27 27 27 25 23 21 22 22 21 19 18 18 19 20 21
43 43 44 45 46 43 39 37 35 33 31 32 30 28 27 25 24 25 25 27 27 25 24 18 20 13 13 10 14 20 23 22 22 23 24 25 25 26 27 26 25 24 23 23 22 22 21 18 18 19 19 19 19 19
43 43 44 45 43 39 35 34 34 31 31 32 30 28 27 26 25 25 25 29 26 26 22 17 13 15 16 20 20 20 21 23 17 17 23 25 25 26 26 24 23 23 22 21 21 20 19 20 18 19 19 19 18 17
44 44 44 44 42 35 32 33 34 32 28 29 26 28 28 27 27 26 25 27 25 20 16 17 18 19 19 21 24 23 24 23 22 19 20 23 24 24 24 24 23 23 21 21 21 22 20 18 19 19 18 18 16 14
44 43 44 43 36 35 34 31 31 32 30 28 23 28 26 25 26 26 26 26 20 20 19 23 22 20 22 21 19 23 18 24 22 19 15 21 23 24 23 23 22 21 20 19 19 19 20 17 18 18 16 15 14 15
38 43 40 36 32 32 32 32 27 30 28 24 27 21 20 21 23 25 28 25 23 24 24 23 23 23 23 22 21 19 18 21 23 23 26 25 22 21 23 23 22 21 20 20 18 17 19 17 17 16 15 13 14 12
40 36 32 32 30 31 30 31 25 23 22 23 24 20 18 18 23 27 23 25 25 26 26 26 27 27 25 24 20 21 21 21 21 22 23 24 23 23 24 23 23 21 20 21 20 19 19 18 19 14 12 12 11 12
37 32 31 30 30 27 29 27 28 25 23 23 22 16 16 19 25 23 21 19 23 26 26 28 27 27 19 18 22 23 22 23 22 21 23 22 21 22 23 22 21 21 21 21 20 19 17 14 16 14 11 12 11 11
29 28 30 27 29 21 19 19 20 20 17 18 15 12 18 18 13 10 13 16 20 24 26 26 27 27 26 25 25 24 22 23 22 22 23 23 21 20 17 19 21 21 21 21 18 18 16 14 13 13 12 11 10 8
26 28 27 26 21 18 17 15 17 18 18 15 17 15 11 13 9 12 14 19 21 24 25 25 24 24 24 25 24 24 23 23 23 22 22 23 22 21 21 19 17 16 20 20 19 17 15 14 13 12 12 13 16 9
24 25 28 27 22 19 18 17 20 19 17 16 16 13 14 12 12 15 19 21 23 25 27 27 27 25 24 24 24 24 22 24 23 22 21 23 23 22 22 20 18 19 20 20 19 18 16 14 13 12 12 11 10 9
30 26 23 23 20 20 16 18 17 17 17 19 18 10 14 15 15 20 21 19 18 14 16 16 22 26 26 22 20 21 16 17 17 17 18 16 12 14 19 20 23 24 21 21 19 18 16 15 14 12 12 11 9 7
24 24 23 19 19 19 17 16 17 19 21 21 20 18 17 19 18 18 18 14 9 16 16 16 16 12 14 14 16 18 19 20 17 16 17 14 12 15 17 23 23 21 21 22 22 19 16 15 14 13 11 10 7 3
22 25 19 20 19 19 19 20 20 22 22 23 24 20 18 17 15 9 12 11 14 16 17 16 17 21 19 19 15 12 14 20 22 21 20 18 19 18 20 18 18 20 20 19 18 19 21 18 17 10 7 5 3 1
24 20 15 15 16 12 12 15 18 21 18 14 13 15 15 15 16 10 12 12 13 10 13 12 16 19 19 18 19 17 17 22 24 23 24 20 19 20 19 18 18 19 19 18 18 19 18 11 9 7 5 2 -3 2
19 17 17 13 11 12 16 17 19 20 18 18 10 4 9 11 12 18 14 13 13 16 22 21 20 20 22 20 21 20 26 26 25 24 23 21 21 19 18 17 18 18 17 16 16 15 12 11 8 7 4 -1 -6 -8
12 6 7 11 9 12 16 19 18 17 14 5 9 10 10 14 15 20 9 16 18 20 21 22 19 18 22 22 23 25 26 23 23 26 25 24 23 20 17 17 17 16 15 14 13 12 9 7 6 3 0 -2 -6 -10

GFSWCAN_sfc_dewp_090.txt.gz
Dewpoint
50 49 50 48 43 41 43 46 46 47 48 50 50 50 49 49 47 38 36 38 35 31 30 32 32 31 33 33 30 32 32 32 32 26 25 24 23 23 20 22 20 19 20 22 22 19 11 28 28 21 20 29 29 31
51 49 50 48 44 41 42 45 46 47 47 48 50 50 49 48 46 41 35 38 37 33 31 32 32 32 33 33 33 33 32 32 33 30 28 27 24 24 21 15 24 21 22 21 21 20 22 29 27 30 28 28 30 30
51 50 49 49 45 42 42 44 45 47 47 49 51 50 50 47 44 41 36 36 37 33 32 32 31 32 33 33 34 33 34 34 34 34 32 30 25 26 21 21 20 24 27 25 23 20 26 27 30 30 31 31 32 32
51 50 50 50 46 42 41 44 45 46 46 47 50 50 48 47 44 39 34 36 38 36 31 31 32 32 33 33 34 34 33 34 35 34 32 29 28 28 25 24 25 24 27 25 24 25 26 27 29 30 30 31 31 30
50 50 50 50 47 43 42 43 45 46 47 47 49 50 49 46 43 38 37 36 36 37 31 30 32 32 32 32 33 34 34 34 33 31 29 29 29 28 27 26 24 27 26 24 21 24 24 26 29 30 30 30 30 28
50 50 50 51 48 44 42 43 44 45 46 47 47 48 46 45 44 39 33 38 36 38 33 28 32 30 32 32 32 32 33 32 32 32 30 30 29 28 24 23 26 27 28 28 24 28 28 29 29 30 30 30 30 29
50 50 50 50 48 45 42 43 44 45 46 47 47 45 45 45 38 34 31 34 39 37 33 27 27 31 30 30 32 32 31 31 31 30 29 28 28 29 25 23 24 27 27 28 28 29 27 29 28 30 30 29 29 26
50 49 50 50 49 45 43 44 45 46 47 48 48 45 43 44 39 35 36 40 37 34 33 24 25 26 30 29 29 31 29 30 29 29 28 27 27 26 24 26 27 27 28 27 28 28 28 29 29 28 28 26 24 22
50 49 49 50 49 46 43 44 45 46 48 49 48 44 39 36 34 34 41 39 36 30 25 24 19 18 30 29 29 30 29 26 29 27 27 27 26 23 26 26 25 27 27 27 28 29 29 28 28 27 27 25 23 17
49 49 49 50 49 46 44 44 46 48 49 48 38 34 31 35 39 37 33 29 29 29 29 24 25 24 28 27 28 27 28 26 19 26 28 26 25 27 27 27 26 27 27 28 26 24 26 26 27 27 27 23 17 16
49 48 49 49 48 46 45 45 48 49 46 37 33 31 34 38 33 28 25 23 25 23 27 24 25 24 28 25 26 29 20 21 16 20 23 22 22 27 27 26 26 28 27 28 27 27 27 27 28 27 23 18 18 18
49 48 49 49 47 45 45 47 49 41 37 37 35 36 33 30 25 18 16 22 22 21 25 24 26 27 27 29 28 26 21 19 15 22 20 17 22 25 26 24 26 28 28 28 27 27 26 26 26 23 18 19 19 20
49 48 49 49 47 45 45 49 46 42 39 33 30 24 26 21 16 14 11 14 14 22 23 23 22 26 26 29 26 23 19 20 22 13 16 19 21 23 26 25 26 28 26 23 22 23 22 21 21 20 20 21 20 19
49 48 48 48 47 45 47 48 45 41 34 27 21 16 20 13 19 20 19 18 23 24 24 24 23 24 26 24 24 14 21 21 9 10 12 18 20 24 25 26 27 27 23 22 22 21 22 23 22 22 21 21 19 18
49 48 48 48 46 45 47 48 44 38 33 26 23 17 18 22 19 18 17 19 22 27 26 24 23 23 22 21 23 19 14 9 13 13 17 20 23 24 24 26 27 25 22 20 21 22 22 23 23 22 22 22 20 19
49 48 47 47 46 45 48 45 40 37 33 24 25 20 23 21 14 16 14 17 23 27 24 25 19 17 18 20 16 14 10 9 14 17 22 20 24 23 24 26 27 26 23 21 21 21 22 21 21 21 21 20 20 20
49 45 47 47 46 45 46 40 38 36 34 32 28 27 27 25 24 23 22 23 27 26 21 21 13 15 20 14 16 18 14 18 20 21 22 24 23 22 24 27 28 28 26 23 21 21 21 20 20 19 19 19 20 21
46 47 47 46 45 44 40 38 36 34 31 32 29 29 28 27 25 25 24 27 28 25 23 18 19 15 18 16 16 20 22 20 20 23 24 23 23 24 25 26 27 28 27 24 22 21 19 18 18 18 20 21 19 19
47 46 46 45 42 37 33 33 34 32 32 32 26 28 28 27 27 26 26 28 26 27 23 17 14 19 20 21 20 19 18 22 19 14 18 21 24 24 25 24 23 22 22 21 21 21 20 19 18 20 20 19 18 17
48 46 46 44 41 33 30 31 34 32 30 31 27 28 28 28 27 27 27 28 25 19 15 16 20 20 18 19 24 23 23 24 21 16 15 19 23 21 23 24 24 23 20 17 18 22 19 18 18 19 19 18 18 14
46 44 45 42 33 32 33 31 31 33 30 28 25 28 27 26 26 26 26 27 24 19 19 23 21 19 22 20 20 23 22 22 19 16 11 16 19 23 22 23 21 22 20 20 20 20 21 17 18 19 19 17 15 15
41 44 39 36 32 31 32 33 32 31 28 25 27 23 23 23 24 25 28 24 20 24 24 23 24 23 24 23 23 21 21 20 20 20 24 24 20 19 21 23 22 22 22 21 19 19 20 18 18 17 16 14 16 13
41 36 32 32 30 30 29 32 25 25 21 23 25 21 18 19 24 28 25 24 25 27 26 27 27 27 26 26 22 23 22 22 20 20 20 22 22 23 22 23 24 23 22 20 20 19 18 20 20 16 14 14 12 12
37 32 31 29 30 28 29 27 27 24 22 22 21 21 17 18 26 24 23 21 24 26 27 28 28 26 23 19 24 26 27 23 23 23 22 22 23 22 23 24 24 24 24 22 20 18 17 18 21 15 12 12 12 12
29 27 30 27 28 23 22 22 20 20 16 18 16 14 18 22 21 20 18 19 23 24 26 26 27 27 26 26 26 26 24 25 24 23 24 23 22 17 16 18 21 22 21 19 18 17 16 16 17 14 13 13 12 12
26 28 27 27 22 19 18 15 16 15 16 15 16 15 15 17 13 15 17 20 22 25 24 24 24 24 25 26 25 25 25 24 23 23 24 23 22 22 20 19 18 18 20 20 19 16 16 16 15 14 13 14 17 13
25 25 28 28 23 20 18 18 19 19 18 17 15 14 18 16 15 16 20 23 24 26 27 27 26 25 25 24 25 26 20 23 21 21 19 22 24 23 23 21 20 22 20 20 19 17 16 15 15 14 13 13 14 13
29 26 23 22 19 18 17 18 17 18 19 19 20 16 17 18 17 23 24 24 23 18 21 22 26 27 27 26 21 20 13 11 11 11 13 13 10 9 13 16 20 24 21 20 19 19 18 18 16 14 13 12 12 11
27 25 22 15 17 19 19 19 20 22 23 22 21 19 17 20 24 23 22 17 10 20 20 19 20 11 12 11 12 15 17 18 17 13 13 14 10 13 13 23 25 23 22 22 23 21 19 18 16 14 13 13 12 9
22 26 16 17 17 18 19 21 22 23 23 24 24 22 21 20 20 12 12 13 17 19 22 20 16 20 20 19 16 10 13 19 22 21 18 18 17 17 20 20 21 21 21 21 21 22 23 20 18 13 10 9 8 7
23 18 12 14 14 13 13 17 20 21 20 20 18 22 18 14 16 11 15 15 15 9 11 13 11 16 17 17 17 15 17 18 18 15 14 16 18 21 19 18 20 21 20 20 20 19 18 14 11 10 9 8 8 8
19 18 16 14 10 9 14 17 20 21 19 21 19 10 11 13 13 18 15 12 11 13 20 20 19 20 20 19 20 18 23 19 20 20 20 20 21 20 19 19 19 19 19 19 19 18 14 12 11 10 9 7 5 3
16 15 14 14 15 15 16 19 19 17 16 13 15 13 11 15 16 20 12 18 21 22 22 22 22 15 19 20 21 21 23 18 22 25 27 25 24 21 19 19 19 18 18 18 17 15 13 11 10 9 7 5 3 -1

GFSWCAN_sfc_dewp_093.txt.gz
Dewpoint
51 51 50 50 49 45 41 44 46 47 47 49 49 51 51 50 45 39 36 37 35 31 30 32 32 30 32 32 31 32 31 31 31 26 25 24 23 23 21 20 19 16 18 21 21 18 10 28 28 19 18 28 29 30
51 51 50 50 50 46 42 43 45 46 47 48 50 51 50 50 48 40 35 37 36 34 32 32 33 33 33 33 33 32 32 31 33 29 27 26 24 23 21 17 21 21 21 18 21 19 20 28 25 28 28 28 29 30
51 51 51 50 50 48 44 42 45 46 47 47 50 50 51 48 45 40 35 36 36 33 32 32 31 32 33 33 34 33 33 34 33 33 31 29 26 26 22 21 19 23 26 25 23 19 24 26 28 30 30 30 31 31
51 51 51 50 51 49 45 42 44 45 47 46 49 49 49 48 44 38 34 36 37 35 31 30 32 31 33 33 33 34 33 34 34 33 31 29 28 28 25 23 23 23 26 25 24 25 25 26 27 30 30 31 31 31
51 51 51 50 51 49 46 43 43 45 46 47 47 49 48 46 42 39 35 35 36 36 30 30 31 32 32 32 33 34 33 33 32 31 29 29 29 27 26 25 24 27 25 23 20 23 22 21 27 30 30 30 30 29
51 51 51 50 50 50 47 44 43 45 46 47 47 47 46 45 43 38 33 37 36 37 31 28 32 29 31 31 32 32 34 32 32 31 29 29 29 28 24 23 25 27 28 27 23 25 27 28 29 29 30 30 30 29
51 51 50 50 50 50 48 44 43 45 46 47 48 47 44 44 38 35 31 34 39 36 31 26 26 31 29 30 31 31 31 31 31 30 29 28 28 29 26 23 24 25 27 27 27 29 27 28 28 30 30 30 32 27
51 51 50 50 50 50 48 45 43 45 46 47 48 47 44 42 39 35 36 40 36 33 31 22 22 26 30 28 28 30 29 29 29 29 28 27 27 26 25 27 27 27 27 27 28 28 28 29 30 29 28 26 25 23
50 50 50 50 50 50 48 46 44 45 46 47 48 45 38 36 33 34 40 38 34 29 24 22 19 18 29 28 29 29 29 25 29 27 26 27 25 22 26 26 26 26 26 27 28 28 28 28 28 28 26 25 24 22
50 50 50 50 49 50 48 46 44 45 47 48 39 34 31 34 39 37 32 29 28 27 28 23 24 24 27 27 27 27 27 26 18 26 27 26 25 27 27 28 28 27 27 28 26 25 26 26 27 27 26 26 24 18
50 50 50 49 49 49 48 46 45 47 47 39 34 32 34 38 32 28 25 24 25 23 26 24 24 24 28 24 26 28 20 21 16 20 23 21 21 24 26 27 27 25 27 28 28 28 29 28 28 27 27 24 18 17
50 50 50 49 49 49 47 45 46 46 41 38 35 35 32 29 25 19 18 21 22 21 25 24 26 26 27 28 27 26 21 19 15 22 20 18 21 22 24 24 25 27 27 28 27 26 27 27 29 28 24 19 19 20
49 49 50 49 49 49 47 45 48 43 39 34 30 25 26 23 15 15 16 14 13 22 23 24 23 26 26 28 26 23 19 21 22 14 17 19 21 21 21 25 24 25 26 26 26 27 26 26 26 22 19 20 20 19
49 49 49 49 49 48 46 47 46 40 35 31 26 18 20 14 19 20 20 19 22 22 25 24 24 24 26 24 24 15 21 21 11 13 14 19 18 17 23 25 25 25 24 22 23 23 23 23 21 21 20 21 18 17
49 49 49 49 48 48 46 48 44 39 34 29 26 21 19 22 19 18 15 19 22 26 24 24 24 23 21 21 23 19 13 10 15 15 19 20 17 22 23 24 25 26 24 21 20 20 20 20 20 20 21 20 18 19
49 49 48 49 48 47 46 48 42 38 33 28 22 19 21 21 23 23 15 17 23 26 23 24 20 17 18 20 15 16 12 12 16 18 22 18 21 22 22 24 26 26 24 21 20 20 20 20 20 19 20 19 19 18
49 46 48 48 48 46 46 40 38 35 33 33 28 26 26 27 28 26 24 21 27 26 20 19 13 15 20 14 17 18 16 19 21 19 20 22 22 20 21 23 27 27 25 22 20 20 20 20 18 16 17 18 18 19
46 47 48 48 47 45 40 37 34 32 30 32 29 27 27 27 27 26 23 27 27 26 22 17 19 12 15 17 19 21 21 20 19 21 23 23 22 22 23 23 26 27 27 22 19 17 16 16 17 18 16 17 17 15
46 47 48 48 44 35 32 31 33 30 32 33 29 26 29 28 28 29 27 28 28 27 23 16 11 15 20 24 24 18 17 21 19 19 21 21 20 20 23 23 24 23 24 22 20 21 20 19 18 18 18 19 17 18
47 48 47 46 41 33 30 31 33 32 30 32 27 27 28 28 28 28 28 28 27 24 16 15 19 19 21 23 24 23 22 21 20 17 17 16 19 20 22 23 24 24 22 18 19 23 19 19 18 19 19 18 17 16
46 46 47 43 34 33 32 31 30 33 31 30 29 27 26 26 27 27 27 29 28 20 19 22 21 21 23 19 20 22 21 22 21 18 18 19 16 20 21 22 21 23 22 22 22 22 23 19 18 19 20 19 17 15
43 44 38 35 32 31 32 32 32 32 29 28 29 28 23 23 24 26 28 27 26 27 24 24 24 24 23 22 22 23 23 22 22 21 24 21 19 19 20 22 21 23 23 23 22 21 22 18 18 18 18 17 18 14
39 36 32 32 30 28 29 32 28 27 24 25 26 24 20 18 22 28 24 25 28 27 28 27 27 29 28 27 24 24 23 23 22 21 21 22 22 23 22 23 24 24 23 23 23 22 21 21 21 17 16 16 13 12
37 32 31 29 30 27 29 27 27 24 23 23 23 23 19 15 24 24 22 22 24 27 28 29 28 27 27 23 26 27 27 25 25 25 25 24 23 22 22 23 23 24 24 22 21 20 19 19 22 17 15 13 12 11
30 28 29 26 29 24 23 21 21 21 16 16 19 20 19 24 21 20 20 18 21 25 27 28 28 29 28 28 28 27 26 26 26 25 26 24 24 19 20 22 22 23 22 20 19 19 19 19 18 14 14 13 12 12
25 28 26 27 23 20 18 13 16 16 15 15 19 18 17 19 16 14 16 20 23 26 26 27 27 27 27 27 27 26 26 26 25 25 25 24 24 23 22 19 19 19 20 22 20 18 17 18 16 13 13 15 18 13
25 26 29 30 23 20 17 17 17 16 17 18 14 14 18 17 13 16 20 23 25 28 29 29 28 27 26 25 26 26 22 25 24 23 20 22 24 24 23 20 20 21 21 22 21 19 17 16 16 15 14 14 16 14
28 28 24 23 19 15 13 13 14 16 18 19 19 14 15 16 17 22 24 27 27 24 25 27 28 28 28 27 25 23 17 13 12 13 15 15 12 14 18 19 16 25 21 22 20 19 18 17 17 16 15 14 14 14
27 25 24 21 19 18 16 16 17 21 22 21 20 17 17 19 23 25 25 20 11 18 19 20 20 15 15 13 15 17 18 20 20 17 17 20 14 18 13 15 16 20 18 21 24 21 18 18 18 17 15 14 13 12
25 25 23 21 19 17 17 20 18 18 21 23 24 21 19 18 20 21 20 17 21 22 24 21 21 23 23 22 22 14 15 20 23 22 21 21 19 12 15 17 18 19 21 22 21 22 24 21 20 14 12 11 10 10
25 25 21 20 18 12 10 11 16 22 16 18 19 23 21 18 21 18 18 20 19 13 15 16 12 14 18 16 17 18 19 17 19 20 16 10 13 16 18 18 19 21 21 21 21 21 20 16 13 11 10 10 10 10
18 20 18 14 10 6 6 11 17 17 13 16 15 8 12 15 15 20 17 16 14 15 21 22 20 21 19 22 18 19 25 18 19 19 16 16 16 17 18 19 19 20 20 20 20 18 14 13 12 11 11 10 11 8
17 17 11 13 15 14 13 15 15 14 14 13 13 14 17 19 18 21 13 20 24 23 23 23 24 23 18 20 20 21 23 14 17 24 24 24 24 22 21 20 20 19 19 19 17 14 12 12 12 11 10 9 8 6

GFSWCAN_sfc_dewp_096.txt.gz
Dewpoint
53 52 51 51 50 49 45 42 44 46 48 48 49 50 50 51 48 39 36 37 35 31 30 32 33 31 32 32 29 31 28 30 29 25 25 24 23 22 20 20 17 17 16 19 20 17 10 27 27 18 17 26 28 29
53 52 51 51 50 50 47 42 43 45 47 48 49 51 51 49 45 40 35 37 36 34 31 33 33 32 32 32 34 31 30 31 32 28 27 26 24 21 19 17 20 19 19 14 20 19 19 27 24 27 27 27 28 29
53 52 51 51 51 50 49 44 43 44 46 47 48 51 49 48 45 39 35 36 35 32 32 32 31 32 33 33 34 32 33 33 32 32 30 28 26 26 22 21 18 22 24 23 23 19 24 25 28 29 29 28 29 30
52 52 52 51 51 51 50 46 43 44 45 46 47 50 50 47 42 37 33 35 37 34 30 30 32 30 33 33 33 33 33 34 33 33 30 29 28 27 24 22 21 21 25 23 24 24 24 25 26 28 29 30 30 30
52 52 52 51 51 51 51 47 44 44 45 46 47 48 48 46 43 39 35 34 36 36 29 29 31 31 32 32 33 33 33 32 31 30 27 28 28 27 26 25 24 26 24 22 20 21 20 19 25 28 30 30 31 30
52 52 52 51 51 50 51 49 45 44 45 46 47 48 47 46 43 37 33 37 36 36 30 28 31 28 29 30 31 31 33 32 31 30 29 29 29 29 24 23 25 27 27 26 23 24 24 27 29 28 30 30 31 30
52 52 51 51 51 50 50 49 46 44 45 45 47 48 46 45 38 36 32 34 38 36 31 26 26 30 29 29 31 31 30 30 30 29 28 27 27 29 26 23 25 25 26 27 28 27 27 28 27 29 30 30 33 28
51 51 51 51 51 50 50 49 46 44 45 45 46 48 46 42 38 34 35 40 36 32 31 19 22 25 30 28 28 29 29 28 29 29 27 27 27 26 25 27 26 28 27 27 27 28 27 28 29 29 28 29 27 25
50 51 51 51 51 50 50 49 47 45 46 46 47 45 38 36 33 33 40 37 33 29 24 22 19 18 29 28 29 28 29 25 28 27 26 27 25 24 27 27 27 26 26 26 27 27 28 28 28 27 27 26 26 24
48 50 50 51 51 50 50 49 47 46 46 47 40 35 32 34 38 36 32 29 28 27 27 23 23 21 27 27 27 27 27 26 18 26 27 26 25 27 27 27 27 27 28 27 26 25 27 26 27 27 27 26 26 24
49 50 50 50 50 50 50 49 46 47 47 41 35 33 34 37 32 28 26 25 25 23 26 24 24 23 28 24 26 28 21 22 16 20 23 21 22 24 25 25 27 26 26 27 28 28 28 28 27 27 26 27 25 21
49 50 50 50 50 50 50 49 47 46 43 40 37 34 32 28 26 21 19 22 22 21 23 23 25 26 27 28 27 26 21 19 16 22 20 20 22 24 23 24 23 25 26 27 27 27 27 28 28 28 27 26 21 18
49 49 50 50 50 50 50 48 47 45 39 35 31 29 28 24 17 20 19 18 15 22 22 24 23 25 26 28 25 23 18 22 22 14 17 19 21 21 20 21 24 25 25 26 27 27 26 25 27 26 25 21 19 19
47 49 49 49 50 50 49 48 47 43 39 33 29 24 24 17 21 23 23 24 25 24 24 24 22 23 26 24 24 15 22 21 10 16 16 20 19 17 19 23 25 24 24 23 24 25 25 24 23 22 22 20 19 18
45 48 49 49 49 49 49 48 46 42 36 32 28 23 21 23 19 21 20 24 25 26 26 24 23 23 21 20 23 19 14 11 15 15 21 21 17 16 21 21 24 25 25 23 21 20 19 20 20 20 20 20 18 18
46 48 47 48 49 49 48 47 43 40 34 31 27 21 22 19 19 20 21 23 26 26 25 25 20 16 17 19 16 15 13 12 17 19 23 18 17 20 20 21 24 26 25 24 21 20 21 20 19 19 19 18 18 18
45 45 48 48 49 49 47 40 37 32 32 31 30 27 25 23 27 27 25 25 27 26 24 21 15 17 19 12 14 20 19 20 22 21 20 20 20 18 19 20 24 26 26 24 22 20 20 20 19 17 17 18 18 18
43 45 47 48 48 46 39 33 33 32 29 32 30 28 26 27 28 26 25 27 28 27 24 18 18 12 13 14 19 24 23 21 20 21 22 20 21 20 21 21 23 26 27 24 21 18 17 17 18 18 19 18 16 15
43 45 47 48 46 35 33 31 32 29 30 33 32 26 26 27 29 29 27 28 28 28 24 16 11 13 17 23 27 28 20 20 19 18 20 21 22 21 21 23 24 23 24 21 21 21 21 20 19 19 18 18 17 18
45 46 46 47 41 34 31 31 32 31 30 32 32 27 24 26 28 28 28 29 28 28 26 18 17 18 21 25 28 27 24 21 20 16 16 17 17 20 21 22 22 23 23 19 19 25 21 20 19 19 18 18 17 16
42 42 45 45 35 33 32 31 29 32 32 31 30 29 27 22 25 28 28 29 28 26 22 23 22 22 24 23 22 24 21 21 20 18 16 21 21 19 21 22 22 22 23 23 23 24 27 22 22 19 19 20 19 17
39 44 38 36 33 32 31 32 32 32 29 29 29 31 25 23 21 26 29 28 27 30 28 27 27 26 25 24 24 23 22 22 21 21 25 25 21 21 20 21 21 22 23 24 24 23 24 25 20 19 19 19 20 16
39 37 33 33 31 28 29 32 29 28 25 26 27 27 23 21 21 29 26 26 28 29 31 30 30 30 29 29 24 23 25 24 22 22 22 23 23 24 25 24 24 24 24 24 24 24 23 24 23 19 18 19 16 14
38 33 30 29 30 26 29 27 28 25 25 24 25 24 19 20 25 24 22 23 26 26 29 31 30 29 29 29 28 28 28 27 25 25 26 25 25 24 23 23 23 23 24 23 23 22 20 22 23 20 17 16 14 13
30 29 30 26 30 20 20 20 18 21 19 16 19 22 18 22 21 21 22 19 23 25 28 29 30 30 29 29 29 29 29 29 27 26 28 27 26 24 23 23 23 23 23 21 20 20 20 20 21 17 16 15 14 12
26 28 26 24 22 21 19 14 15 13 14 13 19 16 17 21 18 17 16 21 25 26 27 28 28 28 28 29 29 29 29 28 28 27 28 27 26 26 26 25 23 21 21 24 22 20 19 19 17 15 15 16 20 13
24 26 25 27 23 19 16 15 15 13 10 13 13 15 19 19 18 18 19 22 25 29 30 30 29 28 28 28 28 29 23 27 27 25 22 24 26 26 26 24 22 22 20 22 22 20 19 18 18 16 15 15 17 14
23 23 23 25 21 14 11 10 10 12 14 16 17 11 15 17 19 22 22 23 24 26 30 30 31 30 29 28 23 24 17 15 12 14 18 19 18 21 22 20 18 25 19 21 21 19 19 19 18 16 15 15 16 14
26 27 24 22 17 17 19 15 15 18 21 19 17 15 16 19 20 22 25 24 17 17 20 22 22 17 13 12 15 19 19 21 21 19 19 22 19 21 17 16 15 17 17 18 26 22 17 18 17 16 15 15 16 16
24 28 22 12 18 18 19 19 13 14 20 22 22 20 19 18 19 20 20 17 15 20 21 19 19 23 24 23 21 15 15 21 25 24 23 22 22 14 11 13 15 16 17 18 18 18 24 21 21 16 13 13 14 13
25 22 11 14 15 12 10 9 11 22 14 13 15 21 23 18 18 18 19 20 21 13 16 16 16 22 23 23 21 21 21 21 21 23 16 16 14 15 16 16 18 19 19 19 19 20 20 15 13 12 11 13 13 12
23 23 16 10 9 4 4 9 11 17 14 13 14 6 13 13 16 21 19 15 15 17 22 23 22 23 22 25 24 24 27 23 22 21 21 18 16 15 16 18 19 20 19 19 20 19 14 13 13 13 13 11 11 9
20 14 2 7 8 9 9 12 12 17 15 15 13 12 14 20 21 24 16 21 25 25 24 24 26 26 22 22 22 22 24 18 19 24 24 24 23 20 18 19 19 19 19 19 17 14 12 11 11 10 11 11 10 8

GFSWCAN_sfc_dewp_099.txt.gz
Dewpoint
53 53 53 52 51 51 49 46 44 45 46 48 48 50 51 49 46 38 36 36 35 31 30 32 32 31 31 31 28 27 26 27 28 24 23 23 22 21 20 20 17 15 16 19 20 18 10 26 27 17 17 26 28 30
53 53 53 52 51 51 50 47 44 44 46 47 48 50 51 49 45 40 35 37 35 34 32 32 33 32 32 33 33 31 27 29 30 26 26 26 25 20 18 15 19 17 17 13 18 16 18 27 24 26 23 26 28 28
53 53 53 53 52 51 50 49 46 44 45 46 47 48 50 48 43 38 34 35 35 33 32 31 30 31 33 33 34 32 32 32 31 31 29 27 26 26 22 20 18 21 23 22 21 20 23 24 25 28 28 27 27 29
52 53 53 53 52 51 51 50 47 45 44 45 46 48 49 47 42 37 33 35 36 34 30 30 32 30 32 33 33 33 33 33 32 32 29 28 27 26 23 22 21 20 24 22 23 23 23 23 24 25 28 29 29 30
51 52 52 53 52 51 51 51 49 46 45 45 46 47 47 47 45 39 35 34 35 35 29 31 30 30 31 33 33 32 33 32 31 29 27 28 28 26 25 24 23 24 22 20 19 21 19 19 22 27 27 29 30 30
51 52 52 52 52 52 51 51 49 47 45 45 46 47 48 45 43 37 34 36 35 36 30 28 31 28 29 30 31 31 32 31 30 30 28 28 28 28 24 23 25 26 26 25 22 23 23 24 27 29 28 29 30 30
51 51 52 52 52 52 51 51 50 47 45 45 46 47 47 43 38 36 33 33 38 36 30 26 26 30 29 29 30 30 29 29 30 29 28 27 27 30 26 24 25 25 27 27 27 27 26 27 27 29 29 30 33 30
48 50 51 52 52 51 51 51 50 48 45 45 46 47 48 42 38 34 36 41 36 32 30 20 22 24 29 28 28 29 28 28 28 28 27 27 27 27 25 28 26 26 26 27 27 27 27 27 28 28 28 30 28 27
46 47 49 50 51 51 51 51 50 47 46 45 46 45 39 36 33 33 40 37 33 30 25 23 20 18 28 27 28 28 28 25 28 27 26 28 26 24 28 28 27 28 27 26 27 27 26 27 28 28 28 27 27 26
47 46 48 47 49 51 51 51 50 47 46 47 42 36 32 34 38 38 32 30 28 28 28 23 23 20 27 26 27 26 26 25 17 26 27 26 25 27 27 28 28 28 27 27 25 24 26 26 27 27 27 27 27 26
48 48 48 49 50 50 51 51 49 47 47 41 37 35 34 37 31 28 26 25 26 24 27 25 24 24 28 24 26 28 20 22 15 20 23 22 22 25 26 26 27 28 27 27 27 27 27 27 27 27 27 27 27 25
48 48 49 49 50 50 50 50 48 45 43 41 38 35 33 29 26 21 19 22 23 23 24 23 24 26 27 28 27 26 22 21 17 21 23 21 23 24 23 23 23 23 24 26 26 26 27 27 28 27 27 27 26 24
47 47 48 49 50 50 50 50 47 45 42 39 34 31 29 26 17 22 21 18 17 24 23 25 24 26 26 28 25 23 21 23 21 12 16 19 22 21 20 20 21 24 25 27 27 27 27 26 27 27 26 26 23 20
46 47 47 47 49 50 50 50 47 44 41 34 31 27 24 17 21 23 24 24 25 24 24 24 22 25 26 25 24 18 23 21 12 16 15 20 20 20 16 21 23 22 25 24 23 25 25 25 24 24 26 23 19 18
45 46 46 46 48 49 49 49 46 44 37 32 31 26 24 24 20 19 20 24 24 27 26 24 22 23 22 22 23 19 15 13 16 16 19 21 20 15 17 19 21 24 25 25 23 22 20 20 21 20 21 21 19 18
45 46 44 45 46 48 49 49 45 40 34 31 30 22 21 16 16 17 20 26 27 27 27 26 21 17 19 20 17 17 14 14 18 20 23 18 15 16 18 19 21 25 25 25 24 22 23 22 21 21 20 20 19 18
45 41 45 47 47 48 48 40 35 32 31 30 29 28 23 19 20 23 24 26 29 27 26 25 21 20 20 12 14 19 18 24 24 23 21 20 17 17 18 19 21 25 26 26 25 22 22 22 20 18 19 19 19 19
40 41 44 46 46 45 37 36 33 32 29 31 30 29 26 25 26 26 26 28 28 27 26 24 23 19 17 12 16 23 26 27 21 22 21 19 19 19 20 20 20 24 26 25 25 23 20 19 20 20 20 20 18 17
40 41 44 45 44 37 33 32 32 28 28 31 32 27 25 26 28 29 28 29 29 28 26 24 22 16 17 20 25 29 28 25 19 18 20 20 20 20 22 22 24 22 24 23 23 24 22 21 20 20 19 19 18 18
43 44 44 45 42 35 32 31 32 30 30 30 32 28 25 27 28 29 28 30 29 29 27 26 21 18 18 23 28 29 28 23 20 17 17 17 17 21 23 23 21 22 23 21 22 26 22 22 21 20 19 19 18 17
40 40 42 42 36 36 34 31 29 30 32 30 29 30 28 22 22 27 28 30 29 28 25 28 27 25 24 23 24 27 25 21 19 18 16 20 18 20 21 22 23 21 21 21 22 23 28 25 24 22 20 21 20 18
37 41 38 37 33 33 31 33 31 32 31 30 29 29 22 21 22 25 29 28 28 30 29 29 29 29 27 27 26 26 24 23 22 21 26 25 20 21 21 22 22 21 22 23 22 22 22 25 24 21 20 20 22 17
40 38 33 33 32 31 24 32 29 29 26 27 29 28 26 21 20 28 26 27 28 29 30 31 31 31 30 30 30 29 27 25 23 23 22 22 22 24 25 25 24 24 24 24 23 24 24 25 26 22 20 21 18 17
39 33 30 29 31 23 28 26 28 26 26 25 24 20 19 15 25 25 23 23 27 28 29 30 31 31 31 31 30 30 31 29 27 28 27 23 23 23 24 24 25 25 25 23 22 24 23 23 25 24 19 19 18 16
30 28 29 27 24 23 21 20 15 20 16 11 19 18 17 21 21 22 16 20 27 27 29 29 30 30 30 29 30 30 31 31 29 29 28 27 26 27 27 26 25 24 23 22 21 21 19 21 23 21 19 18 16 15
25 28 26 22 19 21 18 14 17 13 13 10 18 17 18 21 20 19 17 23 26 27 28 29 28 28 28 29 29 30 30 30 29 29 29 29 28 28 28 25 24 23 23 24 22 21 19 20 20 18 18 19 22 14
25 24 27 27 26 21 18 14 14 12 11 16 12 16 20 18 16 18 20 21 25 28 30 31 30 29 29 29 30 30 24 29 29 27 23 27 28 28 29 25 23 23 21 22 22 21 20 19 19 18 17 16 18 14
23 21 20 23 21 17 12 10 11 12 13 15 16 11 14 16 18 22 22 21 20 21 28 30 32 32 32 31 30 25 18 15 12 15 18 21 20 21 21 19 18 26 21 21 22 21 20 20 19 17 16 16 15 13
25 26 22 22 18 20 20 15 14 16 19 17 16 14 15 18 18 18 21 17 13 16 18 23 27 22 21 19 19 19 19 22 22 20 20 23 20 22 19 20 21 21 20 21 26 22 18 18 18 17 16 16 14 12
23 23 18 13 18 19 19 18 13 12 17 20 20 18 18 20 18 15 16 13 16 22 24 22 23 24 26 24 25 19 17 22 26 25 23 23 25 20 16 16 17 19 17 20 21 20 26 22 22 17 14 13 13 12
24 26 20 15 13 13 13 8 7 21 12 10 10 17 22 23 20 18 20 24 26 18 15 20 19 23 25 25 25 25 25 23 21 24 21 20 20 18 16 16 18 19 19 20 21 21 22 16 13 11 11 11 11 12
23 23 16 12 12 3 0 5 6 10 6 7 17 8 9 10 16 24 25 19 19 21 24 25 24 25 25 27 28 28 30 29 26 23 24 23 19 17 18 18 19 20 20 21 21 19 14 13 12 11 10 9 10 9
19 20 13 7 4 10 10 8 6 6 2 3 11 19 22 19 19 24 18 23 26 26 26 26 27 27 28 26 27 28 29 25 24 27 27 27 25 22 20 20 21 20 19 20 18 15 13 11 10 8 8 9 9 6

GFSWCAN_sfc_dewp_102.txt.gz
Dewpoint
53 54 54 53 52 51 50 50 47 45 45 46 48 49 51 49 45 41 39 39 38 35 34 33 33 33 34 34 29 29 30 30 30 25 23 22 22 20 22 21 17 16 18 19 21 21 17 24 28 19 18 19 27 31
52 53 54 53 53 52 51 50 49 46 45 45 47 48 50 49 45 40 38 38 37 37 35 34 34 34 34 35 34 34 30 31 31 26 27 26 24 24 19 11 20 17 16 13 19 16 20 27 26 27 22 26 28 30
51 51 53 53 53 53 51 51 50 48 46 45 46 47 49 48 43 39 38 39 38 36 35 33 32 33 33 34 36 34 34 34 34 34 30 29 26 26 21 21 22 21 22 20 21 18 22 22 23 27 28 28 28 30
50 51 52 53 53 53 52 51 51 49 46 45 45 47 48 47 43 38 37 38 39 36 34 33 33 32 33 34 34 35 35 35 35 35 33 31 27 28 23 22 21 19 23 21 21 21 22 23 24 24 25 27 28 29
50 51 52 52 53 53 52 52 51 50 48 46 45 46 48 47 45 41 38 37 38 37 33 33 33 32 32 34 34 34 34 35 35 34 33 31 31 29 28 27 26 24 21 20 17 19 19 20 22 27 27 28 28 29
49 50 51 52 52 52 52 52 51 51 49 47 45 46 47 46 45 39 37 38 37 39 36 31 33 31 32 33 33 33 34 34 34 34 33 33 31 30 29 26 27 27 25 24 21 23 22 24 26 28 28 29 29 30
49 49 50 51 52 52 52 52 51 51 49 47 45 46 47 45 41 37 35 36 38 39 33 32 33 31 31 31 32 32 33 34 34 33 32 31 31 33 31 25 25 27 27 27 27 26 26 28 27 29 29 30 32 31
46 46 48 49 50 51 52 52 51 51 49 47 45 46 47 45 41 38 38 41 38 33 33 32 31 26 31 30 30 32 31 32 32 32 30 30 30 31 29 30 29 27 26 26 26 27 27 28 28 29 30 31 30 30
47 47 46 47 47 48 49 51 51 51 49 47 46 45 41 40 37 35 40 38 35 33 33 29 29 30 30 30 31 30 30 30 30 30 29 29 29 27 30 29 29 29 29 29 28 28 27 27 27 28 29 30 30 29
47 47 48 47 48 48 49 50 51 50 48 47 43 39 37 36 38 41 34 33 33 33 31 29 29 28 30 29 30 30 29 29 29 28 29 28 28 30 29 29 29 30 29 28 28 29 29 29 28 28 28 29 30 30
47 47 47 48 48 49 49 50 51 48 47 42 39 37 36 37 33 30 31 30 29 29 30 29 29 28 29 30 30 30 30 29 27 27 27 27 25 27 28 26 27 28 29 28 28 29 28 28 29 28 28 29 29 29
46 47 47 47 48 49 50 50 50 45 43 42 39 36 34 32 30 29 28 26 26 28 27 26 26 28 28 30 30 29 28 26 24 25 25 23 27 27 26 25 26 25 24 24 25 25 26 27 28 29 29 29 29 29
46 46 47 47 48 48 49 50 49 45 43 41 36 34 33 32 25 26 23 26 25 28 27 27 28 28 28 29 28 27 26 24 24 23 22 24 25 23 21 21 22 26 26 28 28 28 28 28 29 29 29 29 29 28
45 46 46 46 47 46 48 49 49 45 41 34 32 28 28 26 25 27 27 30 29 28 27 28 27 27 28 28 26 25 25 23 22 20 22 28 25 23 21 20 21 23 27 28 29 29 29 30 29 29 29 29 27 25
44 45 45 45 46 46 46 48 47 44 37 32 32 28 28 28 27 27 28 26 26 28 28 27 27 25 27 26 24 23 20 20 21 23 28 30 24 21 15 19 20 23 25 26 26 27 28 28 28 28 28 28 25 23
43 44 43 44 45 45 45 47 46 40 34 33 31 31 27 26 26 24 25 28 29 29 28 29 26 24 25 25 21 22 20 19 25 28 30 23 19 18 18 19 20 23 25 25 25 25 26 26 26 27 25 26 24 22
42 40 43 44 45 46 46 41 38 32 32 30 30 32 29 27 30 26 24 26 29 29 29 28 25 25 23 22 20 23 22 27 31 30 26 24 22 20 21 20 20 23 25 26 26 26 26 25 25 25 24 24 23 22
38 40 42 44 44 41 39 37 34 32 29 31 30 32 29 27 27 26 26 29 30 29 29 28 26 23 22 21 21 26 27 31 29 27 25 23 21 20 21 21 21 23 26 29 29 29 27 26 25 24 25 25 23 22
40 41 42 43 42 39 34 33 33 29 30 32 33 30 30 29 28 29 28 30 31 30 28 27 25 24 21 23 27 32 32 30 27 20 20 22 22 20 23 25 26 26 26 27 27 26 26 26 24 23 23 22 21 20
41 42 42 43 42 36 32 32 33 30 28 31 33 31 30 29 29 29 29 30 29 31 28 26 26 26 21 22 28 28 30 29 24 21 23 25 20 24 25 25 23 24 25 26 26 27 26 25 24 23 22 22 20 19
39 39 41 41 38 36 34 32 29 29 31 31 33 31 32 29 29 29 29 31 30 29 29 30 29 29 29 23 23 27 26 26 22 22 23 29 29 21 23 25 27 24 22 21 20 20 26 25 24 24 23 23 22 21
37 40 37 38 33 33 32 34 32 32 31 30 30 31 29 26 26 28 32 29 29 31 30 30 30 30 30 30 30 29 28 27 25 24 28 27 23 23 23 24 26 26 25 25 22 21 21 22 25 25 23 22 24 21
39 38 34 33 31 31 29 33 30 30 27 27 30 28 28 24 24 29 28 29 30 30 31 31 31 32 32 31 32 31 31 31 29 28 27 26 25 26 27 27 27 29 28 28 26 26 26 26 25 26 23 23 22 20
39 33 31 29 30 26 30 27 28 28 28 26 26 23 23 25 26 26 26 26 28 29 30 30 30 30 30 31 31 31 32 32 31 30 30 30 30 27 25 25 25 27 27 27 28 27 26 24 26 26 22 22 21 20
28 27 29 26 29 26 22 23 24 24 22 19 20 21 21 23 23 23 21 23 27 28 29 30 30 30 29 29 30 30 32 32 32 31 32 32 30 29 29 28 26 26 27 28 27 25 26 24 25 25 23 22 22 21
23 24 25 25 21 19 20 21 20 17 14 18 19 18 22 22 20 19 20 25 26 27 28 29 29 29 29 30 29 30 30 32 32 32 32 32 30 30 31 30 29 28 26 27 28 26 25 23 24 24 22 23 25 21
20 19 27 27 25 21 19 16 16 14 13 15 15 19 20 19 17 19 22 24 26 30 31 32 31 30 30 30 30 31 31 32 33 32 30 31 32 31 31 31 30 29 25 26 26 25 24 23 23 23 22 22 23 20
24 24 23 24 23 19 15 14 14 13 16 16 18 17 20 19 20 24 25 25 26 26 26 27 30 32 32 32 33 32 31 29 26 25 26 25 24 27 29 30 27 27 26 25 26 25 25 24 23 22 21 20 21 19
23 24 23 22 20 19 21 16 16 18 19 19 21 19 18 20 22 22 24 24 19 20 23 26 28 27 28 28 27 28 29 26 27 27 27 27 28 29 23 25 26 28 25 26 27 25 23 23 23 21 20 20 19 18
19 23 23 19 21 20 20 20 17 17 19 21 21 21 20 21 22 22 21 20 21 25 27 28 29 28 27 26 27 28 25 26 28 29 28 27 29 30 25 24 24 25 25 25 26 26 27 25 24 20 17 16 16 15
20 25 22 21 19 22 21 14 13 20 14 16 15 20 23 24 22 21 23 26 27 28 28 27 27 27 24 25 26 26 26 27 26 28 30 30 27 26 24 22 22 23 24 24 25 25 25 22 18 16 16 15 15 15
22 22 19 18 17 6 3 14 14 17 14 13 19 14 13 14 18 24 24 24 25 25 27 27 26 25 27 27 27 28 29 30 28 26 27 28 26 25 23 21 21 23 23 23 24 24 20 18 16 15 15 14 14 12
23 20 13 5 5 10 12 9 11 11 7 6 11 17 22 21 20 22 20 25 26 25 25 26 27 28 28 28 27 28 29 29 29 30 29 29 29 25 23 22 22 23 22 22 22 19 17 16 14 13 14 13 10 10

GFSWCAN_sfc_dewp_105.txt.gz
Dewpoint
52 52 53 54 53 53 52 51 50 47 46 45 46 48 50 50 47 42 41 41 41 36 34 33 34 33 34 32 24 30 30 32 31 25 21 19 20 18 19 16 15 16 18 20 20 20 19 26 27 18 19 21 26 28
51 51 52 53 54 53 53 52 51 49 46 45 45 47 49 50 47 42 39 39 37 38 37 35 34 35 34 34 33 34 31 29 30 26 25 24 21 21 16 8 19 16 14 12 16 18 21 26 22 25 24 24 27 28
50 50 51 51 53 53 53 52 52 51 48 45 45 45 48 49 46 42 39 40 40 38 36 35 33 34 34 35 37 31 34 35 34 35 30 27 25 24 17 18 17 19 19 19 16 15 19 20 22 25 28 27 27 29
50 50 50 51 52 53 53 53 52 51 50 47 45 45 47 48 47 42 42 40 40 38 35 33 33 33 34 34 35 36 36 36 36 36 33 30 25 26 21 20 21 18 22 19 18 19 20 20 21 22 23 24 26 27
47 49 50 51 51 52 53 53 52 52 51 48 46 45 45 47 47 44 44 41 39 38 34 33 34 33 33 34 34 35 35 35 35 35 34 31 30 30 27 27 25 23 21 19 16 19 18 18 22 26 26 27 28 28
48 48 50 50 51 51 52 52 52 52 51 49 47 45 46 47 44 41 39 39 37 40 36 32 34 32 33 33 34 34 35 35 35 34 34 33 34 30 27 23 24 25 24 23 20 23 22 23 25 26 27 28 29 29
47 47 47 48 49 51 51 52 52 52 51 50 47 45 46 47 44 39 37 37 38 40 33 34 35 32 32 33 33 33 34 34 34 35 33 32 32 33 31 24 22 26 27 27 26 26 25 26 26 28 29 29 31 31
46 47 46 47 47 48 48 50 51 52 51 50 47 45 46 47 45 41 41 41 39 36 34 35 35 27 32 31 30 33 32 33 34 33 32 31 32 32 30 28 27 26 27 27 27 28 27 28 28 28 29 30 31 31
46 47 47 47 45 47 48 47 49 50 51 49 46 46 43 42 39 38 41 40 38 36 37 34 32 34 31 31 32 31 32 30 32 30 30 31 30 30 30 30 29 30 30 29 29 29 28 27 28 28 28 29 30 30
46 46 47 47 48 48 48 49 49 50 49 47 44 40 37 38 39 41 37 35 35 35 34 32 33 32 31 30 31 31 31 30 30 29 30 28 28 30 30 30 31 31 31 31 29 30 30 30 30 27 27 29 30 30
45 46 46 47 47 48 48 49 49 48 46 43 39 37 38 38 35 33 33 32 33 31 33 32 32 31 30 31 31 31 33 32 28 30 27 28 27 28 28 28 29 29 29 29 30 30 30 29 28 27 28 29 30 31
45 46 46 47 47 47 48 49 48 45 43 42 39 37 36 34 34 31 32 30 29 29 31 30 29 29 30 31 30 30 30 28 26 28 26 24 29 30 28 27 25 25 25 27 28 28 25 25 26 28 29 30 31 31
45 45 45 45 46 46 47 48 49 45 44 42 37 34 34 34 28 28 25 28 29 31 30 29 30 29 29 31 30 29 28 26 26 25 24 27 30 27 22 21 24 26 26 27 28 29 28 29 29 29 30 31 31 31
44 45 45 45 45 45 46 47 47 45 41 35 32 30 31 30 29 30 29 34 33 32 30 30 30 29 29 29 28 28 27 24 25 23 23 32 30 27 24 24 22 20 27 30 31 31 30 31 31 31 31 30 29 29
43 44 44 44 45 45 46 46 47 45 38 33 32 30 30 32 33 33 34 31 29 30 30 29 30 27 30 29 26 27 23 23 24 25 33 36 27 24 20 19 20 22 25 27 29 30 30 31 30 30 30 30 29 28
42 43 41 43 44 44 45 45 45 41 35 33 32 30 31 31 34 30 31 32 32 30 31 31 30 27 27 27 25 24 23 23 31 34 35 28 25 22 20 20 20 21 24 25 26 26 28 29 29 30 29 28 29 27
42 37 41 42 43 44 45 43 39 34 33 31 31 34 35 35 34 34 30 28 30 30 31 31 28 26 26 25 23 26 26 33 37 36 34 28 26 26 24 22 21 21 23 27 26 27 27 28 28 28 27 27 27 26
39 40 42 42 42 41 41 40 35 33 30 33 31 33 32 32 32 31 26 29 30 31 32 32 32 26 26 24 25 29 30 33 32 31 29 29 26 24 24 22 22 23 25 30 31 31 31 29 28 27 29 30 27 26
40 42 42 42 41 38 34 33 34 32 32 35 33 34 33 32 32 32 31 30 31 32 32 31 30 27 27 29 30 33 35 33 27 27 24 24 24 24 26 27 27 27 27 27 28 26 26 28 27 26 26 25 24 23
42 42 42 42 41 36 33 33 34 32 31 31 34 33 33 33 32 32 31 30 30 31 31 29 28 28 29 28 31 31 30 29 27 26 24 23 23 27 29 28 27 28 26 26 27 28 26 26 26 26 26 25 24 23
40 40 41 41 39 36 33 33 31 31 33 31 35 33 33 33 32 32 32 32 30 30 30 31 30 29 30 30 30 30 27 26 24 24 22 24 24 29 30 31 31 28 27 26 26 25 27 24 23 25 25 26 25 24
38 40 39 38 33 33 32 34 33 33 31 32 32 33 32 30 30 31 33 30 29 31 31 29 30 31 31 30 31 31 31 30 30 29 31 29 27 28 28 29 29 29 29 28 25 22 22 22 23 24 25 25 26 25
38 38 34 33 31 30 28 35 30 31 27 28 31 30 30 30 30 32 29 31 31 32 31 31 31 31 31 31 32 32 33 32 31 31 30 30 30 31 31 31 30 32 31 30 29 29 29 29 26 25 25 26 24 23
39 33 31 30 29 25 31 28 30 29 30 28 27 24 26 28 28 27 27 28 28 28 29 30 31 30 30 31 31 31 32 32 32 32 32 31 32 31 31 30 29 28 30 30 30 30 30 26 27 26 25 25 24 23
30 29 29 26 28 25 24 24 26 27 24 25 24 24 24 26 24 25 24 25 27 28 29 29 30 30 30 30 30 31 32 32 32 31 32 33 32 32 32 32 31 31 31 31 29 29 29 28 27 26 26 25 24 24
24 25 25 23 24 23 22 20 22 22 21 22 24 25 25 25 23 23 23 24 25 27 29 29 29 29 29 30 30 31 31 33 33 32 32 33 33 33 33 32 32 32 30 30 30 30 29 27 26 27 26 26 27 24
20 22 27 28 26 25 23 20 20 21 20 20 24 21 22 20 21 24 24 28 27 30 32 33 32 31 30 30 31 32 32 34 34 33 33 32 33 34 35 33 32 32 31 30 30 29 29 27 26 26 25 25 25 24
25 25 21 24 25 24 21 20 21 20 22 23 21 20 21 22 21 25 30 33 34 35 34 32 32 33 33 32 33 32 34 34 33 31 30 30 30 30 31 33 34 32 31 29 28 29 28 27 26 25 25 24 24 24
25 25 25 20 21 22 23 23 23 23 22 22 21 21 22 25 27 27 29 29 31 29 27 28 29 31 30 30 31 32 33 32 29 28 28 28 30 33 32 30 31 31 31 29 28 27 26 26 26 25 25 24 24 22
23 25 21 19 18 19 21 24 24 26 25 24 24 24 23 24 26 30 30 29 27 27 28 30 31 33 30 29 28 28 30 30 29 28 27 28 31 34 32 29 28 30 29 28 28 27 27 27 25 23 21 20 20 19
24 24 22 20 19 21 23 24 21 20 21 23 24 23 23 25 26 29 28 29 29 31 31 30 29 30 29 28 27 27 26 29 29 29 29 31 34 33 32 29 28 28 28 28 27 27 27 25 21 19 19 18 18 18
23 21 20 18 20 22 16 18 22 21 23 22 21 22 22 22 22 24 26 30 28 27 28 29 27 26 27 28 28 29 30 29 29 29 28 29 31 32 29 26 26 27 27 26 26 26 25 22 20 19 18 17 17 16
23 23 22 21 21 19 19 18 17 19 19 19 21 23 24 24 22 23 26 30 28 27 26 27 28 28 28 28 28 29 31 30 30 31 32 31 31 31 27 25 25 25 26 26 25 25 21 20 19 18 17 16 15 14

GFSWCAN_sfc_dewp_108.txt.gz
Dewpoint
53 52 52 52 53 53 53 52 51 49 48 47 46 47 50 49 47 43 43 42 41 39 37 34 34 32 34 33 26 31 32 33 32 27 22 21 21 20 20 17 20 22 22 23 23 21 18 26 26 17 18 23 26 27
53 51 51 51 52 53 53 53 52 51 49 46 46 46 48 49 47 46 41 40 39 38 38 36 35 35 35 36 35 34 33 29 31 28 26 24 22 20 17 13 19 15 16 16 21 22 23 27 24 26 23 25 27 27
52 50 50 50 51 52 53 53 53 52 51 47 46 46 46 48 47 45 42 41 41 39 38 37 35 35 35 35 37 34 34 36 34 36 33 29 26 25 20 19 20 18 18 19 17 15 16 22 26 26 27 27 27 28
49 49 49 50 51 52 52 53 53 52 51 49 47 46 45 47 47 45 44 42 41 39 35 34 34 33 34 34 35 36 36 36 36 36 33 31 27 27 23 22 20 21 21 20 19 19 18 19 19 21 23 25 26 26
47 47 48 50 50 51 52 52 52 53 52 51 48 46 45 46 47 45 45 43 40 38 34 35 35 33 33 34 34 35 35 35 35 34 33 31 31 29 29 28 25 23 19 20 15 18 19 19 22 25 25 26 28 27
47 47 48 48 49 50 51 51 52 52 52 51 49 46 45 46 45 43 40 40 38 39 35 32 34 32 33 33 34 34 35 35 35 35 34 34 34 31 27 24 26 26 23 21 20 21 22 24 24 26 26 27 28 29
46 47 44 46 46 48 48 49 50 51 52 51 49 47 45 46 45 41 39 38 38 40 35 32 33 31 33 33 34 34 34 34 34 34 33 32 32 32 30 25 23 24 26 26 24 26 25 26 25 27 28 29 31 31
45 46 46 46 46 46 47 48 48 49 50 52 49 46 45 46 46 42 40 42 40 37 35 31 31 28 32 31 30 33 32 33 33 32 33 31 31 31 29 29 29 28 26 27 27 27 27 28 28 28 29 30 30 30
45 46 46 46 47 47 47 47 48 48 50 51 47 46 43 42 39 39 41 40 39 36 33 32 29 30 31 31 32 31 32 30 33 31 30 31 29 28 29 30 30 30 30 30 29 29 29 27 28 28 28 29 29 29
45 45 46 46 47 47 47 48 49 49 50 47 43 39 35 39 40 40 37 35 33 36 34 31 33 30 31 30 30 30 31 29 27 29 30 29 28 30 29 29 29 30 32 31 28 27 27 27 28 28 28 28 29 29
44 45 45 46 47 47 47 48 49 47 45 42 38 37 38 38 36 34 32 31 33 32 32 32 30 29 31 29 30 31 28 29 26 25 25 25 27 29 28 27 25 27 29 31 30 30 30 30 30 29 28 27 29 30
43 44 45 45 46 46 46 48 48 46 43 42 39 38 37 35 34 31 31 30 29 27 30 29 28 29 29 31 29 29 27 27 23 26 25 22 27 29 26 25 27 25 24 25 27 29 29 28 26 27 28 29 30 30
42 43 44 44 44 45 45 46 47 46 44 41 37 34 34 33 28 27 24 26 27 30 29 27 26 29 28 30 28 27 23 24 25 18 20 24 28 28 27 22 21 23 23 24 25 27 28 28 29 28 28 29 30 30
42 43 43 43 43 44 44 45 46 45 40 35 33 30 30 28 29 29 28 29 30 31 30 30 28 30 30 30 29 25 27 24 17 20 19 26 30 27 25 22 22 20 22 25 25 27 28 28 27 28 29 29 29 28
41 42 43 43 43 44 45 45 46 44 38 33 32 27 28 29 30 29 29 28 27 31 29 26 27 27 28 28 27 27 21 18 19 20 25 30 28 24 21 17 17 19 20 24 26 27 25 27 27 27 29 29 29 28
41 41 41 42 43 43 44 44 43 42 35 33 32 29 31 29 29 27 26 26 29 30 29 29 25 24 24 26 25 19 19 17 21 28 31 31 25 25 23 20 18 19 19 22 24 25 26 28 29 28 29 28 28 28
40 38 38 40 43 44 44 41 39 34 33 32 29 33 31 28 28 29 31 30 31 29 25 26 26 25 28 26 21 23 21 25 30 30 32 31 26 25 26 23 21 19 19 21 23 25 26 27 27 26 25 26 27 27
38 39 41 41 41 41 40 38 34 33 30 31 29 29 31 31 29 30 29 30 29 29 32 30 31 27 25 21 20 26 28 28 29 30 29 28 28 27 25 24 23 21 21 24 26 26 27 26 26 26 27 28 28 27
39 40 41 42 40 36 33 33 33 28 29 29 29 29 30 31 31 31 31 30 31 33 33 31 29 26 24 27 28 30 31 28 28 28 27 27 27 26 25 26 26 24 24 24 25 25 24 25 25 26 27 27 26 27
41 41 41 41 40 34 32 32 34 31 26 25 28 27 28 28 30 30 31 30 30 30 29 28 27 27 28 28 30 30 31 31 30 28 27 27 26 25 25 26 26 26 26 25 26 29 26 25 26 26 27 27 26 26
39 39 41 40 37 35 33 31 31 31 30 28 27 27 26 28 28 28 28 28 30 29 27 29 28 28 28 28 28 30 29 29 28 28 27 27 27 28 28 29 29 29 29 28 27 27 30 28 29 27 26 27 27 27
37 39 37 37 33 32 31 30 30 31 30 30 30 31 28 28 28 30 33 30 29 30 29 28 29 29 29 29 29 30 30 30 30 31 33 32 30 30 30 30 30 30 31 31 29 28 27 27 25 25 25 25 27 28
38 37 34 33 30 29 25 31 26 23 20 18 27 24 25 23 28 31 28 30 29 29 29 30 30 30 30 30 30 30 31 31 30 30 30 30 31 31 32 31 31 33 32 31 31 31 30 30 29 28 25 26 26 27
38 33 30 28 28 26 29 26 27 22 20 19 15 16 15 20 24 26 23 24 26 28 29 30 30 30 30 29 29 30 30 30 30 31 31 31 31 31 31 31 31 31 32 31 31 30 30 30 30 28 26 25 25 25
26 27 28 25 29 25 24 22 21 18 15 16 13 17 18 19 23 23 22 22 24 24 25 26 27 28 27 27 28 28 30 32 32 30 31 31 32 32 32 32 32 32 32 32 30 29 29 30 29 27 26 26 26 26
21 20 22 23 25 22 18 11 13 15 16 11 17 18 16 21 21 20 18 22 22 23 24 24 24 25 27 28 29 29 30 32 33 30 31 32 32 32 33 32 32 32 31 32 32 31 30 30 29 27 27 27 28 26
21 16 21 27 23 22 18 17 17 16 11 13 14 15 17 18 17 18 19 21 23 26 27 29 31 29 29 29 32 32 32 32 32 31 31 30 32 33 34 32 31 31 28 30 30 30 29 29 28 27 27 26 26 26
20 19 15 20 22 20 14 14 13 14 15 19 19 14 19 20 21 26 24 26 30 29 30 29 30 31 31 31 31 29 30 30 29 26 26 27 30 32 32 32 32 33 32 29 30 29 29 29 28 27 26 26 25 26
20 21 21 16 15 16 20 17 16 19 20 21 18 16 16 17 20 23 23 26 27 22 24 26 27 25 28 28 28 29 29 28 25 25 24 24 24 25 30 30 30 30 32 29 32 29 28 28 27 26 25 25 25 24
20 21 17 16 15 15 18 20 19 20 20 21 20 20 20 21 23 24 26 26 21 24 27 27 28 26 27 27 27 28 28 29 29 28 26 24 24 26 28 28 27 27 29 29 28 28 29 27 26 23 22 22 22 20
20 22 16 18 18 19 20 21 20 20 18 21 22 21 20 21 23 25 25 26 28 25 23 26 27 28 28 28 27 26 25 25 27 27 28 28 28 28 29 28 24 26 29 28 27 27 27 24 22 20 20 19 19 19
19 18 17 16 18 20 17 12 13 17 20 20 20 21 20 17 19 21 22 25 25 24 27 28 27 26 27 27 27 27 29 28 26 26 24 27 28 28 29 25 25 26 27 27 27 27 26 24 22 20 19 18 18 17
11 11 12 16 17 17 14 15 14 14 18 18 19 19 20 20 19 21 21 25 25 25 26 26 27 27 27 27 27 28 29 28 29 31 32 32 31 30 26 25 24 25 25 26 27 26 25 23 21 20 19 18 18 15

GFSWCAN_sfc_dewp_111.txt.gz
Dewpoint
54 53 51 51 51 52 53 53 52 51 49 47 47 47 48 49 48 42 40 39 38 34 35 34 32 32 32 30 24 27 25 30 31 25 22 20 19 19 19 18 23 23 22 23 24 22 18 24 25 13 11 26 22 25
54 53 51 50 50 51 52 53 53 51 50 48 47 47 46 49 48 46 38 40 39 36 32 37 35 36 36 34 34 32 27 30 31 27 25 24 20 21 18 11 20 16 21 22 24 23 23 26 21 25 23 21 24 28
53 52 50 50 50 50 51 53 53 53 51 50 47 47 46 46 48 45 40 40 39 36 35 36 34 34 35 35 36 29 33 34 34 35 32 29 26 24 20 19 19 17 19 17 16 15 19 20 24 26 26 25 26 28
52 50 49 49 50 51 51 52 52 53 52 51 49 46 46 45 46 46 41 41 39 37 32 32 34 33 34 34 34 35 35 36 36 35 32 30 27 27 23 21 20 21 21 18 18 18 18 19 19 20 22 26 27 28
49 47 48 49 49 50 51 51 52 52 53 52 51 47 45 45 46 44 43 42 39 36 31 33 35 33 33 34 34 34 35 34 34 32 30 29 31 29 28 28 25 24 21 20 17 17 17 17 21 24 24 24 25 25
48 48 48 47 47 48 50 51 51 51 51 52 51 48 46 45 47 42 38 39 38 39 33 29 34 31 33 34 34 34 34 34 34 33 31 33 33 30 26 25 26 26 25 24 20 21 21 22 23 25 24 25 27 28
47 48 45 46 45 46 47 48 48 49 50 51 51 48 46 46 44 39 38 38 38 39 33 29 29 31 33 32 33 33 34 33 33 32 30 31 31 32 28 25 24 26 25 26 26 25 24 25 25 25 26 26 30 30
46 46 46 46 46 46 46 47 47 48 49 50 51 48 46 46 45 40 39 42 39 36 34 28 30 30 32 31 30 33 32 32 31 30 32 32 30 29 28 29 30 30 30 30 29 27 26 27 29 27 29 29 28 29
45 45 45 45 46 46 47 47 47 48 48 50 49 46 43 41 38 38 41 40 38 36 32 33 28 26 31 31 31 30 31 30 31 31 30 30 28 28 30 30 30 31 30 30 31 29 28 29 28 28 28 28 28 28
45 45 45 45 45 46 46 47 48 49 50 47 43 39 36 38 40 40 36 33 31 34 30 30 30 28 30 30 30 30 30 29 28 29 30 29 27 29 30 29 29 30 29 29 30 28 27 27 27 28 28 28 28 28
44 44 44 45 45 46 46 47 48 47 45 42 38 36 37 38 36 33 31 31 32 31 31 31 28 26 30 27 28 30 25 30 25 27 27 25 25 29 30 29 27 26 26 25 29 29 29 29 29 29 29 28 28 28
43 43 44 44 44 45 45 48 48 45 42 41 39 38 36 33 34 31 30 30 30 27 28 28 27 29 28 29 28 28 23 27 22 25 25 22 25 27 29 27 26 24 25 23 22 23 25 26 26 26 26 27 28 28
42 42 43 43 43 43 44 44 46 47 43 40 35 34 34 33 28 27 21 25 26 26 25 25 24 27 27 29 27 26 25 23 24 15 18 22 25 26 27 24 23 23 21 22 24 26 28 27 28 27 27 27 28 29
41 42 42 42 43 43 43 43 44 44 40 35 33 28 29 25 28 26 24 23 27 28 27 28 26 26 27 26 27 22 24 24 14 18 18 23 26 28 25 22 18 16 18 22 24 26 27 27 27 27 28 28 29 28
41 41 42 42 43 43 43 45 46 43 38 30 32 27 27 28 21 22 28 25 25 30 29 25 25 27 23 25 28 24 18 16 16 18 24 25 28 27 23 22 18 16 17 18 22 24 24 24 25 27 27 28 28 28
40 40 40 42 42 42 43 43 41 41 34 33 32 29 31 29 29 24 17 22 26 28 26 27 25 22 24 23 25 19 14 13 19 23 27 27 26 26 25 25 24 20 18 18 19 22 24 25 26 27 27 28 28 28
39 36 38 41 42 44 44 39 34 32 32 30 29 31 29 20 21 23 26 27 29 27 22 25 25 22 26 24 21 21 18 23 25 27 26 28 28 27 27 26 26 24 22 20 19 21 24 26 26 26 26 26 27 27
37 37 41 41 41 40 37 34 34 31 29 29 27 23 29 29 26 27 28 28 27 26 25 23 25 26 19 16 19 23 25 26 26 27 27 28 28 27 27 27 27 26 25 25 24 25 25 25 25 26 26 27 26 26
37 37 40 41 39 33 29 32 33 26 26 26 25 24 27 28 28 30 30 29 29 29 31 31 29 25 24 24 26 28 29 28 28 28 29 29 29 28 29 28 27 26 25 25 25 24 23 23 23 25 25 26 25 25
41 41 41 42 39 34 31 30 34 29 24 22 21 20 25 25 27 27 29 29 28 28 30 28 26 26 26 27 27 28 27 28 29 29 28 28 28 28 28 27 27 28 26 26 26 28 26 26 26 26 26 26 26 25
38 38 40 39 34 35 31 28 30 29 28 26 22 21 22 22 19 19 21 26 29 28 27 27 26 26 27 26 26 27 27 28 28 28 27 28 29 29 30 30 28 28 28 29 28 28 31 29 28 29 29 28 29 29
36 39 34 36 33 32 30 32 26 28 28 26 25 28 27 20 17 19 23 28 28 28 28 27 27 28 28 27 27 29 29 29 29 30 32 32 30 30 30 30 30 30 31 31 31 30 30 30 30 29 27 27 28 28
37 36 32 33 30 29 27 29 27 27 22 17 25 22 17 20 18 24 24 24 25 27 28 28 28 29 29 29 30 30 30 30 29 29 29 29 29 30 31 31 31 31 31 31 32 32 32 33 32 32 30 28 26 25
38 33 29 28 28 25 26 26 25 14 8 11 5 6 5 13 16 21 15 20 22 25 28 28 28 28 29 29 29 30 30 30 29 29 29 30 30 30 31 31 31 32 32 32 32 32 32 31 32 31 30 29 26 26
28 27 27 23 24 24 23 21 19 20 18 12 8 8 11 11 10 5 12 19 22 22 24 24 25 26 27 27 27 27 28 28 27 28 29 31 31 31 31 31 32 32 33 32 32 32 31 30 30 27 28 27 27 27
21 21 21 15 11 17 17 13 14 15 11 5 11 12 6 11 10 15 16 19 20 22 24 24 24 24 24 25 25 25 26 30 32 33 33 33 31 31 30 29 29 29 32 33 33 31 30 31 28 25 26 27 30 31
19 17 17 23 21 20 16 15 14 14 15 16 10 7 11 12 12 14 18 19 21 23 25 26 26 25 24 25 26 29 29 33 34 32 31 28 30 31 31 30 29 28 28 29 31 30 30 29 27 27 28 29 28 28
20 16 14 18 21 15 11 10 10 11 13 16 16 11 11 11 12 16 19 21 22 25 26 28 30 30 30 30 30 29 30 29 29 29 27 27 28 30 31 31 31 32 32 31 31 31 30 30 29 28 28 28 27 26
19 19 18 10 11 9 15 14 15 16 16 16 14 13 14 16 19 20 21 22 22 20 23 24 25 25 23 27 28 29 29 26 21 24 24 24 25 26 26 27 28 29 30 30 32 33 30 30 28 27 27 26 26 25
18 20 15 13 11 12 16 17 17 19 19 19 19 18 18 19 21 23 23 22 19 21 24 25 26 26 26 26 25 25 27 26 27 27 25 25 25 25 25 25 23 24 23 25 26 23 32 30 28 24 24 23 23 22
18 20 15 17 16 18 19 19 20 18 19 20 21 19 19 20 21 23 23 24 25 26 25 25 25 27 26 25 25 25 25 26 27 27 28 29 28 28 28 28 27 24 22 24 23 24 25 25 24 23 22 22 21 22
16 16 16 13 17 20 15 8 7 12 19 20 20 21 20 20 19 21 22 24 24 23 25 25 23 23 24 25 26 27 28 27 24 25 22 26 27 27 28 28 25 22 22 23 25 25 25 24 23 23 22 21 20 20
5 3 14 14 14 11 16 17 11 9 17 17 18 19 19 18 17 19 21 23 23 23 23 23 24 25 25 25 25 27 29 28 28 30 31 32 32 31 28 27 23 23 22 23 24 25 25 25 24 23 21 21 20 19

GFSWCAN_sfc_dewp_117.txt.gz
Dewpoint
54 54 54 53 51 51 50 52 53 52 50 49 48 48 47 48 48 41 39 39 34 31 30 34 33 31 31 29 21 21 23 25 29 23 22 20 18 18 16 17 22 23 22 23 23 21 15 25 23 12 11 18 25 22
54 54 54 53 51 50 50 52 53 53 52 50 48 48 47 47 47 42 38 40 39 34 31 36 37 36 34 32 28 31 22 27 28 24 25 22 21 21 18 10 20 16 20 21 24 22 22 25 22 22 23 21 22 22
54 54 54 53 51 50 50 51 52 52 52 52 50 47 47 46 47 43 40 40 38 35 32 32 33 34 34 34 35 30 30 32 32 31 27 26 22 22 18 17 16 18 21 20 18 15 23 24 25 25 25 23 23 25
53 54 53 52 51 50 51 51 52 52 52 52 52 50 47 46 46 44 40 41 39 36 31 29 34 32 34 34 34 35 33 36 35 34 30 27 25 25 21 20 18 19 19 18 19 18 17 16 18 19 20 22 22 23
53 53 53 52 51 50 50 51 51 50 51 51 52 52 49 46 46 42 41 39 39 35 30 31 34 33 33 33 34 35 35 34 33 31 30 29 30 29 28 27 25 24 21 18 18 20 19 22 20 24 25 25 25 23
53 53 52 51 50 50 50 50 50 50 50 50 51 52 50 46 44 41 37 38 37 38 32 28 33 32 33 34 34 33 34 34 33 31 30 31 32 30 26 25 27 27 27 26 25 27 29 29 29 26 25 27 26 25
52 52 51 50 50 49 49 48 48 47 48 48 50 51 49 46 40 35 34 37 38 39 33 29 30 32 31 31 32 33 32 32 32 31 31 31 31 33 28 27 28 27 28 30 30 30 27 28 27 29 29 29 29 27
52 50 50 49 48 48 47 47 47 46 47 48 49 50 47 47 44 38 38 41 39 36 34 26 29 31 31 30 30 31 30 31 31 30 30 31 31 30 28 30 31 31 30 29 30 29 30 29 29 30 30 29 28 28
49 48 47 47 47 47 47 46 46 46 46 47 49 47 43 40 38 37 40 39 37 35 29 31 26 22 31 30 30 30 31 27 30 29 29 30 28 27 29 30 30 30 29 29 29 28 27 28 26 27 29 29 28 28
48 47 47 47 47 47 47 47 48 48 48 48 42 40 34 37 40 39 34 31 30 30 29 30 30 28 28 29 28 28 29 28 24 28 30 28 28 30 30 30 30 30 29 26 24 22 23 23 22 24 27 29 29 29
44 45 45 46 46 46 46 48 49 48 45 40 35 33 35 39 34 31 31 30 31 29 31 30 28 24 29 25 26 29 23 29 25 25 28 26 25 27 28 28 27 25 23 22 25 25 24 23 23 26 26 26 27 26
41 41 42 43 45 45 45 48 47 42 40 39 37 37 34 33 33 30 25 29 30 28 28 26 27 28 28 29 27 27 23 27 21 26 27 22 25 26 26 25 23 21 18 18 19 20 22 23 25 27 27 26 26 27
44 44 44 44 44 44 46 48 46 44 42 38 34 33 33 30 28 25 21 26 27 25 25 25 23 26 26 28 25 24 25 23 23 22 21 21 24 24 24 25 23 23 20 21 22 22 21 22 24 25 26 27 27 27
43 43 43 43 43 43 43 45 45 43 38 32 31 24 25 23 26 24 23 23 26 25 24 26 23 24 26 24 25 23 24 23 21 19 17 22 23 23 25 24 24 24 25 24 25 24 24 25 24 24 25 26 27 27
42 43 43 42 42 42 42 44 44 41 34 31 32 22 22 25 24 27 26 27 27 29 27 26 25 25 22 23 26 25 24 21 20 20 22 22 23 25 25 25 26 26 26 26 25 25 25 24 24 24 24 25 25 26
42 41 40 42 42 42 45 43 40 38 33 32 31 28 27 29 26 28 28 25 28 28 25 26 21 18 19 22 24 24 22 19 21 22 23 23 24 25 26 27 27 27 28 27 27 27 27 25 25 25 25 24 25 25
40 36 40 42 43 44 42 37 33 31 30 27 27 30 25 23 25 26 30 28 29 28 26 25 21 20 22 21 20 22 19 21 23 23 23 24 24 26 27 26 27 28 28 28 28 28 28 28 25 21 24 27 27 26
36 37 42 43 41 40 38 35 30 28 25 27 27 22 29 29 26 27 28 28 28 27 26 23 23 18 19 18 17 22 22 21 22 25 26 26 27 27 26 26 27 28 29 29 28 28 24 24 24 26 27 28 26 26
36 37 42 41 37 32 29 32 32 25 24 24 23 25 26 27 28 29 29 29 28 28 25 23 20 17 21 22 23 25 24 23 25 25 25 26 26 25 24 25 27 27 27 27 27 28 29 29 29 29 29 28 27 28
39 40 41 40 37 31 26 27 33 26 19 19 23 23 23 24 26 26 28 28 27 28 27 25 23 22 22 22 24 25 25 25 24 24 24 24 24 25 26 27 27 28 29 29 29 31 30 29 29 29 29 28 28 29
39 38 40 36 32 33 29 26 27 28 26 24 25 23 18 22 15 15 19 23 27 26 18 24 23 23 24 24 24 25 24 25 24 24 23 24 25 26 27 28 29 29 28 29 29 29 30 29 30 31 30 30 31 31
35 39 36 36 32 32 29 30 25 25 21 18 15 18 11 18 19 22 15 13 17 21 24 23 23 24 25 24 25 26 26 26 26 27 29 28 26 27 27 28 28 28 29 29 29 29 29 30 31 31 31 31 32 31
37 35 33 32 27 27 20 30 25 24 22 16 21 21 20 20 18 16 11 17 22 23 24 24 23 24 24 24 25 26 26 26 26 27 26 26 27 28 28 28 29 29 29 29 30 30 30 32 32 32 31 31 31 31
37 32 28 27 24 18 22 24 27 23 22 18 9 7 8 12 9 9 11 17 20 21 21 22 22 22 23 24 25 26 26 26 26 26 28 28 27 27 28 30 31 30 29 30 30 30 31 31 32 31 30 30 30 29
27 26 27 23 22 20 20 16 18 20 16 14 4 7 10 6 8 2 7 16 19 20 20 20 20 21 20 19 21 21 23 24 24 23 24 26 27 28 28 30 30 30 30 31 31 31 31 30 29 28 29 30 30 28
23 25 22 19 16 20 17 12 15 12 7 0 10 9 3 3 8 15 13 18 17 19 20 20 19 19 20 22 21 21 22 23 25 25 26 27 27 27 27 28 28 28 30 31 31 31 30 29 26 24 27 27 30 29
20 20 19 22 19 18 15 12 12 9 6 8 8 2 8 13 10 12 16 19 19 21 22 22 22 21 21 21 21 22 24 25 25 25 25 26 27 28 29 29 28 28 28 30 30 29 29 29 28 27 26 27 28 27
20 16 14 14 18 12 8 7 8 7 9 13 10 3 5 7 9 14 16 18 20 21 21 23 23 23 22 22 23 23 23 24 25 21 23 28 29 29 29 30 31 31 31 31 30 30 29 29 29 27 26 26 27 27
22 17 16 10 15 15 13 11 10 14 15 14 12 12 12 13 16 17 17 19 21 21 20 20 21 22 23 23 23 24 25 24 22 21 21 22 22 23 26 28 28 28 28 28 30 31 29 28 27 27 26 27 30 29
19 18 12 3 9 10 14 16 14 18 18 17 17 16 16 17 19 21 21 21 21 21 22 22 23 23 22 22 22 22 24 24 24 23 22 21 22 23 21 24 25 25 24 23 24 24 27 25 24 24 23 22 24 21
16 15 8 9 10 16 19 19 19 17 17 17 18 17 16 18 19 20 21 21 23 23 23 22 23 24 23 23 23 22 22 24 25 24 25 25 26 26 26 26 26 26 26 23 22 22 21 20 18 20 21 24 22 25
11 13 11 3 11 17 8 8 7 9 15 16 17 19 19 19 17 19 21 24 24 23 24 25 24 23 24 25 25 25 27 25 25 24 21 25 26 26 26 27 27 25 24 23 23 22 20 18 19 18 19 19 19 18
1 -1 -2 4 5 5 7 12 6 7 11 16 17 18 19 18 16 18 21 26 23 22 23 24 25 25 25 25 25 26 27 26 26 29 29 30 29 28 27 26 26 25 24 23 22 22 18 16 17 16 16 17 16 17

GFSWCAN_sfc_dewp_120.txt.gz
Dewpoint
54 54 54 54 53 51 51 50 52 53 51 49 48 48 47 47 47 40 38 38 34 30 29 34 32 31 31 27 20 21 23 24 28 22 20 19 18 17 16 16 22 23 22 22 24 21 12 25 24 15 9 18 21 21
53 54 54 54 53 51 51 50 52 52 52 50 49 48 47 47 47 41 36 40 38 34 30 35 36 35 34 31 27 29 21 26 28 23 24 22 21 20 17 8 20 17 21 21 23 21 22 26 22 22 24 23 24 24
53 54 54 54 53 52 50 50 51 52 52 52 50 48 46 46 46 42 39 39 38 34 31 31 33 33 34 34 35 29 30 32 31 30 27 25 21 21 17 17 16 17 22 20 18 18 22 22 24 25 24 22 23 24
52 54 54 53 53 51 51 51 51 52 52 52 52 50 47 46 46 43 40 40 38 36 30 29 34 33 34 34 34 35 33 35 34 33 29 27 23 24 20 20 18 18 20 18 19 18 22 18 21 21 23 27 28 26
52 53 53 53 53 51 50 51 51 51 49 50 50 51 48 46 45 40 38 37 38 34 30 31 34 33 34 34 33 35 35 33 33 31 29 29 29 29 28 27 26 23 20 18 18 20 23 26 28 28 28 27 28 29
52 52 53 53 52 51 50 50 51 50 50 50 49 51 49 46 43 40 35 37 37 38 30 28 32 31 33 34 34 33 34 33 32 31 30 30 32 29 26 25 27 27 26 26 26 28 29 29 29 29 28 28 30 30
52 52 52 52 51 50 50 50 50 49 48 48 48 50 49 46 40 37 35 37 39 38 32 28 27 31 30 30 31 32 32 31 32 31 30 31 31 33 28 27 28 27 29 30 30 29 26 28 27 28 28 28 30 29
52 52 52 51 50 50 50 49 48 48 47 48 48 50 47 46 43 37 37 41 39 35 32 22 24 27 30 29 28 30 30 30 30 29 30 30 30 30 28 30 31 30 29 28 29 29 28 29 28 25 25 27 28 28
51 51 51 50 49 49 48 48 48 47 47 47 49 47 43 40 38 38 40 38 36 33 29 30 25 20 30 29 29 29 29 26 29 29 28 29 28 26 29 29 30 29 28 28 28 24 24 24 24 24 23 26 27 27
51 51 50 49 48 48 47 47 47 47 47 48 43 40 36 36 40 38 33 31 30 30 29 30 32 28 27 27 28 27 28 26 18 27 29 27 27 29 30 30 30 30 27 25 21 21 21 22 22 21 23 26 27 27
49 48 48 48 48 47 47 48 48 48 46 42 38 34 35 38 34 31 29 29 30 29 31 30 30 25 29 25 26 29 24 28 24 22 27 24 25 27 28 26 26 23 22 20 23 23 24 23 23 23 24 25 26 26
47 47 47 47 46 47 48 49 48 43 42 40 38 36 34 32 33 27 24 29 30 26 28 27 28 28 28 29 28 28 23 27 22 25 26 22 24 26 26 25 24 22 20 19 19 20 21 22 23 24 24 25 24 25
43 43 43 44 45 45 47 48 46 44 41 38 34 34 29 29 26 23 16 24 27 29 24 27 25 28 27 28 26 25 24 23 23 23 21 22 24 24 23 24 24 24 23 23 25 25 25 25 26 24 24 25 24 25
43 43 42 42 44 46 47 47 44 43 39 33 29 26 24 22 21 21 22 22 25 24 23 24 23 25 27 25 25 23 25 24 21 20 17 21 22 23 23 25 25 25 25 26 26 26 26 26 26 26 26 26 25 25
41 42 42 42 44 44 45 46 44 40 35 30 31 23 20 24 22 27 25 26 25 27 26 25 25 25 23 23 26 25 23 21 22 19 21 20 23 23 24 25 24 26 26 26 26 27 27 27 27 27 27 26 26 25
40 40 40 41 42 43 45 43 40 38 33 30 29 23 25 23 22 24 25 26 27 28 27 27 21 16 20 24 24 23 22 18 19 22 23 22 24 24 24 25 25 26 26 26 27 27 28 28 28 28 28 27 27 26
39 36 41 42 43 43 41 37 34 31 29 27 26 28 27 28 27 25 27 27 29 30 26 24 18 19 21 22 20 21 19 22 24 23 24 24 24 25 25 25 24 25 25 25 26 28 28 28 27 24 25 27 27 28
35 39 43 43 41 38 36 35 29 25 18 27 26 24 28 28 26 27 27 27 29 28 27 25 19 13 16 17 17 21 22 23 23 24 25 26 22 20 23 24 25 26 25 26 27 27 27 26 25 26 28 28 27 27
36 40 42 42 37 32 30 32 29 19 21 25 25 25 26 27 28 29 29 29 28 28 24 21 14 16 19 20 19 19 21 22 23 24 22 22 23 24 25 26 26 25 25 26 26 27 28 28 29 29 29 29 28 29
39 42 41 39 35 28 25 28 32 26 22 22 25 25 23 24 25 26 26 28 28 27 25 23 20 21 21 22 23 24 24 24 23 22 22 21 21 23 24 25 25 26 27 27 28 30 29 28 29 29 29 29 28 29
37 38 39 36 33 29 23 25 26 26 25 23 26 25 20 24 21 20 23 25 26 26 18 23 23 23 24 23 23 23 22 23 22 22 21 22 23 24 25 27 28 27 27 28 28 27 29 28 29 29 29 29 30 30
36 39 36 35 30 29 25 28 23 23 19 15 20 20 19 20 21 22 15 12 14 22 23 22 22 22 23 22 22 23 23 24 24 25 27 27 25 25 25 26 27 27 28 28 28 28 28 29 30 30 30 30 31 31
37 35 33 29 21 25 18 29 24 25 20 13 22 20 18 19 16 14 10 14 19 22 23 23 24 24 24 23 24 24 24 24 23 23 23 24 24 26 27 27 28 28 28 28 29 29 30 31 30 30 30 31 31 30
37 31 28 25 14 16 21 23 26 22 20 18 15 12 10 12 8 9 8 12 17 20 20 21 22 22 22 22 22 22 23 24 24 24 25 25 25 25 25 27 27 27 28 29 30 30 29 29 30 30 30 29 28 28
26 26 26 23 15 18 19 20 13 19 16 17 14 5 7 4 4 4 7 13 17 18 19 20 20 21 20 19 20 20 21 22 21 21 22 23 24 25 25 25 26 26 28 28 29 29 29 29 29 29 29 28 27 27
22 25 23 21 16 15 14 12 16 12 5 7 11 6 1 1 -1 7 11 16 15 18 19 19 18 18 19 20 20 20 20 21 22 22 22 23 23 24 24 24 24 24 25 29 29 29 28 28 28 27 28 28 29 29
21 22 25 22 19 17 15 14 11 8 4 6 6 7 5 7 7 11 15 18 18 21 21 22 21 21 20 19 19 20 21 23 23 22 20 21 23 25 26 25 23 24 24 25 28 28 27 27 27 28 28 28 28 27
24 21 17 19 17 15 10 7 6 7 9 12 9 3 4 6 8 13 15 18 19 21 22 22 22 22 21 21 21 21 22 22 23 22 18 24 25 26 26 27 27 29 29 28 28 29 28 28 28 27 27 26 27 27
20 17 18 16 16 17 12 11 11 13 15 13 9 10 10 13 16 18 18 20 22 22 20 20 20 22 22 22 22 23 23 22 21 19 19 19 20 22 24 26 27 28 28 28 30 30 28 27 27 27 27 26 27 26
16 19 12 10 12 11 13 16 13 15 17 18 17 16 16 17 19 21 21 21 21 21 21 22 22 22 22 22 22 22 23 24 23 22 21 21 22 23 24 23 24 25 25 23 25 24 27 24 22 19 20 20 22 22
19 16 13 11 10 12 17 17 14 18 13 12 17 16 17 18 19 21 21 21 22 22 22 21 22 23 23 23 23 23 22 24 25 25 26 25 25 25 25 25 25 26 24 21 22 23 23 18 17 19 19 19 19 22
15 13 11 6 7 9 6 9 6 8 7 8 16 15 17 16 15 17 19 22 22 21 23 24 22 22 24 24 25 26 28 26 25 26 26 26 27 26 26 26 26 26 22 22 23 24 19 18 21 18 19 18 16 17
-3 -4 -7 0 3 3 3 10 3 2 1 8 14 16 17 17 15 18 20 23 23 22 23 23 24 24 24 24 26 26 27 27 27 29 30 30 30 28 26 26 25 22 21 23 23 22 19 18 18 17 17 17 18 15

GFSWCAN_sfc_dewp_123.txt.gz
Dewpoint
50 52 53 54 54 53 52 51 51 52 52 50 48 48 48 48 46 39 38 38 34 29 28 33 32 29 30 26 19 21 24 24 27 21 18 18 17 17 16 17 23 23 23 22 23 21 11 24 22 14 11 20 21 23
50 52 53 54 54 53 52 51 51 52 52 52 50 48 47 47 46 41 35 40 38 33 29 35 35 34 33 31 25 28 19 24 27 22 23 21 20 20 16 7 20 16 21 21 23 21 22 24 22 23 24 24 24 24
51 51 53 54 53 53 52 51 51 52 52 52 51 49 46 47 46 41 38 38 37 33 30 31 32 33 34 34 35 29 30 31 29 29 26 24 20 21 16 16 15 18 22 21 18 20 22 22 23 25 24 23 23 27
50 51 52 53 53 53 52 51 51 51 52 52 52 51 47 46 45 42 38 38 37 35 29 28 34 31 33 34 34 35 33 35 34 33 29 26 22 23 19 19 18 18 21 19 19 18 23 20 24 28 28 28 28 28
50 50 52 53 53 53 52 51 51 51 51 51 50 51 49 46 42 38 37 37 37 34 29 30 33 32 34 34 33 34 35 33 32 30 29 28 28 27 27 26 25 22 19 17 18 20 26 26 28 29 28 26 26 28
50 50 51 52 53 52 51 50 51 51 49 50 48 50 49 47 43 38 34 36 37 36 31 28 31 29 32 33 33 33 34 33 32 30 29 30 31 29 26 25 26 27 25 26 26 27 27 29 30 29 28 27 26 28
50 50 51 52 53 52 51 50 51 50 50 49 48 49 49 45 40 38 36 37 39 37 31 27 26 30 30 30 31 31 31 31 31 30 29 29 30 31 27 25 27 28 29 30 30 27 21 25 23 27 27 26 27 28
50 50 50 51 52 52 50 50 50 50 49 48 48 49 47 45 42 37 37 40 38 34 32 21 23 27 30 28 28 29 29 30 30 29 29 29 29 28 27 29 30 29 28 28 28 28 27 27 26 24 24 24 25 25
50 50 50 51 52 51 50 50 49 48 48 49 49 48 43 40 37 36 40 38 36 33 27 30 26 20 30 29 29 29 29 25 28 27 27 29 27 26 28 28 27 27 26 25 26 23 21 22 22 23 22 23 24 24
49 50 50 51 51 50 50 49 48 48 48 48 43 40 34 37 40 38 34 31 30 31 30 30 32 28 27 28 28 27 28 26 19 27 28 27 27 29 29 30 30 29 26 24 20 22 21 22 23 23 23 23 24 25
50 50 50 51 50 49 49 48 48 48 46 42 39 36 35 38 34 31 28 28 29 28 32 31 31 27 29 25 27 29 24 26 25 22 27 25 25 27 28 24 25 21 21 19 20 21 22 22 23 23 24 25 25 25
50 50 50 50 49 48 48 48 48 45 43 41 38 37 35 33 33 25 22 28 28 24 28 28 29 29 27 28 28 28 24 27 22 26 26 21 24 26 25 24 23 23 23 22 22 22 22 23 24 25 25 25 26 25
50 50 49 48 48 48 48 48 47 43 41 39 35 33 30 28 26 22 13 23 25 29 24 28 24 27 27 28 26 26 25 23 23 25 21 21 24 24 23 24 24 24 24 24 25 25 25 26 26 26 26 27 26 26
47 47 47 47 47 47 48 47 45 43 39 33 30 27 24 24 20 22 20 21 25 24 23 27 22 24 26 24 25 19 25 24 21 19 17 22 23 23 23 24 24 24 25 25 24 25 25 25 26 26 27 27 27 26
43 43 43 43 44 46 47 45 44 41 35 32 30 24 24 24 24 26 27 27 27 26 26 25 23 25 24 24 25 25 22 21 21 17 21 21 22 23 23 24 24 25 25 25 26 25 25 25 26 26 26 27 27 27
42 41 40 42 44 45 45 43 41 38 33 30 28 25 26 25 24 26 23 22 27 28 26 27 21 19 22 25 24 22 20 16 18 21 22 22 23 24 24 24 25 25 25 25 25 25 26 26 26 26 27 27 27 27
37 38 40 40 42 43 41 37 34 31 29 25 24 29 28 27 27 26 27 28 31 31 28 27 21 21 21 22 19 20 19 21 22 21 22 23 23 24 25 25 25 25 24 25 25 25 25 26 26 25 25 26 27 27
36 39 41 41 40 37 36 33 29 26 25 26 25 26 29 28 27 27 27 27 28 29 25 19 18 17 17 16 16 20 19 19 21 24 24 25 25 24 23 22 23 24 25 25 23 24 24 24 25 26 26 27 28 28
38 40 41 40 36 32 30 30 28 21 21 26 26 26 27 27 28 28 28 28 27 27 23 25 15 19 19 20 19 18 19 21 22 22 22 22 22 22 23 24 24 24 24 23 24 25 26 26 27 28 28 28 28 29
40 41 40 37 33 29 26 29 30 24 21 24 25 25 25 25 24 25 26 27 27 27 25 24 22 21 21 21 23 23 22 22 22 21 21 20 20 21 22 23 23 24 25 25 26 29 27 27 28 28 28 29 29 29
39 39 38 35 33 28 25 27 26 23 24 23 24 25 22 25 24 20 19 26 19 16 19 24 24 22 22 21 21 22 22 22 21 21 20 21 21 22 23 25 25 25 26 26 26 26 28 27 28 28 28 29 29 29
37 38 35 33 29 29 21 24 22 24 21 16 23 22 21 20 21 23 17 16 22 21 24 21 21 22 21 20 21 22 23 23 23 24 26 25 24 24 24 25 25 25 26 26 26 26 27 27 28 28 29 29 30 30
37 34 32 23 22 21 15 28 24 25 20 15 21 20 20 20 16 17 9 14 18 22 24 23 23 23 23 23 23 24 24 23 23 22 22 22 22 23 24 25 25 26 26 26 27 27 28 29 29 29 29 29 29 29
37 27 25 24 15 20 24 22 25 19 21 18 16 14 13 12 13 11 8 11 16 20 21 21 21 21 21 22 22 22 23 23 22 22 22 22 23 22 23 23 24 25 26 27 27 27 27 27 29 28 27 28 28 29
27 26 25 18 11 17 18 17 16 19 15 16 13 9 6 1 3 6 6 11 13 17 19 20 20 20 19 19 19 20 21 21 20 20 21 21 21 22 22 23 22 23 25 26 26 26 26 27 27 27 27 27 27 28
21 25 20 14 9 13 13 9 12 12 9 12 12 3 -3 0 -3 5 8 12 15 17 18 19 17 17 17 19 19 19 19 20 21 21 21 21 21 21 22 21 21 21 23 25 26 25 26 26 26 25 25 25 28 28
21 22 24 22 18 15 13 11 12 9 5 7 7 8 7 0 4 10 14 16 18 20 21 21 21 20 19 18 18 19 20 21 21 20 20 21 22 22 23 22 21 21 22 23 24 25 24 24 24 25 25 25 24 26
25 23 18 18 13 11 12 10 9 10 12 13 9 3 4 6 9 14 15 17 19 21 20 21 22 22 21 21 21 21 21 22 22 23 23 23 23 24 24 24 24 26 25 25 25 25 25 25 26 26 26 26 26 26
21 20 21 16 14 12 14 13 13 15 16 14 13 9 8 13 15 15 17 20 19 15 19 20 21 22 23 23 23 23 23 23 21 19 19 19 20 21 24 24 25 25 26 26 28 28 28 27 27 27 26 26 26 27
18 17 13 12 14 15 19 19 20 20 18 16 16 16 16 17 19 21 20 21 21 21 22 22 22 22 22 22 21 22 23 23 23 22 21 21 22 23 25 25 25 25 25 25 25 25 28 26 23 19 21 19 16 20
17 17 17 15 17 18 20 16 14 17 10 8 9 14 16 18 19 20 21 21 22 23 22 21 22 22 22 21 21 21 21 23 23 24 25 26 26 26 27 26 26 27 27 25 25 23 22 19 18 18 18 19 18 21
16 17 18 14 12 10 5 11 7 9 6 3 15 7 6 8 11 16 19 21 21 21 22 22 21 21 22 24 24 25 27 25 25 26 27 28 28 29 31 29 29 28 28 27 25 23 20 17 18 19 20 16 15 15
6 1 -0 5 5 4 1 5 -2 -0 -3 -2 6 12 13 13 11 16 19 21 21 20 21 21 23 24 24 23 24 25 26 26 26 28 28 29 28 28 28 29 27 27 25 24 23 22 16 16 18 18 16 15 16 15

GFSWCAN_sfc_dewp_126.txt.gz
Dewpoint
51 51 51 51 53 54 53 52 51 51 52 51 49 48 48 48 45 41 41 41 36 32 29 33 32 30 30 27 21 27 29 29 28 21 16 17 16 16 16 19 24 23 24 23 24 22 17 24 24 16 18 24 25 24
51 51 51 51 52 53 53 52 52 51 52 52 50 48 47 47 46 41 38 41 39 35 32 36 37 36 34 31 26 30 22 26 28 22 22 21 19 19 17 9 22 18 22 20 23 20 23 25 23 24 25 25 25 25
51 51 50 51 52 53 53 52 51 51 52 52 51 50 47 46 45 42 42 41 39 35 32 34 34 34 34 34 35 30 31 31 30 31 27 25 21 22 16 16 14 20 23 21 20 21 24 22 24 25 26 26 26 25
51 51 50 51 52 53 53 52 51 51 52 52 52 51 49 46 45 42 40 40 39 36 32 30 35 33 34 35 34 35 33 35 34 33 30 27 21 24 18 19 17 19 22 21 20 20 21 21 24 27 28 26 25 25
51 51 51 51 51 52 53 52 51 51 52 52 51 52 49 46 41 40 39 39 39 36 32 31 34 33 35 34 34 36 36 35 34 33 32 28 29 25 28 27 24 21 19 17 16 21 26 26 26 28 25 23 24 25
51 51 50 50 51 52 53 52 51 51 51 51 49 50 50 47 44 40 37 37 39 37 36 32 33 32 34 34 34 34 35 34 34 32 31 32 32 30 27 24 26 26 24 23 25 26 27 27 28 27 25 25 24 26
51 51 50 50 51 51 52 52 51 51 50 50 49 49 49 46 42 40 37 38 40 39 35 34 32 32 33 33 33 34 34 34 34 33 32 31 32 33 30 26 28 28 28 29 29 26 22 23 22 25 24 24 25 26
51 50 50 50 51 51 52 51 50 50 50 50 49 50 47 45 43 40 39 40 39 35 34 33 32 30 32 30 30 32 33 33 33 32 32 32 32 32 29 29 28 30 27 28 26 25 24 24 24 24 25 24 24 23
50 50 50 50 50 51 52 51 50 50 49 49 49 47 44 41 39 39 40 38 38 36 34 32 32 30 32 31 31 31 31 29 31 30 30 31 29 29 30 30 30 28 24 25 24 23 22 22 24 24 24 24 24 23
50 50 50 50 50 50 51 50 50 49 49 49 45 41 37 38 40 39 35 33 35 34 34 31 33 30 30 30 29 30 30 28 28 28 30 28 28 30 30 30 29 29 26 23 24 25 25 25 24 23 24 25 25 25
50 50 50 50 50 50 51 50 49 49 48 43 39 37 37 39 35 33 32 31 30 30 32 32 32 30 31 29 29 30 29 29 26 27 27 25 25 28 28 29 29 22 21 21 22 22 23 23 23 23 24 25 26 27
50 50 49 50 50 50 50 49 49 46 44 42 38 38 36 35 33 30 28 29 28 26 30 29 30 30 30 31 30 29 28 27 24 29 26 23 26 27 24 23 22 22 23 23 22 23 24 23 24 25 25 26 27 27
49 49 50 50 50 50 50 48 47 44 43 40 37 34 33 32 27 25 20 24 27 30 30 30 30 30 29 29 28 28 26 24 26 24 23 25 25 25 24 24 25 27 26 26 26 26 26 26 27 26 26 28 27 27
49 49 49 49 50 49 48 48 46 44 40 33 32 27 29 26 26 26 22 26 28 29 29 29 28 28 28 28 26 24 25 24 22 20 21 26 26 24 24 25 25 24 26 28 29 28 28 29 28 28 28 28 27 27
49 49 49 49 49 48 48 46 45 41 36 32 32 26 27 27 27 27 29 30 29 29 29 28 28 27 27 26 26 25 22 21 22 22 25 26 25 24 23 24 24 25 24 24 25 27 28 28 28 27 28 28 28 27
48 46 45 48 48 47 46 43 41 39 32 32 30 27 27 28 27 29 29 30 29 29 29 29 26 26 26 27 24 23 22 20 23 28 28 24 23 24 24 25 25 25 24 24 24 24 25 26 26 26 27 27 27 27
41 39 45 47 45 44 41 37 36 32 32 29 28 30 29 29 29 28 27 29 30 31 29 29 25 24 25 23 22 24 23 26 28 28 27 26 25 25 26 25 25 25 24 25 24 25 26 26 27 27 26 25 27 28
38 42 43 41 39 38 35 34 31 30 27 28 27 29 30 29 29 28 29 31 32 31 30 28 24 22 22 19 21 24 26 29 27 27 26 26 24 24 25 25 24 24 25 27 27 27 27 26 26 26 27 28 28 29
39 40 41 39 37 33 31 31 30 24 24 27 28 28 29 28 29 29 29 29 28 28 28 27 23 23 23 23 25 28 27 25 21 19 20 22 23 23 24 26 26 26 26 26 26 24 24 25 26 27 27 28 28 28
41 41 38 36 35 31 28 29 31 26 24 26 27 26 27 26 26 27 28 29 29 29 26 23 22 22 23 23 26 26 26 25 22 20 19 19 20 24 25 25 24 24 25 25 26 27 26 26 26 27 28 28 28 28
39 38 37 35 32 29 28 28 26 25 24 24 26 26 24 26 25 25 25 28 26 24 22 25 24 24 24 22 21 24 23 23 21 20 19 21 21 22 24 25 26 25 25 25 25 25 26 25 25 26 27 27 28 28
38 37 34 32 28 26 26 27 25 26 22 22 24 24 22 22 23 24 24 23 23 23 25 24 23 23 22 21 22 23 23 23 23 24 25 25 23 23 23 25 26 26 27 27 26 25 25 25 26 26 27 27 28 28
36 34 30 26 23 21 22 27 22 24 20 20 22 20 21 20 20 21 19 21 22 24 25 25 23 23 23 23 24 24 24 24 22 22 21 22 22 24 25 25 24 26 26 26 26 26 27 27 27 27 27 28 27 27
33 26 23 22 17 17 25 23 23 21 21 19 18 16 16 17 17 17 15 17 19 21 23 23 23 22 21 22 21 20 21 23 23 23 22 22 22 21 21 21 20 22 24 24 25 25 25 24 26 26 26 27 27 27
22 19 20 16 16 17 14 19 18 18 16 17 14 12 13 11 12 12 13 15 17 18 19 20 20 20 18 18 18 19 20 21 20 20 20 20 20 20 21 21 20 20 23 25 24 24 25 25 26 26 26 26 27 27
19 22 22 16 14 13 14 12 13 13 16 14 13 7 7 10 7 10 13 16 16 18 19 19 18 18 18 19 18 18 18 20 22 21 21 21 21 22 23 22 21 21 22 24 25 24 24 24 24 25 25 26 27 27
21 20 19 21 18 14 13 12 12 10 10 9 8 8 8 4 7 12 15 18 19 22 22 21 21 19 18 17 18 19 20 22 23 21 20 22 23 22 24 23 22 22 22 23 24 24 23 23 24 24 25 25 26 26
26 23 14 15 13 12 12 9 9 8 10 12 10 6 7 9 11 17 18 21 21 23 23 22 22 22 21 21 21 21 22 23 24 25 24 24 24 25 25 25 25 26 26 26 26 26 26 25 25 25 25 25 26 27
19 21 20 14 12 12 12 12 12 14 15 14 13 12 11 15 18 19 18 20 18 18 19 20 21 23 23 23 23 24 24 24 22 20 19 20 21 23 25 26 26 26 27 26 27 28 28 28 28 27 27 27 28 29
18 22 18 16 17 14 16 17 16 17 19 18 19 17 17 18 19 22 21 21 20 21 22 22 23 24 23 23 22 23 24 25 24 23 21 21 22 24 26 26 26 27 28 28 29 28 29 28 29 29 28 27 24 24
17 17 16 16 15 18 21 20 16 18 13 13 10 16 17 19 20 21 21 22 22 23 23 22 22 24 23 23 22 22 21 23 24 24 25 25 25 26 27 28 29 31 31 31 30 27 27 27 27 26 24 22 21 23
11 10 12 8 10 11 8 10 8 11 7 7 17 10 8 11 12 18 20 21 20 20 22 23 21 21 22 23 23 24 26 24 24 24 24 25 26 27 28 29 30 30 30 30 30 29 28 26 25 24 22 20 20 20
6 2 -4 1 4 3 3 5 0 2 -2 -2 6 10 12 13 11 16 18 19 21 19 19 21 22 23 23 23 23 24 26 26 26 28 29 30 30 28 28 28 27 26 26 28 29 29 27 25 22 21 20 20 19 18